GFSCGP_prec_cthk_000.txt.gz
RH
18 19 20 21 23 24 26 27 27 23 23 25 23 22 21 20 18 19 20 19 20 21 24 26 28 29 31 33 33 33 34 34 35 37 39 39 38 38 40 40 38 39 39 39
20 22 21 22 22 26 29 29 27 26 27 27 25 23 22 22 23 24 24 24 24 26 28 29 31 33 33 34 34 35 36 37 39 41 43 43 42 44 44 44 46 47 47 49
20 22 23 22 22 26 30 32 30 29 27 25 26 24 25 24 27 27 28 30 31 31 31 31 32 32 34 35 36 38 39 41 42 43 46 47 48 47 48 50 52 55 56 57
20 23 23 21 22 28 33 32 33 33 32 28 29 27 24 25 26 26 30 32 33 34 35 35 35 36 39 40 41 42 44 46 49 51 52 51 51 52 55 57 59 64 64 60
23 22 21 21 25 32 34 34 33 33 33 32 31 32 29 26 27 27 28 30 31 32 33 35 38 39 41 41 42 42 46 49 50 50 51 54 58 63 66 67 67 67 66 59
21 20 23 24 30 36 37 36 34 33 33 38 32 33 29 27 27 28 29 30 31 31 32 34 35 36 38 41 44 46 48 50 51 52 55 58 63 71 73 71 69 68 68 64
24 25 26 30 37 40 41 40 45 43 41 39 34 35 30 27 28 31 32 33 35 36 36 36 37 39 41 44 46 49 51 55 57 59 60 62 70 74 74 72 69 68 70 64
36 34 31 39 40 45 43 43 52 67 48 37 34 34 30 28 29 32 35 37 39 42 43 42 43 45 47 49 53 55 58 60 63 66 67 73 75 76 72 72 72 72 65 64
42 40 41 41 45 46 46 50 47 50 53 50 34 31 32 32 34 36 39 42 45 47 48 48 49 51 52 57 60 61 63 67 73 75 77 77 77 77 78 75 72 70 68 67
47 48 45 45 47 45 49 48 55 56 72 64 37 34 33 38 39 41 42 46 49 53 53 54 56 58 59 62 65 68 70 74 76 77 81 80 81 81 79 76 75 75 70 67
49 53 50 50 48 50 52 53 51 53 57 66 63 41 37 40 42 43 45 48 53 56 59 60 62 64 66 68 70 72 74 77 78 78 81 81 80 79 78 80 77 75 69 59
55 57 59 53 51 48 50 54 53 62 62 65 73 48 40 42 46 47 48 52 56 60 60 62 66 67 68 69 71 75 78 79 78 79 77 80 82 83 81 78 77 71 61 51
63 65 64 52 53 56 56 56 59 65 73 72 87 51 45 47 49 52 54 56 62 64 65 68 72 70 70 71 73 77 79 79 78 80 83 86 85 81 82 79 73 62 54 49
67 67 72 66 62 67 69 64 65 76 85 73 71 54 44 48 52 57 62 63 69 71 74 75 74 72 70 72 75 76 78 77 83 88 87 84 84 83 78 73 64 56 50 42
70 71 70 66 66 72 72 66 62 71 69 84 53 57 53 55 57 62 65 68 72 74 81 80 79 74 74 73 76 77 79 86 91 92 86 87 83 78 73 69 61 50 41 35
74 76 76 74 69 72 71 60 55 65 65 64 64 58 59 63 69 72 72 75 76 80 84 86 84 77 76 77 80 82 86 93 93 86 87 83 79 76 75 67 49 38 31 27
77 79 82 76 68 76 79 61 55 57 62 63 69 66 64 66 72 76 76 84 86 87 90 94 84 79 78 79 85 88 92 92 87 87 83 80 79 77 72 55 37 28 24 23
79 83 84 81 81 84 56 48 52 55 56 58 63 67 73 73 75 86 85 87 90 94 97 93 88 85 84 86 89 95 94 93 89 84 81 81 81 72 61 40 27 23 25 27
73 82 85 86 75 57 54 50 57 60 59 63 70 74 77 85 83 80 88 92 94 98 95 90 93 93 94 95 98 96 93 90 86 82 81 81 78 63 42 28 23 26 30 30
74 82 90 89 87 73 55 56 60 64 70 77 79 84 90 91 92 80 87 92 97 97 96 91 93 93 98 98 97 93 90 88 83 81 77 76 57 34 29 24 25 33 33 35
89 92 92 89 93 78 63 68 70 84 78 77 85 86 86 89 93 95 91 96 96 90 90 93 94 94 97 96 93 92 89 83 79 76 70 46 33 30 26 27 34 36 37 40
88 98 97 96 95 86 69 74 83 80 78 81 78 86 86 89 95 91 94 97 91 89 89 88 88 94 94 93 88 86 82 77 75 72 47 33 31 29 29 35 38 39 42 53
92 90 85 78 71 68 75 81 85 82 85 83 90 86 91 96 92 92 94 91 89 89 88 89 94 91 90 85 83 79 75 73 65 45 33 32 31 31 37 40 41 42 53 69
87 90 85 81 75 81 85 85 86 83 89 90 93 94 96 94 96 95 91 89 84 88 94 95 93 88 85 82 77 74 69 59 45 32 31 33 34 35 43 44 42 48 64 78
90 87 93 88 83 71 82 85 86 87 88 91 92 96 99 97 89 85 83 82 88 96 98 96 92 88 85 80 75 68 57 42 33 31 34 37 38 41 45 45 45 55 76 82
86 91 97 83 74 83 72 80 86 85 86 89 94 91 91 86 81 80 82 89 96 97 97 95 90 86 83 78 68 56 41 33 32 34 39 39 39 46 49 45 45 69 84 88

GFSCGP_prec_cthk_003.txt.gz
RH
16 22 19 18 19 22 26 28 29 27 24 25 23 23 22 22 21 22 23 24 23 22 25 27 27 26 27 28 29 31 32 33 35 35 37 40 44 45 47 45 45 46 46 45
23 24 19 19 20 19 25 30 30 27 26 26 25 24 23 20 20 21 22 23 24 25 26 28 28 29 29 29 30 31 32 34 36 37 39 41 44 47 51 52 50 51 53 56
17 23 19 21 20 20 24 28 27 28 27 27 25 29 26 20 21 19 22 24 25 26 27 28 29 30 31 32 33 35 36 38 38 40 41 44 46 47 48 49 51 55 59 64
19 20 20 21 23 23 27 29 30 29 28 27 25 24 23 20 21 22 23 25 27 28 28 28 29 31 33 34 36 37 39 39 41 44 47 49 52 54 57 58 59 63 68 72
26 20 21 24 22 24 28 30 31 31 30 29 26 25 31 25 24 26 27 29 31 31 32 33 34 34 35 36 38 40 42 44 46 48 51 54 55 61 64 65 71 77 80 81
20 21 23 23 24 28 31 32 31 33 34 40 34 30 26 33 25 26 29 31 33 35 37 39 41 42 42 43 44 47 48 49 51 55 57 60 61 66 71 72 77 83 80 82
27 29 27 27 31 34 37 36 41 42 43 42 35 33 27 29 29 30 32 34 37 39 43 45 46 47 48 48 51 53 55 57 58 59 62 65 68 72 74 73 76 80 76 74
34 39 32 33 36 41 40 40 51 61 46 40 34 34 33 32 34 36 38 41 43 46 49 49 50 52 53 54 55 58 59 60 64 65 67 71 74 76 75 74 79 83 79 79
42 40 39 37 39 41 46 51 46 50 52 56 41 36 36 38 42 45 46 49 51 51 53 57 58 59 60 61 61 64 65 66 68 71 73 74 77 79 79 82 83 82 82 79
48 45 43 42 44 44 49 48 55 61 78 66 48 46 41 44 51 54 54 56 54 58 60 60 62 64 65 66 67 67 68 70 73 73 73 78 79 81 83 86 87 85 82 83
49 53 50 50 50 49 52 54 53 54 58 69 64 52 40 45 51 55 59 58 63 62 63 63 67 69 72 73 68 67 69 70 72 73 76 79 81 83 86 86 86 85 87 83
54 55 58 51 49 46 47 50 56 63 65 64 70 56 45 49 54 57 62 65 65 67 67 70 73 74 74 75 70 69 69 70 73 75 76 77 80 83 88 90 90 89 87 81
59 62 62 50 55 56 55 52 52 59 65 67 88 56 44 48 54 56 61 61 66 67 70 72 75 78 79 77 73 72 72 73 73 74 76 78 82 89 93 92 91 86 81 80
62 62 67 67 62 63 64 56 53 62 76 64 65 51 47 54 58 59 62 64 66 68 70 74 78 81 84 79 74 72 72 73 74 77 81 84 90 93 92 91 86 85 85 78
71 70 70 63 64 67 65 55 52 58 58 67 48 58 50 55 58 62 65 65 68 72 76 77 79 82 85 81 74 73 75 75 78 82 88 94 93 92 93 90 88 86 83 71
75 78 76 73 67 67 66 56 53 55 54 56 56 52 59 59 64 66 69 71 77 75 74 78 83 87 84 79 77 76 75 80 87 93 96 94 93 93 91 90 88 86 72 54
77 83 86 80 68 75 78 65 60 61 62 62 65 63 60 63 69 76 75 79 77 80 85 84 89 86 86 81 77 76 82 89 96 95 94 93 92 90 89 90 85 68 47 31
78 84 89 87 87 86 62 55 58 60 64 61 62 62 65 70 75 83 82 84 88 93 86 87 85 86 84 84 82 85 92 96 96 96 93 91 90 89 87 75 51 33 30 27
58 76 85 89 80 68 67 60 65 65 61 60 64 72 80 77 74 78 90 95 95 92 95 90 86 87 85 89 91 92 96 96 93 90 90 90 87 81 65 37 29 28 26 30
69 81 92 93 92 85 61 60 65 65 64 73 77 80 87 92 93 88 90 94 91 91 93 88 85 83 85 86 87 92 90 90 90 90 87 82 77 64 35 29 27 26 32 37
86 91 91 89 93 72 59 65 66 77 77 80 87 89 90 90 93 93 92 89 92 89 86 84 83 87 81 87 91 88 90 91 85 81 77 73 58 33 29 27 28 32 37 37
85 99 99 98 97 89 73 76 91 90 80 85 85 90 90 92 94 92 94 92 88 85 85 76 75 81 87 93 94 90 87 82 79 76 68 49 32 30 29 30 33 37 40 44
82 82 81 82 77 71 75 78 84 80 79 83 92 87 93 92 91 91 88 86 82 81 72 75 81 87 92 92 89 87 85 80 72 61 47 32 31 31 32 34 37 42 44 49
87 86 86 81 72 79 79 83 87 90 92 86 88 90 90 90 91 87 87 77 75 73 77 81 86 91 93 90 88 85 79 70 59 47 34 32 32 32 35 38 45 46 49 58
88 91 90 81 82 84 83 91 87 88 90 88 89 90 90 89 84 84 75 74 75 76 82 87 93 94 91 88 86 80 69 57 46 36 33 33 34 36 36 43 50 51 56 69
84 83 97 96 86 90 79 84 84 86 88 90 89 83 77 84 76 74 74 75 76 84 90 95 94 91 89 86 79 68 57 47 35 33 35 36 35 36 39 47 54 54 59 77

GFSCGP_prec_cthk_006.txt.gz
RH
15 25 21 18 18 17 20 26 26 27 24 23 22 22 22 21 19 18 18 19 21 22 22 23 26 26 26 26 27 28 29 30 30 33 35 36 37 39 42 45 47 48 48 48
18 28 22 17 20 19 19 24 27 24 24 23 23 22 23 21 18 17 18 20 21 22 24 25 27 26 26 28 29 31 33 34 35 36 38 39 41 43 46 49 52 52 52 52
14 22 17 18 21 21 19 28 27 27 25 24 25 25 26 23 19 18 20 21 23 24 25 26 28 31 32 33 35 37 38 38 39 39 42 43 44 49 52 53 56 55 56 62
17 18 16 19 22 21 21 25 26 29 30 30 25 27 29 26 23 22 24 26 28 30 31 32 34 35 37 38 40 42 43 44 46 47 47 51 51 52 56 59 61 64 66 70
27 22 17 20 23 21 24 26 29 28 31 30 29 25 30 30 30 30 27 29 31 33 33 36 38 39 40 42 44 46 48 50 53 55 54 54 59 59 63 67 69 71 73 75
19 21 20 22 21 26 28 29 28 32 33 42 37 36 26 34 37 33 32 33 35 36 38 41 43 44 45 47 47 51 53 54 56 58 60 59 58 63 66 68 69 71 73 76
30 29 27 29 27 30 33 34 42 45 50 50 43 38 33 31 38 36 37 40 41 42 44 45 47 49 51 51 54 56 57 57 59 61 64 65 64 64 67 70 71 73 74 78
36 40 32 33 32 35 38 41 54 60 50 46 34 37 33 38 42 43 45 48 50 52 55 54 56 60 60 58 60 64 66 66 65 67 68 69 68 68 69 73 78 78 80 81
40 39 37 36 36 38 41 48 47 52 53 63 49 46 40 45 48 51 56 57 60 59 60 60 62 65 65 65 67 71 69 68 67 70 73 74 72 71 72 77 80 83 82 85
45 45 40 41 42 46 46 48 55 64 79 69 50 52 45 50 51 51 56 62 59 62 62 66 66 68 70 71 70 69 68 68 70 72 72 72 72 74 77 81 84 85 90 95
49 52 49 46 50 50 50 51 58 60 68 77 76 57 48 48 48 54 57 62 64 68 69 70 71 74 71 70 69 68 67 67 67 67 70 70 70 75 79 84 87 95 96 96
56 55 60 51 48 50 50 55 59 79 76 74 73 60 49 55 59 62 64 65 65 67 69 70 72 73 70 71 70 70 70 68 65 68 67 65 70 76 79 81 91 94 96 96
56 59 60 50 54 56 57 52 53 59 70 75 91 64 52 53 56 59 61 62 62 67 69 71 74 74 73 72 70 71 72 68 68 68 66 66 72 76 79 86 90 96 95 91
59 59 64 70 63 64 65 56 53 56 65 63 67 56 54 56 60 64 66 65 65 68 73 74 76 75 75 75 77 77 73 69 67 68 69 67 71 78 88 92 94 95 92 90
67 69 66 64 61 66 66 59 56 54 55 63 52 60 53 60 61 63 63 64 69 70 73 77 78 79 79 79 77 77 75 71 69 72 71 77 82 87 95 96 94 92 91 91
66 70 70 71 59 64 65 55 52 54 57 58 57 56 56 55 58 62 66 69 73 76 77 80 83 83 83 81 83 78 77 73 74 73 81 89 92 93 95 95 92 91 88 72
62 76 81 77 69 73 75 62 60 65 64 65 65 56 57 60 67 73 75 78 76 82 84 85 82 80 82 81 82 83 78 73 79 86 92 96 97 96 94 92 92 85 67 41
66 79 84 89 86 85 64 56 57 62 65 66 65 57 63 67 72 79 83 86 84 85 86 81 80 82 83 82 81 77 78 88 89 94 97 97 95 93 92 87 82 61 37 29
59 76 85 89 82 69 70 57 68 68 65 67 72 79 86 83 81 81 90 92 95 91 86 83 83 81 77 77 71 78 85 89 93 94 92 91 91 85 82 74 48 32 29 27
67 77 87 87 89 82 60 58 64 70 72 84 86 86 92 88 91 83 90 89 88 89 86 84 80 77 71 68 74 78 80 83 86 91 88 85 81 78 62 43 31 28 29 33
85 90 89 85 87 71 60 68 76 90 95 89 91 96 92 93 93 89 88 85 92 87 81 80 77 70 68 75 76 79 82 86 93 86 85 81 72 56 40 32 30 31 33 35
83 91 94 90 93 82 74 78 91 86 85 91 86 89 91 92 92 87 88 89 88 82 78 76 73 72 76 78 82 87 87 86 87 87 82 67 52 41 32 31 31 32 35 39
86 82 78 75 78 60 66 80 81 88 91 87 94 89 93 87 83 84 84 84 82 77 73 74 73 76 80 83 86 89 89 89 86 76 62 50 40 33 32 34 33 35 39 44
89 78 77 75 60 65 70 75 84 84 90 93 95 91 85 86 78 75 77 79 74 70 70 70 74 82 86 90 89 90 88 84 69 58 49 41 34 33 34 34 36 38 43 47
90 85 81 71 66 71 70 80 86 88 92 95 92 81 79 80 74 69 67 65 66 68 71 72 80 86 92 90 90 87 79 68 56 48 44 36 34 35 34 36 39 44 48 51
86 82 90 79 73 85 69 68 82 86 97 90 82 78 72 72 66 65 65 67 66 66 69 79 86 90 90 89 87 81 69 58 51 44 35 34 35 37 38 39 40 47 49 46

GFSCGP_prec_cthk_009.txt.gz
RH
17 24 23 17 19 18 18 21 24 26 23 23 21 21 20 22 19 19 19 20 21 21 22 21 23 26 28 31 32 33 33 35 36 38 40 41 41 41 42 45 47 48 50 53
19 23 22 18 18 18 17 22 26 24 23 24 24 23 22 22 21 19 16 18 20 22 24 26 29 31 34 35 35 37 39 41 43 44 44 46 47 48 49 51 53 55 56 56
18 21 19 16 20 21 18 24 25 26 25 25 25 24 22 22 22 26 26 25 24 26 28 31 33 34 36 37 41 43 45 45 46 48 49 50 51 51 53 55 58 60 60 61
18 19 18 18 24 23 22 21 24 28 32 34 31 36 27 28 29 28 27 28 30 30 32 33 36 39 39 41 43 45 47 49 51 52 52 54 56 56 58 60 63 64 64 64
23 18 17 20 22 21 25 26 27 30 33 35 36 36 31 33 31 35 36 34 36 41 39 38 42 44 45 45 48 49 52 54 57 58 59 59 60 61 64 66 67 68 68 68
23 22 25 25 24 26 27 29 27 33 35 50 40 39 37 32 36 41 44 46 47 46 43 44 45 46 46 48 49 53 55 58 57 57 59 59 61 64 69 70 70 71 72 73
30 27 26 29 29 29 30 35 47 46 55 55 42 44 38 42 44 47 48 47 47 48 50 49 49 52 57 60 59 60 63 64 62 64 67 68 69 70 70 71 72 74 74 77
42 45 34 33 34 34 38 40 61 61 63 55 39 43 37 42 46 51 54 56 55 54 58 60 63 65 66 65 63 65 72 69 66 64 66 70 72 72 73 74 72 71 74 77
46 43 38 36 37 40 45 54 48 55 57 69 56 43 38 45 51 56 60 63 67 62 64 65 68 68 69 67 68 74 74 69 66 63 63 64 65 65 68 70 70 72 74 79
47 49 43 44 43 46 49 48 60 70 81 78 60 53 50 51 49 49 58 58 61 62 63 64 67 66 67 68 72 73 72 69 64 64 63 62 63 65 69 72 75 76 82 87
50 54 52 47 52 57 55 56 64 68 77 89 92 72 52 54 57 60 62 67 66 67 69 70 70 71 73 74 75 73 69 64 63 62 61 62 63 66 70 75 77 83 93 97
55 54 62 53 52 55 56 60 63 81 86 81 87 67 51 56 60 57 65 67 67 68 69 68 70 73 73 74 72 68 66 65 63 61 60 61 63 63 66 74 82 86 91 90
56 61 67 57 58 63 65 58 58 66 70 70 88 68 58 61 61 67 67 63 63 67 69 73 76 75 71 69 69 69 68 68 68 64 62 60 57 65 71 73 77 83 87 91
56 58 61 66 59 64 66 56 52 62 72 68 69 63 57 63 68 68 62 63 69 68 70 70 74 74 72 70 68 69 70 73 73 69 61 57 64 71 72 75 81 85 90 87
53 55 57 55 60 64 64 58 54 63 63 71 58 67 60 69 71 67 68 70 69 72 72 73 73 71 68 67 69 73 75 72 69 66 66 68 72 73 76 79 85 89 88 89
56 63 62 63 56 65 69 56 56 65 68 63 63 65 71 70 73 71 72 72 75 78 77 77 75 73 71 70 71 73 75 72 72 74 76 77 82 86 88 93 93 95 92 88
58 66 73 70 69 76 74 52 59 65 63 64 71 72 74 79 80 81 85 87 85 83 81 81 79 75 70 70 72 72 71 72 71 80 85 89 92 97 96 95 93 89 81 62
56 64 76 82 84 87 58 54 53 58 64 67 68 74 80 81 79 87 87 88 84 83 82 78 75 69 66 70 73 70 68 71 75 80 86 89 93 93 91 89 83 70 51 37
62 74 81 83 84 70 59 58 62 65 62 74 77 80 85 89 83 75 75 85 88 86 80 76 70 69 68 72 69 66 69 68 70 77 84 86 88 87 85 77 60 47 37 29
66 71 79 83 85 78 57 59 67 71 72 79 87 87 84 88 92 77 81 82 81 80 79 74 68 65 68 72 68 73 72 72 76 83 89 90 88 86 73 55 46 37 32 32
78 79 80 82 82 72 58 70 68 78 75 75 81 83 84 90 91 92 81 73 72 76 73 67 66 68 69 71 72 79 77 78 85 91 92 92 87 66 52 46 39 33 32 32
81 87 92 89 88 82 68 65 75 74 73 81 74 79 85 90 91 90 81 75 71 67 64 70 66 66 69 72 76 78 81 86 92 91 88 75 60 50 47 40 35 33 32 31
86 83 84 83 75 63 69 75 70 81 81 75 84 86 88 89 90 82 76 74 69 67 64 63 60 62 70 74 81 85 92 93 89 84 66 56 50 47 40 36 34 33 33 35
87 87 85 83 70 66 74 70 73 73 77 81 84 94 94 87 80 77 79 72 72 72 64 63 64 62 69 75 82 90 91 88 79 63 56 53 49 42 37 36 37 37 39 42
92 93 86 78 77 75 70 77 78 79 83 87 83 81 78 79 74 75 67 63 70 73 70 74 65 68 79 85 92 90 84 75 64 59 55 49 43 39 38 39 40 42 45 46
85 83 91 85 76 84 74 76 84 87 85 78 76 77 78 74 72 62 59 65 75 78 72 73 74 82 90 94 93 88 81 69 62 54 49 44 41 41 43 42 42 46 51 51

GFSCGP_prec_cthk_012.txt.gz
RH
16 22 23 19 19 19 18 19 23 24 23 22 23 23 21 20 21 20 18 16 19 21 22 24 26 28 31 33 35 37 40 42 43 44 45 46 48 48 48 50 50 51 53 56
19 20 22 22 21 20 21 21 24 22 23 25 24 23 21 20 22 23 24 24 27 29 29 28 30 36 38 39 41 44 48 49 51 50 50 51 51 51 51 53 54 55 57 59
19 19 20 17 19 22 23 22 24 26 26 28 27 24 22 23 25 27 28 29 30 32 35 35 35 37 40 42 44 47 49 53 55 53 51 50 51 51 51 53 54 57 58 60
17 20 19 18 23 23 24 23 25 28 31 37 31 39 29 28 28 30 31 31 34 37 37 38 38 40 42 43 44 47 51 55 56 54 53 53 52 53 53 54 57 60 62 62
23 21 23 25 26 27 26 25 27 28 35 36 37 39 38 36 36 38 40 42 41 39 39 41 45 48 49 50 51 54 57 59 59 57 56 54 52 53 55 57 60 62 65 66
26 25 26 29 31 29 28 28 30 34 39 49 40 39 43 41 41 42 44 44 46 48 52 54 56 57 55 56 57 59 60 64 65 65 63 61 58 57 58 61 63 65 66 66
33 29 29 32 32 30 32 36 48 46 55 54 45 43 41 42 45 49 53 55 57 57 60 62 64 62 64 64 66 67 70 75 77 78 75 69 65 63 63 66 67 70 74 75
46 46 37 35 35 38 41 43 56 58 63 56 43 46 43 43 46 52 55 60 61 61 62 67 63 64 68 71 71 74 78 78 76 74 72 68 64 63 65 65 65 65 74 77
49 46 40 38 38 41 45 49 47 53 59 67 54 46 40 45 49 56 58 63 59 59 61 62 63 69 73 72 75 76 74 71 71 66 61 60 61 62 63 62 62 65 69 71
48 52 44 43 43 47 48 47 59 68 74 78 66 59 54 50 54 53 57 58 55 58 63 66 67 71 72 71 71 71 75 70 64 62 62 59 58 61 64 63 61 62 67 73
50 54 49 46 51 54 53 57 61 66 76 86 88 69 52 52 60 65 62 61 60 63 66 67 69 71 71 71 71 69 65 63 60 59 59 58 59 58 57 58 62 67 72 76
53 55 62 54 55 56 55 57 62 80 77 79 84 64 51 60 64 66 66 68 71 70 71 69 71 70 70 66 63 61 59 60 59 56 55 54 54 56 59 64 68 73 77 84
52 56 58 50 54 54 54 48 57 66 73 76 83 66 53 62 64 67 68 70 74 75 73 70 70 68 66 62 60 57 55 55 55 56 55 53 56 58 61 65 71 76 78 81
46 47 48 55 52 59 55 47 52 63 76 73 64 64 57 63 65 67 71 72 75 76 72 71 70 68 68 66 64 59 56 57 59 58 57 58 57 62 66 70 74 78 83 87
48 54 54 55 56 58 54 57 59 64 60 75 59 62 59 66 69 72 73 74 73 74 78 80 75 74 77 67 63 58 57 56 56 58 60 64 66 72 75 79 82 85 92 92
51 59 61 54 59 66 61 60 60 63 62 61 62 62 67 72 77 79 79 77 74 80 83 80 76 71 68 64 59 58 58 57 56 60 67 71 81 82 86 89 93 94 90 86
57 63 73 64 72 74 66 57 55 56 53 58 64 64 71 73 78 83 80 79 78 83 86 80 71 68 64 58 61 61 56 56 56 63 70 77 84 86 88 89 89 89 85 76
56 68 77 81 83 87 54 53 52 57 58 59 64 70 77 75 75 77 78 85 81 81 74 68 70 65 62 64 60 57 56 57 59 64 69 76 78 83 86 86 86 78 65 52
67 77 82 84 87 73 61 57 61 67 68 65 71 69 70 70 66 69 77 83 83 82 76 66 67 71 74 73 71 67 72 70 66 70 76 80 87 90 87 87 73 58 49 43
73 77 81 83 89 84 61 61 64 72 70 69 66 68 71 76 81 75 80 85 81 79 71 71 76 75 79 75 69 74 80 86 75 76 85 92 93 92 82 67 56 50 44 37
81 84 83 86 85 75 62 64 71 79 71 71 74 75 78 84 89 90 92 79 75 73 80 79 67 68 74 68 67 81 85 85 80 86 94 92 86 75 62 56 51 45 40 33
78 86 90 89 91 87 72 79 86 81 76 77 71 78 81 83 87 91 82 79 69 61 55 56 58 62 66 72 83 89 85 86 87 91 89 81 67 58 56 52 47 42 37 35
86 82 83 80 76 72 78 81 80 83 79 76 83 85 82 83 82 80 73 64 58 56 56 57 63 69 71 77 74 74 83 89 91 89 78 66 59 57 53 48 43 40 39 38
90 84 83 87 70 75 80 78 81 79 82 84 83 80 83 85 77 68 65 58 57 57 59 68 71 79 82 74 73 85 94 90 89 79 68 59 56 52 48 45 42 45 44 41
93 90 91 86 82 80 81 85 83 89 90 82 80 80 77 72 64 65 57 53 50 53 61 70 77 85 85 83 89 92 88 87 81 68 58 52 50 50 46 46 49 53 52 50
85 80 91 83 86 91 78 85 86 86 82 88 87 81 72 66 64 59 46 46 54 65 69 69 74 79 84 88 91 90 86 75 64 57 50 46 45 47 47 49 56 63 63 58

GFSCGP_prec_cthk_015.txt.gz
RH
16 20 21 20 20 19 19 21 22 23 21 23 24 24 21 20 21 23 22 22 23 27 30 29 30 32 35 41 44 46 46 49 51 52 52 51 48 48 48 48 48 49 50 51
18 19 19 22 19 19 22 23 22 21 24 26 26 25 22 22 23 24 24 26 27 28 31 32 33 36 40 44 47 47 48 53 57 58 55 54 55 53 52 51 50 51 52 54
19 18 19 19 20 22 23 23 24 27 28 29 28 27 26 25 26 27 29 30 32 35 36 38 40 41 45 47 50 53 57 57 58 59 60 61 60 56 54 52 51 52 53 54
18 19 21 21 23 25 26 24 26 28 32 35 30 38 31 28 31 32 33 34 36 37 37 38 41 45 48 51 56 60 61 59 60 61 62 61 60 58 59 57 56 55 57 58
24 21 24 26 28 27 28 26 29 30 36 36 36 39 37 35 35 37 39 42 41 41 42 44 45 46 50 57 63 62 64 65 63 60 61 62 60 59 57 53 52 53 55 59
31 27 28 30 32 30 29 30 33 36 39 46 39 40 41 40 40 42 46 48 48 48 51 56 58 61 62 63 65 65 67 67 64 63 65 64 60 57 52 53 52 53 55 58
34 34 34 35 36 34 34 36 46 44 55 51 42 42 43 42 48 50 53 56 58 59 60 61 61 64 66 67 69 67 66 64 64 61 62 65 65 62 61 59 59 58 57 57
45 43 39 39 38 38 39 40 53 49 61 55 43 46 45 46 52 56 60 60 56 56 58 61 65 65 66 68 66 66 65 65 64 63 62 61 63 62 59 58 57 57 55 55
51 44 40 42 40 41 42 47 46 55 60 67 54 48 45 47 53 56 54 53 54 57 62 64 66 66 66 66 65 64 62 61 59 56 56 56 56 56 54 53 52 50 49 50
49 53 44 40 42 45 44 47 57 64 71 70 62 54 49 47 52 48 47 50 53 56 60 64 65 68 68 66 64 64 64 63 62 62 61 57 51 47 46 47 47 48 52 56
48 54 49 44 48 49 52 56 58 60 70 78 81 61 49 50 53 53 56 60 61 63 66 68 70 71 70 69 69 66 65 64 64 62 58 56 47 44 42 45 49 55 59 65
49 50 54 46 46 46 50 56 58 72 72 74 76 59 50 56 57 61 64 64 63 63 68 72 73 75 76 73 74 70 67 64 61 59 57 55 51 43 42 44 50 58 65 73
45 49 52 45 50 46 49 51 53 61 67 73 78 63 52 57 61 62 64 65 67 69 70 70 74 76 72 71 75 70 67 63 61 58 54 50 46 47 48 50 54 63 74 82
41 46 46 54 46 49 50 52 55 64 75 74 67 62 57 57 58 61 65 67 70 72 71 74 79 77 72 70 67 66 62 59 54 54 55 56 61 64 65 71 72 69 82 88
47 49 48 51 55 56 54 57 56 64 62 72 60 59 53 57 65 68 70 72 71 70 70 72 74 75 69 65 58 53 52 51 53 55 59 64 69 75 75 80 84 82 88 93
52 54 55 56 55 58 58 57 62 60 59 62 59 57 56 61 67 72 72 75 73 71 75 73 70 67 65 60 61 63 62 61 57 53 58 69 74 77 85 89 87 91 94 93
61 65 73 64 67 69 61 58 58 58 56 59 65 61 63 67 66 65 65 68 68 73 76 74 70 67 60 63 67 64 68 71 57 58 60 65 68 74 83 84 94 93 92 89
63 71 78 79 81 83 53 55 55 58 57 60 65 67 67 65 66 69 73 76 79 77 74 68 66 65 66 68 65 71 68 65 65 71 82 84 78 84 88 94 93 87 79 67
66 74 81 84 88 75 59 56 57 60 64 65 73 69 69 72 70 69 77 81 82 76 72 72 63 62 65 68 64 64 67 70 79 79 86 88 82 91 94 90 82 71 62 57
76 79 84 86 92 85 62 62 65 70 75 71 72 76 80 82 80 79 83 82 82 69 70 62 57 55 54 54 61 65 66 66 75 79 83 84 90 90 85 75 67 60 58 54
83 85 87 88 88 79 64 64 67 79 76 77 80 83 84 89 90 88 83 73 72 69 60 51 45 44 49 49 57 67 70 73 78 85 88 90 88 79 69 63 60 58 53 47
83 87 88 89 93 85 70 74 80 79 77 82 83 84 86 89 85 82 73 67 61 51 45 44 43 46 53 63 63 70 69 77 83 91 91 88 80 70 64 59 55 50 45 40
87 80 83 83 84 77 80 80 79 82 82 81 87 90 93 91 79 77 70 63 52 48 44 45 47 49 62 70 74 73 77 85 91 93 91 86 73 63 56 49 44 41 40 43
90 85 85 91 84 77 84 82 86 88 86 94 95 93 89 83 77 72 64 57 49 43 45 53 58 61 65 68 73 83 88 93 93 92 84 67 55 46 41 42 42 41 45 49
89 89 94 92 85 81 79 78 91 90 96 97 92 89 76 73 68 67 58 52 47 49 57 63 64 61 58 63 74 82 88 91 87 71 57 46 41 41 43 41 47 53 59 63
84 83 89 87 81 83 76 91 90 92 88 86 82 67 65 64 61 60 55 52 50 54 54 57 58 52 59 71 80 82 81 73 60 47 42 40 41 40 42 51 57 70 76 77

GFSCGP_prec_cthk_018.txt.gz
RH
17 20 21 20 20 19 19 22 22 20 20 22 25 26 22 21 23 24 24 25 26 26 29 30 30 31 34 38 44 49 51 52 52 58 60 59 57 57 57 55 52 51 52 52
17 20 19 21 19 19 21 22 22 22 23 25 27 27 23 23 25 25 27 27 28 29 29 30 30 33 37 43 49 54 56 60 64 65 65 62 62 62 59 58 58 57 54 53
19 19 19 19 20 24 24 23 24 26 25 28 29 28 26 25 26 28 29 30 30 30 32 34 37 41 46 50 55 59 62 65 65 63 62 63 63 61 61 64 62 58 56 55
20 19 21 22 24 25 27 24 25 27 29 34 31 35 32 31 31 33 33 33 34 35 36 41 45 47 51 54 56 59 60 61 61 60 62 61 59 59 60 60 61 60 58 55
25 22 25 27 28 27 28 27 28 29 32 35 36 36 35 34 34 36 37 38 39 40 42 47 50 53 55 59 61 61 60 59 62 62 60 60 59 60 58 57 55 53 52 53
30 29 31 32 30 30 29 30 31 36 39 44 41 41 40 38 40 42 43 44 47 48 49 53 58 61 61 62 63 63 62 62 63 64 64 66 67 63 58 57 54 53 50 49
34 33 34 35 36 35 34 35 40 43 51 50 42 41 42 41 45 48 48 49 51 54 57 58 60 62 64 65 67 68 68 71 73 72 72 70 66 63 60 58 53 51 48 43
45 40 38 39 37 39 41 42 51 43 59 56 44 44 45 46 51 52 51 52 54 56 57 59 62 63 67 70 71 72 72 74 72 67 63 61 61 61 59 53 47 45 46 44
50 43 41 42 41 42 45 50 47 56 58 63 52 44 47 48 52 51 50 53 56 56 58 61 64 67 69 69 70 70 70 69 70 69 68 68 65 60 55 54 51 48 47 48
48 52 44 41 44 45 47 48 54 59 64 62 54 49 46 50 53 53 55 56 57 59 62 62 63 63 65 68 69 70 70 68 65 61 59 58 57 59 60 57 53 49 56 58
45 51 44 40 45 49 51 53 56 57 65 73 75 58 49 50 50 53 55 57 58 59 60 60 62 65 67 69 71 71 69 66 62 56 50 51 52 51 50 47 45 47 51 55
46 47 50 37 41 46 49 53 56 63 61 70 74 59 47 54 55 55 54 56 59 61 62 64 66 66 68 68 67 63 60 58 56 53 58 62 62 54 47 43 46 50 51 55
38 44 46 32 43 48 51 54 57 60 66 68 76 61 50 55 55 55 57 61 64 64 65 66 67 70 69 67 64 63 61 59 63 63 56 51 48 48 52 52 56 57 64 70
44 48 45 48 40 42 49 52 56 61 73 70 64 59 52 54 56 58 59 64 63 61 62 64 66 68 67 64 60 59 61 64 61 63 61 56 52 49 53 55 61 69 78 83
51 54 52 50 48 49 51 52 56 67 65 76 59 63 58 59 63 64 60 60 59 60 64 67 68 66 65 64 60 58 59 58 59 59 64 64 54 52 56 63 69 78 86 88
55 59 59 60 60 61 60 57 61 62 64 67 66 64 55 60 65 63 62 63 63 68 69 68 69 65 61 59 55 56 60 57 50 51 48 53 59 63 65 73 81 86 95 98
61 65 69 64 65 64 55 53 62 60 59 57 60 54 61 65 66 64 67 68 69 68 70 67 60 57 61 58 56 55 54 52 47 52 59 71 71 75 81 86 89 92 92 88
68 71 78 76 74 79 54 56 60 60 58 57 58 61 68 66 70 73 75 73 77 78 70 67 69 61 50 44 45 47 52 48 49 49 62 70 74 81 84 90 92 88 81 74
67 76 82 85 86 76 60 59 60 64 61 59 63 68 71 73 73 77 78 79 81 75 75 69 59 49 42 45 48 54 61 61 60 55 60 68 78 86 89 85 78 72 67 63
72 79 87 90 93 91 64 67 70 73 72 68 71 74 76 78 80 79 85 88 79 73 70 56 47 46 45 43 43 49 58 65 64 64 72 79 84 86 82 75 69 66 62 60
80 86 90 92 94 82 68 70 73 82 74 75 78 81 82 86 91 90 88 82 76 65 55 53 49 51 51 53 53 58 59 65 70 78 84 87 88 86 81 70 63 54 45 40
77 85 87 91 94 85 69 74 80 78 73 76 78 83 84 91 94 89 83 76 65 57 56 53 54 52 51 54 58 56 63 75 80 85 88 89 89 78 60 46 39 39 41 40
84 77 85 85 82 71 75 75 78 78 77 80 81 89 95 97 90 76 68 63 60 61 51 48 47 48 54 53 52 52 61 72 80 87 89 82 57 40 37 37 38 38 39 45
79 79 84 85 74 66 72 79 80 81 83 85 90 95 93 90 78 77 75 68 63 54 45 44 45 43 48 47 48 55 66 77 79 79 59 42 37 36 36 37 40 47 54 57
85 87 89 86 75 74 75 88 87 92 88 95 99 92 86 77 78 77 66 55 58 53 56 52 44 41 42 47 55 63 73 75 69 50 41 37 35 34 35 43 55 58 69 73
90 88 92 85 77 86 85 87 91 92 93 88 83 78 72 75 72 64 52 60 65 60 61 54 46 46 45 52 62 72 76 68 47 39 38 37 35 35 45 51 56 76 78 77

GFSCGP_prec_cthk_021.txt.gz
RH
16 18 20 20 19 18 19 21 22 20 21 22 24 24 22 23 24 24 25 23 24 25 28 32 33 33 34 36 40 46 51 52 52 55 58 60 60 60 60 60 58 61 61 60
16 18 19 19 18 19 21 22 21 23 23 24 27 24 24 24 27 28 29 29 28 28 30 31 33 35 38 43 48 53 54 56 61 61 60 61 60 59 60 60 59 59 58 56
18 17 18 18 21 23 24 22 23 24 25 26 27 27 27 27 28 30 31 31 32 33 35 36 39 41 46 49 54 58 61 64 63 60 58 59 60 59 59 60 62 61 58 59
20 19 22 23 24 25 26 24 26 27 28 28 30 29 30 31 31 33 34 34 35 37 39 41 44 48 52 54 57 58 59 59 61 61 61 62 62 62 62 62 62 59 60 58
24 24 27 29 27 28 28 29 29 29 30 31 34 30 34 34 36 37 37 39 41 44 45 47 50 52 54 56 58 59 61 64 66 66 67 66 66 67 67 66 60 57 56 55
28 28 30 31 31 32 32 32 32 34 36 37 37 36 39 38 40 42 42 45 47 48 52 53 54 57 58 59 61 64 66 68 67 68 69 71 76 76 69 68 64 61 58 52
32 31 32 34 34 34 35 34 36 38 42 41 40 38 43 44 44 46 49 51 52 53 56 61 61 62 62 65 67 68 68 71 77 76 79 80 74 70 65 61 55 52 48 45
40 36 37 39 37 39 41 40 45 41 46 45 44 45 45 47 48 51 52 53 55 56 59 62 62 63 64 65 65 65 69 69 72 72 68 66 65 62 58 56 56 54 51 47
45 40 41 40 41 41 44 48 46 52 56 54 44 47 48 50 49 51 53 54 56 58 58 59 58 60 63 65 66 68 69 67 65 61 60 57 54 55 57 59 57 51 45 41
44 47 43 41 43 44 44 46 49 52 57 54 43 45 43 48 52 54 56 56 55 55 55 56 59 62 66 68 68 66 65 63 60 58 57 59 62 64 63 58 51 46 43 44
40 44 40 37 42 46 47 50 54 54 61 66 67 43 44 48 51 53 56 56 55 56 60 62 62 63 64 66 65 61 60 59 60 62 63 64 63 57 45 35 34 33 39 45
36 37 39 33 38 42 46 50 51 54 56 61 63 48 41 48 52 54 56 55 56 58 57 57 58 57 58 59 58 57 57 58 63 61 59 57 51 46 37 39 36 43 53 56
41 43 41 32 44 47 50 51 50 53 59 59 67 48 45 52 54 58 57 57 57 56 56 57 58 57 56 58 58 58 59 57 54 53 52 48 45 44 47 49 45 48 60 69
40 44 40 42 39 43 47 48 54 59 68 63 58 54 49 52 55 57 59 60 60 61 61 62 62 60 57 55 53 52 53 50 49 50 50 49 51 53 56 56 52 57 67 76
42 48 51 51 49 52 52 55 58 64 64 73 57 59 54 56 59 60 62 63 64 65 65 68 65 60 56 55 49 44 40 41 43 46 43 43 46 49 53 57 65 72 77 80
48 53 56 58 56 57 56 53 57 64 65 69 67 65 59 58 63 64 64 64 66 70 71 70 65 61 59 52 46 42 41 43 46 45 50 54 55 64 69 74 72 80 84 85
51 57 61 57 60 61 56 54 61 63 64 64 65 57 60 64 65 64 66 68 69 75 76 75 69 64 57 51 43 42 45 45 47 49 50 54 56 65 69 77 81 85 80 74
55 62 68 73 70 72 48 58 62 65 60 61 61 60 62 65 67 68 72 77 79 80 79 70 68 65 59 52 44 42 44 44 47 49 50 56 63 70 75 81 81 77 73 68
54 66 75 81 82 71 59 59 62 67 60 61 62 65 66 69 71 73 81 84 86 84 77 75 68 63 53 47 41 38 45 52 52 57 58 64 71 79 83 85 82 69 59 48
60 67 76 88 92 85 64 64 67 67 66 65 69 73 75 80 86 80 86 90 85 75 75 72 66 59 52 50 44 42 48 51 59 63 69 71 78 84 84 72 47 36 35 36
67 75 81 87 90 79 69 71 70 80 75 77 81 84 83 85 84 87 92 83 79 77 72 70 67 59 56 51 45 44 44 49 55 63 72 74 79 73 46 37 34 33 34 35
67 75 88 92 91 85 72 76 80 75 74 83 89 89 86 86 86 90 83 81 76 71 65 71 64 59 52 48 47 41 42 44 52 61 70 74 59 41 36 33 32 34 36 42
76 71 83 88 80 74 78 80 80 80 85 85 90 92 93 94 89 83 75 78 67 60 73 70 58 55 55 55 54 50 53 52 58 68 72 54 41 38 35 33 34 41 47 52
75 77 84 86 74 79 78 82 83 87 92 91 96 94 97 90 86 75 72 70 70 69 62 57 60 56 58 54 54 61 56 55 62 72 58 40 41 39 35 35 44 48 56 62
77 85 89 82 79 81 82 85 89 87 96 96 95 90 84 74 66 65 66 66 56 55 54 53 51 46 50 51 57 60 56 58 72 66 43 41 43 40 37 44 51 58 64 65
85 88 90 86 84 91 85 92 86 93 93 87 82 74 64 58 53 50 45 45 47 48 46 45 50 47 47 52 59 55 58 63 73 46 41 42 44 41 44 48 56 65 68 73

GFSCGP_prec_cthk_024.txt.gz
RH
17 19 19 17 16 16 15 17 19 19 19 21 22 21 22 24 25 25 24 24 26 29 31 35 37 38 38 38 40 47 54 55 56 60 61 65 65 62 60 60 59 56 56 56
15 17 17 17 16 17 19 20 21 21 22 23 24 23 23 25 26 27 28 30 31 32 34 34 37 37 38 41 44 49 54 58 60 62 65 65 64 64 63 63 65 65 62 62
16 16 17 17 19 21 22 22 24 24 23 23 24 26 25 26 28 30 31 32 33 35 36 37 39 41 44 46 51 55 59 61 63 63 64 65 67 67 67 68 68 69 70 69
18 19 21 21 22 24 23 23 26 25 25 24 25 32 28 29 31 33 36 37 38 38 39 42 44 47 50 52 55 58 60 60 59 62 64 65 66 68 68 68 72 77 75 68
22 24 25 28 27 28 30 29 28 27 28 26 27 28 35 32 36 38 39 40 41 43 46 48 50 53 55 55 57 58 60 60 62 62 64 64 72 82 78 73 72 72 69 64
24 26 27 28 29 30 31 30 30 32 33 35 34 33 35 35 39 41 41 43 44 47 51 53 54 56 59 62 64 62 64 65 64 63 63 68 67 66 63 62 60 55 52 49
27 28 29 31 30 31 32 33 35 41 43 39 37 36 39 40 42 43 43 46 50 53 55 59 61 62 63 63 64 64 66 67 66 68 69 63 61 59 57 55 52 50 49 50
30 36 34 36 35 36 38 37 42 43 39 40 38 37 40 43 43 44 45 50 53 57 59 58 57 58 60 60 61 66 67 67 70 69 64 59 54 54 54 54 54 51 45 42
36 35 38 38 38 39 43 44 43 47 48 47 36 40 44 44 46 48 51 55 58 59 59 56 56 59 60 61 61 59 57 56 56 55 54 52 54 56 58 55 50 44 40 40
36 39 40 37 38 39 39 40 47 46 59 44 33 40 40 43 47 50 54 58 60 59 56 56 57 56 55 55 55 55 55 57 59 60 60 58 60 58 54 47 42 38 34 36
32 33 32 30 33 37 39 43 44 44 49 55 49 34 42 43 47 51 54 57 59 61 60 58 57 57 58 59 60 58 59 62 63 65 60 52 47 45 44 41 38 40 43 45
34 35 34 32 37 41 44 47 46 51 53 53 52 40 38 44 51 52 56 59 61 61 60 62 62 63 63 64 63 65 65 61 55 49 49 41 45 44 42 42 47 49 50 52
35 35 32 35 42 44 46 46 46 46 50 52 66 46 46 52 53 55 57 58 59 62 64 64 66 67 68 65 66 61 54 48 47 45 45 50 52 55 52 51 48 49 53 58
34 34 32 34 32 36 40 43 49 53 63 57 50 51 46 53 56 58 60 61 63 65 66 69 71 69 64 65 61 53 50 48 49 53 55 52 53 47 49 53 53 60 69 73
34 34 36 36 37 40 47 49 52 54 57 66 57 54 57 56 57 59 62 65 64 66 70 73 71 69 65 62 57 56 57 55 51 56 54 54 53 51 54 61 70 77 85 88
37 39 41 43 41 43 47 49 54 59 61 64 66 65 64 62 63 64 65 66 68 71 74 73 71 71 69 63 59 54 55 57 56 53 53 51 46 53 56 62 68 74 77 80
42 45 50 55 49 50 61 51 53 59 62 69 70 66 66 67 71 70 69 71 74 76 75 71 74 70 66 63 60 58 50 55 56 57 54 54 56 61 61 66 74 80 79 70
50 59 62 68 66 71 54 56 58 60 62 66 65 66 68 68 69 71 75 76 78 76 78 75 76 74 71 66 59 56 51 54 58 53 56 61 66 67 67 70 77 72 49 40
54 62 69 73 72 57 52 57 61 65 62 64 64 66 65 71 76 78 80 79 78 79 83 82 77 72 70 65 59 55 55 55 53 55 56 67 67 68 69 69 51 39 37 34
55 61 70 76 84 76 61 65 67 68 68 68 71 72 71 80 81 82 88 90 91 90 86 84 70 60 58 59 59 54 48 50 52 50 55 58 61 67 62 47 39 37 36 36
63 70 76 81 86 70 66 68 68 79 78 77 80 82 82 84 87 89 90 89 89 86 84 66 62 68 70 62 51 47 51 52 52 57 59 63 66 62 49 41 38 36 38 42
56 77 82 84 87 88 69 72 82 80 79 81 83 85 86 91 87 88 89 84 82 79 64 68 65 60 54 53 54 51 49 52 55 60 62 65 63 52 44 43 42 41 45 47
63 65 70 75 71 74 78 78 80 84 84 86 90 86 85 85 86 83 82 78 69 58 57 56 58 56 52 50 50 49 54 57 57 60 62 67 57 48 49 46 44 47 51 55
68 72 74 75 69 77 80 80 84 89 90 88 89 82 79 80 81 77 65 60 56 55 55 50 48 46 43 52 57 58 58 57 59 66 67 65 53 48 48 45 50 54 56 57
75 77 79 77 78 80 84 87 84 81 86 91 85 77 79 80 74 58 54 54 56 55 49 46 48 45 48 52 56 57 58 61 68 70 70 60 48 48 46 49 54 56 59 62
79 79 86 86 86 90 89 81 83 87 86 79 75 76 77 64 56 56 56 56 51 50 47 47 43 44 46 50 57 58 64 71 76 73 70 56 48 46 49 56 56 58 61 66

GFSCGP_prec_cthk_027.txt.gz
RH
19 28 32 25 20 21 16 16 19 20 20 18 21 23 21 22 23 24 24 25 26 31 38 41 42 40 41 43 49 53 56 58 59 65 68 68 70 72 71 69 68 68 69 68
16 26 19 16 16 15 18 21 23 21 20 18 27 25 24 25 26 28 28 29 31 31 35 37 38 39 41 43 46 49 54 58 62 65 66 66 67 69 69 71 69 71 70 71
23 20 15 16 19 20 22 22 24 23 22 21 24 29 26 26 26 29 30 32 35 37 38 39 41 42 45 48 51 55 59 61 64 65 68 67 68 70 70 69 68 73 80 79
19 16 18 19 21 20 27 24 23 24 25 35 29 36 39 33 29 32 36 39 40 40 40 42 46 49 52 55 57 60 61 63 62 62 62 64 67 70 70 70 70 67 62 60
24 22 25 27 27 25 30 26 27 26 27 27 30 23 45 38 36 37 39 43 43 44 46 47 51 55 57 57 57 57 61 63 61 61 63 66 69 68 66 68 64 58 55 54
23 23 26 27 26 26 26 29 30 30 32 35 33 33 47 46 42 40 43 47 47 46 47 49 53 56 57 58 58 57 59 61 62 62 64 65 64 65 66 63 55 54 54 53
27 29 28 28 31 32 32 34 42 47 47 49 44 32 45 45 44 43 45 48 46 48 51 54 55 59 58 55 55 57 59 61 63 62 61 61 59 56 55 56 57 57 50 45
33 41 33 31 32 33 36 35 46 45 46 44 40 33 49 42 42 44 45 46 47 50 54 57 58 58 57 56 59 56 55 54 54 56 55 56 56 57 59 60 58 52 44 41
35 36 33 32 33 33 40 46 36 41 48 43 32 44 46 42 43 43 43 46 50 52 55 57 58 57 56 53 53 54 55 56 57 58 59 59 59 57 56 56 54 51 47 46
30 39 32 28 27 35 30 31 43 48 57 43 35 41 43 55 49 43 46 47 52 53 57 60 58 57 58 56 59 62 62 62 63 64 61 59 57 54 53 53 52 52 51 48
26 29 33 27 33 31 38 46 44 42 47 54 47 37 46 50 48 52 54 54 56 59 61 62 61 62 64 64 64 62 64 64 61 59 56 53 53 55 58 55 58 55 52 46
29 30 31 29 31 32 36 41 41 50 50 55 56 44 43 44 50 51 52 59 63 64 64 65 68 70 68 67 63 64 64 60 57 53 51 52 53 57 59 53 48 50 50 50
29 31 31 32 39 41 40 42 45 46 50 47 60 52 55 57 61 64 67 65 67 68 68 70 70 69 69 67 65 65 59 58 56 57 56 55 58 59 54 51 50 53 55 58
28 29 27 31 30 30 36 38 41 46 56 58 56 57 55 61 67 66 64 69 67 69 70 70 69 69 70 68 66 60 57 58 59 58 58 57 58 55 54 49 51 62 65 72
31 36 30 29 28 29 35 40 43 49 52 63 57 59 64 67 66 67 68 71 69 69 68 68 71 71 70 70 67 62 60 59 61 60 56 60 52 53 52 53 57 60 67 71
32 39 37 35 35 31 34 39 45 47 55 59 62 64 68 69 68 67 69 70 68 69 72 74 72 72 76 73 72 67 68 64 64 62 65 62 50 54 52 53 59 61 67 74
35 37 40 51 41 40 53 49 46 51 60 62 68 69 67 68 69 70 66 68 75 81 81 74 74 79 78 77 72 69 63 59 62 64 59 54 55 53 56 59 62 67 71 56
41 45 55 59 55 63 45 47 51 54 60 61 64 67 68 72 75 74 73 76 78 79 75 77 80 85 83 77 74 68 66 59 59 56 58 53 53 56 57 62 66 68 52 49
42 53 60 64 56 47 49 53 57 59 59 62 65 68 68 70 72 72 76 78 76 74 75 77 84 81 76 76 68 60 57 54 53 55 57 52 56 58 58 63 62 54 50 48
46 53 58 64 74 67 52 60 62 61 67 68 72 70 69 72 74 77 77 74 74 75 76 75 69 71 66 65 67 63 58 58 59 56 55 58 61 62 65 65 55 52 50 52
55 59 62 67 74 62 58 63 62 72 79 77 76 80 82 83 82 82 84 78 71 69 70 67 64 63 67 72 71 69 69 70 67 65 62 62 63 65 67 59 51 53 57 54
51 62 67 71 79 80 66 68 78 79 77 81 85 85 86 83 79 77 78 74 69 70 69 64 61 60 59 61 66 68 71 71 73 66 64 66 67 71 69 61 55 60 56 57
44 51 63 70 69 72 74 79 83 86 86 85 84 79 75 77 75 72 69 68 67 64 56 55 55 52 51 52 54 60 68 61 78 79 65 71 76 75 73 58 56 56 57 55
45 52 65 70 67 73 77 85 85 87 87 82 76 76 74 69 69 65 59 54 53 52 49 48 46 44 45 53 54 56 66 65 84 82 72 85 86 81 68 53 55 57 56 56
50 56 66 71 74 77 83 85 89 91 87 75 75 74 72 65 61 54 48 48 46 42 36 33 41 49 53 54 55 58 67 78 82 72 86 91 87 85 57 51 55 55 58 58
56 67 78 81 82 85 94 95 90 85 78 77 74 73 65 55 48 48 46 43 40 35 34 41 42 47 48 52 57 60 67 79 81 85 89 92 89 69 50 54 54 57 57 61

GFSCGP_prec_cthk_030.txt.gz
RH
19 30 40 37 26 26 25 20 22 25 20 17 18 24 24 24 26 25 24 26 30 35 38 44 47 48 45 46 48 49 54 57 59 61 65 66 68 70 70 68 67 65 66 63
20 32 35 33 20 18 22 21 27 26 21 17 30 30 26 26 29 27 28 29 31 33 37 41 46 49 50 47 49 51 53 56 58 61 67 67 67 68 67 66 66 69 67 64
33 31 17 13 18 18 24 22 30 26 24 20 20 31 29 29 29 30 30 31 32 34 37 40 42 43 45 48 50 54 56 58 61 61 61 62 63 64 64 65 69 69 70 69
24 21 15 18 21 18 26 26 24 20 23 28 34 33 40 36 39 40 40 35 36 39 41 43 45 47 50 54 56 57 58 60 59 55 56 58 60 62 65 67 68 65 63 58
26 20 23 26 27 22 27 27 23 24 24 26 30 36 39 42 44 47 47 47 43 46 47 49 51 53 55 55 56 58 57 56 54 52 55 57 58 59 59 57 54 53 50 50
23 22 23 25 22 23 22 25 27 30 31 39 31 36 49 51 52 52 51 50 47 49 51 53 53 55 55 56 55 55 54 54 56 55 51 49 49 50 51 51 52 53 54 54
27 27 26 24 29 32 31 33 46 59 61 58 52 45 51 49 57 58 55 53 50 51 50 50 52 56 59 59 58 54 51 50 49 49 52 53 55 56 56 57 58 58 56 53
37 46 32 29 29 32 34 33 51 51 58 55 44 40 51 44 53 60 51 48 45 48 49 52 54 55 57 57 56 52 52 52 54 54 55 57 59 60 62 62 59 57 55 52
33 38 28 28 27 26 34 46 32 32 42 49 29 42 55 58 60 57 54 52 51 49 51 54 57 59 57 56 56 56 56 57 56 56 57 57 58 59 58 58 58 55 53 49
29 39 28 25 30 38 32 32 41 56 63 55 36 45 64 64 61 61 61 61 58 55 56 60 60 60 60 61 61 60 58 57 58 60 58 56 53 53 54 56 56 53 49 47
25 32 32 29 32 29 34 40 39 41 46 57 58 46 49 52 63 63 67 66 62 60 61 61 61 60 64 62 62 64 62 62 61 58 57 51 52 54 55 56 57 52 49 44
25 28 32 26 26 27 28 34 37 51 46 54 62 51 43 48 55 59 62 66 67 69 72 68 67 68 66 67 66 67 65 62 61 58 54 58 58 59 60 59 54 49 48 49
25 29 35 38 39 36 31 33 33 40 48 52 66 51 53 61 69 73 72 72 74 79 80 72 71 68 69 70 69 66 64 66 61 62 62 59 63 63 58 49 48 45 45 47
27 27 26 31 27 27 29 29 32 39 56 56 56 58 58 60 70 72 71 73 72 72 69 69 70 72 73 72 71 67 69 68 67 68 68 71 65 55 52 47 45 45 44 49
29 32 28 26 23 27 30 29 32 38 45 56 56 59 62 66 70 68 71 68 66 66 68 69 72 71 72 72 69 71 71 68 66 64 64 62 57 54 51 48 48 49 50 53
29 36 33 28 26 30 29 29 37 42 48 50 58 58 60 67 66 66 67 65 66 69 69 71 69 65 65 67 71 71 65 61 62 57 57 60 62 57 56 53 53 54 57 60
35 37 37 43 38 36 51 44 39 43 52 58 64 63 64 66 66 70 65 66 69 68 69 67 65 65 66 69 68 64 61 60 58 57 58 67 70 67 56 50 58 59 61 62
39 37 48 51 48 51 33 35 39 44 51 56 59 62 70 71 71 70 69 72 74 71 72 68 68 67 69 68 64 62 69 67 63 58 58 57 55 53 51 58 63 64 66 57
36 44 51 55 50 37 37 45 47 51 55 59 66 70 71 72 69 73 77 74 71 67 64 65 64 62 58 59 66 68 67 68 67 62 70 69 82 68 63 62 67 71 66 60
38 46 50 55 60 54 42 47 54 52 61 70 72 75 76 75 79 75 67 62 61 61 62 58 58 57 61 63 60 58 57 54 57 63 84 71 86 92 84 71 75 77 75 59
47 50 52 55 61 53 46 52 53 62 75 77 80 80 80 78 79 70 65 62 62 60 57 53 51 52 51 47 39 38 41 49 51 54 91 80 70 93 89 72 82 80 78 56
46 54 56 56 64 64 53 61 74 73 78 82 83 82 81 76 70 67 66 62 59 50 44 43 40 37 36 34 37 43 47 50 49 57 58 90 88 95 83 81 84 89 63 55
46 43 51 54 53 55 69 74 79 82 85 89 85 82 79 73 67 66 61 55 48 42 39 35 34 30 28 34 46 51 49 54 53 54 68 84 84 80 86 91 89 73 53 52
36 35 46 51 48 59 69 77 82 84 86 87 85 81 72 68 66 59 51 45 42 40 37 39 31 30 35 40 42 44 50 54 57 65 79 85 83 86 88 86 78 51 51 53
39 40 41 45 54 70 79 84 83 85 87 84 80 73 69 64 57 50 44 42 38 35 33 29 32 37 37 41 43 50 56 58 66 69 75 75 84 87 89 81 50 49 52 56
36 37 49 60 69 73 82 80 81 79 76 73 69 67 62 56 48 43 41 38 35 31 30 34 34 33 34 44 50 55 59 68 71 73 72 76 81 88 79 49 50 48 54 54

GFSCGP_prec_cthk_033.txt.gz
RH
30 31 34 30 29 35 29 29 29 23 20 19 18 29 29 25 25 28 28 29 33 37 40 48 52 52 54 60 65 65 67 62 60 57 59 62 66 70 72 71 70 68 65 62
33 31 33 34 29 27 30 28 30 25 22 20 20 26 27 27 28 29 28 31 34 38 42 45 51 57 61 63 59 57 54 55 56 57 60 64 68 69 67 65 66 66 66 65
27 29 27 25 26 23 24 29 29 25 23 19 27 31 32 32 32 38 39 41 38 38 40 45 47 48 50 50 51 49 52 54 55 57 58 58 57 55 57 61 63 65 65 66
24 26 26 15 18 20 26 26 26 24 22 25 28 36 37 35 38 39 38 40 42 44 42 44 47 50 50 51 53 53 52 53 56 56 54 54 54 55 57 58 57 55 53 51
24 22 21 24 25 24 24 25 24 23 25 27 31 37 39 44 49 44 49 51 52 52 49 44 46 48 50 52 51 53 56 57 54 50 49 47 47 49 51 52 53 54 55 56
26 27 24 26 24 24 25 26 28 32 38 43 41 42 47 49 47 56 56 56 64 59 52 49 49 49 48 50 54 57 56 55 54 54 53 54 54 54 54 54 54 54 55 56
27 29 25 23 29 31 31 32 46 49 64 59 55 60 70 60 60 55 54 58 61 59 54 51 51 52 52 51 53 54 54 54 55 54 55 55 56 58 58 58 58 56 55 52
41 44 33 27 28 30 32 34 53 49 62 54 43 59 60 58 60 66 70 71 68 60 60 58 57 51 53 57 57 56 56 57 57 55 54 55 58 58 57 56 53 52 55 50
43 40 31 25 21 26 28 43 35 36 49 54 46 51 57 61 68 72 74 74 73 68 66 64 60 59 58 57 58 59 59 57 55 56 56 55 57 56 54 52 54 55 57 59
35 40 28 27 33 30 32 30 39 49 54 51 45 56 65 59 59 63 68 71 73 79 70 66 68 66 66 66 65 61 60 61 58 59 60 58 56 53 53 57 57 61 64 62
33 37 30 29 29 27 31 36 35 37 47 59 65 50 50 61 65 66 68 71 68 68 70 72 70 73 73 68 65 63 63 64 64 64 62 62 55 55 60 57 54 54 51 47
26 30 35 28 28 28 26 32 33 48 44 56 66 57 51 59 58 66 74 73 76 79 79 76 75 72 69 69 71 70 69 66 65 66 67 61 56 53 51 51 52 52 46 48
26 28 41 35 36 31 26 29 29 36 49 51 64 57 51 61 63 68 72 72 73 72 72 72 68 71 74 74 71 71 67 64 64 66 61 54 47 46 45 45 50 48 46 49
29 25 29 38 30 27 25 27 26 30 54 53 56 54 54 64 67 66 69 71 71 73 74 73 74 73 72 73 72 67 64 64 59 54 47 44 41 43 41 42 44 46 37 44
29 32 31 30 24 21 25 27 27 29 34 45 48 54 61 65 68 70 71 72 73 72 71 69 68 64 61 60 62 63 59 55 50 46 46 47 43 38 39 46 51 47 40 44
28 37 32 25 27 31 27 30 33 35 38 43 49 58 62 64 64 66 68 69 70 71 68 66 64 58 55 55 53 50 48 48 52 54 61 58 55 65 69 67 68 66 60 67
34 38 38 40 37 35 44 35 31 34 40 44 51 55 58 60 64 67 70 73 72 67 62 58 54 51 48 44 44 49 54 56 57 54 59 65 66 66 66 86 95 92 87 80
35 36 41 44 41 36 34 30 34 39 44 46 58 62 65 69 72 74 74 71 69 64 55 52 48 48 51 50 50 50 52 52 49 54 52 56 58 65 75 98 95 91 83 84
34 37 45 49 50 36 34 37 39 41 50 53 58 65 70 74 76 76 75 68 61 56 52 51 49 48 43 43 43 43 40 37 31 31 35 41 49 62 88 98 97 96 93 85
39 42 43 49 51 52 40 40 40 43 55 60 65 70 74 73 77 75 66 60 55 52 51 47 42 38 40 39 36 31 24 26 34 37 45 48 47 56 92 97 93 87 80 75
48 47 48 53 52 44 36 39 40 55 57 65 71 73 74 76 77 69 63 59 56 52 45 40 36 36 34 29 25 25 28 35 40 45 51 51 57 67 90 97 91 88 78 82
42 49 51 51 55 56 38 43 48 57 66 71 74 75 77 75 69 66 63 58 53 46 41 37 36 32 30 30 26 31 37 41 42 49 50 52 59 70 88 84 86 82 82 74
46 40 46 44 43 37 42 45 51 59 71 78 78 74 74 71 66 65 61 53 46 40 37 34 32 32 29 25 30 36 40 41 46 50 54 57 65 69 74 76 80 86 70 41
37 38 44 47 45 48 48 52 58 66 78 82 77 72 70 68 66 59 52 45 41 37 34 32 29 26 24 26 29 38 44 48 51 53 65 66 63 65 75 84 86 69 43 43
33 35 36 40 44 48 52 61 69 78 81 77 72 70 69 65 60 52 46 42 38 36 33 28 25 24 24 26 31 41 50 52 54 64 71 77 76 78 84 85 56 44 44 50
36 36 43 44 40 48 61 75 80 81 80 78 74 73 71 62 57 48 44 39 37 33 27 24 24 25 26 32 39 48 53 55 60 75 77 77 79 82 76 51 45 45 46 51

GFSCGP_prec_cthk_036.txt.gz
RH
30 38 36 36 39 36 34 31 29 32 27 26 26 29 28 30 33 34 35 33 33 35 41 48 51 53 65 69 73 78 83 79 77 74 64 65 69 68 72 72 69 66 68 68
38 36 34 34 36 37 36 36 33 27 26 24 25 26 29 30 30 31 34 37 40 46 48 51 55 63 66 67 70 70 63 65 64 60 61 64 68 71 71 71 70 70 72 73
32 32 33 34 35 38 39 35 33 32 29 27 27 31 32 36 38 36 39 44 47 52 53 57 58 56 57 56 54 55 56 54 55 57 58 61 64 63 61 62 63 66 65 61
26 29 30 28 22 25 29 27 34 31 28 24 22 36 37 37 40 40 40 45 52 55 53 52 53 53 51 49 50 51 55 59 57 54 53 51 49 50 53 56 58 56 55 55
24 27 26 27 24 21 23 23 23 24 26 26 30 35 38 41 42 43 43 52 58 60 58 59 57 51 49 52 55 52 49 47 45 44 47 49 51 52 54 54 53 53 55 55
26 29 25 26 25 23 23 23 26 29 34 41 40 41 41 48 48 51 52 60 62 63 64 59 53 51 46 45 44 46 46 47 49 51 53 54 56 53 51 51 54 57 57 54
26 30 24 23 26 27 26 32 46 50 59 62 52 60 63 59 57 57 58 61 62 65 68 61 59 58 57 56 53 53 54 54 54 57 60 58 57 56 57 56 57 55 53 52
37 41 29 24 30 30 30 34 48 45 56 47 44 54 55 57 59 61 69 72 71 76 79 73 66 63 60 62 65 66 65 64 63 60 59 60 58 60 59 54 53 49 49 51
39 40 31 23 24 30 30 40 31 39 46 50 49 51 52 58 62 71 78 79 76 76 74 67 65 67 73 73 74 74 69 64 65 65 67 63 59 59 59 55 52 53 54 51
36 40 29 27 28 29 28 28 36 40 45 47 50 54 59 56 61 64 64 65 68 68 74 72 75 79 76 75 71 69 68 68 71 70 67 65 59 61 60 57 53 47 46 46
35 38 30 30 32 27 29 32 32 36 45 53 59 52 50 55 59 64 67 69 69 72 75 78 84 80 79 77 73 71 72 70 67 68 65 64 63 54 46 44 40 40 42 43
34 36 36 30 28 26 25 29 32 42 36 50 57 49 47 51 55 62 69 74 76 84 84 87 81 80 77 72 70 68 67 65 63 59 57 51 43 39 39 42 36 32 38 45
30 33 41 34 34 31 25 29 29 34 41 43 52 47 46 55 57 60 66 71 76 80 81 80 79 75 72 68 65 62 58 56 57 54 46 40 40 40 44 43 43 43 51 57
30 31 30 36 28 24 21 24 26 31 46 43 46 40 43 52 58 62 67 71 73 72 72 72 72 67 64 62 57 54 54 52 48 42 42 46 45 42 39 51 54 61 69 66
31 33 32 30 28 25 23 24 26 26 28 37 38 44 49 53 59 63 67 70 70 70 70 70 70 66 62 53 46 45 44 41 43 45 50 49 48 49 54 59 64 67 77 75
30 37 32 28 31 28 25 26 30 30 30 37 45 52 54 58 61 66 70 72 74 73 72 66 60 56 50 49 47 41 39 41 48 50 51 56 49 49 48 51 66 57 70 91
31 36 35 30 35 32 35 30 29 30 34 36 42 48 54 59 65 71 74 75 73 69 64 60 55 52 50 44 38 39 41 44 44 42 40 36 33 35 43 52 51 56 87 97
34 39 38 35 34 27 29 27 28 35 39 41 48 55 61 65 70 74 74 71 68 66 62 57 54 48 42 37 36 39 40 38 32 25 25 26 31 40 48 52 49 71 98 97
33 36 42 38 44 30 28 30 32 35 41 46 50 57 62 66 72 75 73 70 70 65 59 55 49 43 39 37 37 35 31 26 23 24 28 35 41 42 42 49 59 69 83 88
38 37 36 49 37 37 29 30 33 35 43 45 51 59 66 70 74 74 69 68 64 59 54 48 42 39 39 38 35 29 28 26 26 29 36 43 44 43 49 57 70 74 77 85
47 47 48 51 50 39 30 33 37 46 39 46 53 60 66 72 72 71 68 64 60 55 48 44 42 40 37 32 30 28 29 30 30 32 41 45 45 53 56 63 65 66 75 82
42 46 48 51 53 47 31 36 39 33 37 48 55 61 70 73 71 66 65 64 59 52 48 43 39 34 32 30 28 27 28 29 31 39 46 48 53 63 62 60 70 78 82 82
38 34 40 40 39 31 33 36 37 41 49 56 62 69 72 75 73 70 67 64 57 52 45 39 34 32 29 28 26 25 27 33 39 46 50 53 62 71 75 73 78 82 78 52
34 37 42 42 36 37 41 44 46 51 56 63 72 73 72 72 72 70 68 61 53 48 41 36 33 30 28 26 25 28 30 38 46 49 55 58 69 77 77 79 83 77 51 47
32 36 40 43 44 45 48 49 50 55 64 73 75 73 74 74 72 71 62 56 51 43 38 34 32 29 27 26 25 27 31 41 48 52 58 64 77 79 79 81 71 49 46 45
36 37 41 41 38 42 45 50 57 67 72 73 75 75 73 76 72 64 58 51 44 39 36 34 30 28 26 25 26 29 35 41 48 55 65 74 81 81 76 61 52 48 47 46

GFSCGP_prec_cthk_039.txt.gz
RH
24 27 24 26 33 33 28 25 30 29 28 26 27 26 27 27 28 32 35 36 37 41 46 48 51 54 59 69 80 83 85 87 82 79 80 74 66 69 69 69 72 71 70 73
28 29 29 36 38 33 33 30 28 30 31 27 30 29 30 31 34 37 39 43 45 50 56 54 56 67 75 80 72 67 66 65 66 69 66 64 66 64 63 64 64 63 65 66
32 33 37 41 41 41 41 34 32 32 33 31 30 31 33 36 39 43 45 45 54 58 58 62 65 70 69 65 63 63 61 58 56 58 60 60 56 54 52 52 53 54 57 58
30 28 29 32 33 36 38 37 36 35 36 35 35 40 35 37 42 47 50 49 54 59 64 66 64 62 60 60 59 57 56 55 54 52 51 50 50 52 56 58 60 62 59 58
30 32 34 33 29 25 26 28 28 30 34 34 33 33 34 40 44 47 53 55 57 62 65 67 64 64 64 61 57 54 52 50 50 52 53 54 56 59 62 62 61 58 56 55
31 29 29 25 26 26 27 28 32 34 35 40 37 43 41 43 47 59 62 66 67 68 70 71 64 63 61 59 61 61 61 61 63 62 62 63 65 65 63 60 57 56 53 50
32 30 27 25 27 27 28 32 42 46 52 54 47 51 51 48 51 54 58 59 60 62 66 68 70 72 71 72 67 70 67 67 65 66 66 65 62 61 60 59 56 53 49 45
35 35 27 28 29 30 30 33 45 44 54 46 44 52 48 45 48 51 56 59 65 68 77 79 75 71 71 74 72 69 67 67 65 60 60 60 58 57 57 55 53 49 45 45
38 37 30 25 28 28 30 37 31 42 45 46 46 43 46 48 52 57 59 63 71 66 62 61 63 65 70 71 70 71 68 62 60 60 61 59 55 56 55 52 42 38 37 37
39 43 33 27 27 29 27 29 35 38 41 41 43 45 48 47 50 53 56 58 59 62 62 65 70 73 73 79 75 72 69 64 63 63 60 58 53 48 44 39 35 37 39 41
39 39 34 30 30 29 30 30 31 35 41 48 53 42 37 41 48 52 54 56 58 62 74 73 77 80 83 76 79 73 70 68 65 60 56 53 48 41 39 38 38 35 35 42
39 39 40 31 31 27 26 27 30 36 33 48 50 40 38 42 45 47 52 58 61 65 69 75 79 77 76 75 73 71 66 64 58 54 49 44 40 37 39 42 45 43 46 50
34 38 45 35 32 29 29 25 30 33 36 38 44 38 39 44 48 51 54 58 62 67 73 76 74 73 72 72 72 71 65 57 52 49 44 39 40 44 48 49 49 52 52 51
33 37 34 35 29 26 24 22 24 29 43 39 39 33 43 44 49 52 57 61 66 69 72 71 71 72 74 76 67 61 56 50 47 43 41 44 47 51 47 42 41 39 43 52
31 33 33 31 30 25 22 22 24 25 27 32 28 34 36 43 49 55 58 61 65 69 71 71 73 72 70 67 61 55 50 46 41 39 39 40 39 36 33 36 43 46 47 49
34 37 34 33 34 33 27 22 25 27 27 28 36 41 41 47 53 57 61 64 68 70 71 72 72 72 67 59 52 48 42 39 37 36 32 28 28 28 28 31 34 36 39 47
33 34 34 31 39 31 26 23 26 26 28 30 42 37 44 50 54 59 63 65 67 69 70 71 70 66 59 52 47 40 39 37 35 29 29 30 29 32 34 34 33 39 49 58
36 39 37 34 34 30 20 24 25 28 31 32 35 39 44 50 55 61 65 66 66 66 67 65 61 57 52 48 43 40 39 35 30 29 29 29 31 32 33 32 38 45 55 64
38 38 42 38 39 26 22 27 31 30 31 35 38 43 47 53 60 64 69 68 67 69 65 61 56 54 50 48 45 39 34 32 29 28 29 31 33 37 36 36 47 49 56 59
41 38 37 48 34 31 20 26 27 30 38 34 37 41 50 56 63 66 70 68 70 67 64 61 58 55 51 46 38 34 30 28 26 28 32 37 41 42 41 45 56 56 61 67
51 48 46 51 43 34 23 29 31 42 31 32 34 42 50 56 62 69 71 73 73 71 65 60 57 51 45 38 33 30 27 25 27 33 37 40 44 47 47 55 66 73 70 77
47 48 49 50 51 40 26 33 36 32 31 35 39 47 55 61 70 70 72 74 71 66 63 59 52 47 38 34 31 28 27 27 29 33 37 43 46 50 54 66 78 79 81 82
41 33 38 37 37 29 31 32 32 34 36 41 48 57 62 67 72 73 76 73 69 66 62 56 49 40 36 32 30 29 29 29 29 32 37 43 47 53 61 72 79 81 84 78
37 34 37 38 32 34 36 37 38 41 45 51 56 60 65 74 75 76 75 74 70 64 58 51 43 38 34 32 31 31 28 29 31 33 38 44 52 63 71 79 83 82 72 53
37 38 41 42 38 41 40 40 43 48 53 55 61 67 75 74 77 77 77 71 65 61 53 46 41 37 34 33 31 29 27 30 32 35 41 49 59 71 77 82 83 65 55 50
38 37 42 40 34 37 39 42 48 51 57 66 70 79 79 78 78 78 72 69 63 53 48 43 38 36 34 32 28 27 29 33 36 39 45 53 62 75 81 81 68 55 50 48

GFSCGP_prec_cthk_042.txt.gz
RH
37 38 38 33 28 26 26 28 28 27 26 27 29 31 32 31 35 37 39 42 47 47 50 51 53 55 59 65 72 83 90 90 94 88 77 73 69 69 65 63 60 59 57 59
35 32 32 29 30 29 28 29 34 31 29 29 33 34 32 31 35 36 40 43 45 50 55 58 60 63 70 81 84 85 76 71 69 68 64 60 60 59 54 52 52 53 54 55
31 30 29 33 40 39 39 35 34 33 33 33 34 36 38 35 35 35 40 45 49 54 59 63 65 72 72 70 65 63 64 64 62 59 53 49 49 51 55 57 58 59 58 58
32 32 32 39 41 39 40 37 34 36 34 37 36 39 38 39 41 43 46 49 53 55 59 60 54 59 62 61 59 58 59 59 54 55 58 61 63 64 66 66 65 64 62 60
29 32 34 39 35 32 33 30 32 34 36 36 39 38 32 38 41 44 47 52 55 57 58 63 63 64 67 65 63 65 68 67 69 69 69 68 66 70 68 69 64 60 56 53
34 33 33 32 33 28 26 28 32 36 37 42 37 40 36 40 41 49 55 58 60 61 62 62 65 70 73 71 72 73 74 79 76 72 71 71 68 68 66 60 57 53 48 43
33 32 30 30 27 27 28 31 41 43 47 48 41 45 42 41 46 48 51 53 55 58 62 67 69 75 81 78 77 80 80 80 78 76 74 70 68 64 58 54 50 44 39 32
38 38 30 27 27 30 32 33 46 46 56 47 45 48 41 39 37 41 46 49 53 58 63 69 74 71 69 73 76 78 81 81 79 74 68 65 63 57 52 48 42 36 32 30
37 35 30 28 30 31 33 37 33 45 46 45 42 38 38 39 39 42 46 52 55 59 60 60 62 65 69 74 77 80 77 75 75 69 65 64 61 54 47 42 36 33 35 37
36 39 34 30 28 30 32 36 39 39 38 33 39 38 41 40 41 43 46 49 51 52 55 57 62 69 70 72 74 75 73 75 71 68 66 59 53 48 43 37 36 39 40 39
38 39 39 34 29 33 34 33 34 36 39 44 48 36 31 37 39 43 48 51 53 55 57 60 63 66 70 73 74 74 72 71 72 67 61 54 48 45 42 42 42 42 41 43
40 41 45 37 31 31 28 30 30 35 33 46 47 37 32 34 39 43 47 51 53 54 59 62 66 69 73 73 73 71 77 74 65 58 52 49 48 47 46 44 45 45 40 42
37 41 48 39 35 33 31 28 30 30 34 38 42 30 30 34 38 43 47 50 53 57 61 66 69 71 70 69 74 78 69 64 59 54 52 47 44 41 38 37 34 32 36 41
32 38 37 40 31 29 26 25 28 25 39 35 34 26 31 35 39 44 48 52 56 59 63 65 66 65 69 76 74 68 64 59 55 51 46 42 37 32 31 30 28 29 31 34
32 36 36 36 35 28 23 23 24 23 24 28 23 28 26 32 39 44 48 53 57 59 62 63 64 66 71 71 66 61 55 52 51 48 43 36 32 32 30 29 29 28 31 35
35 38 34 35 37 34 29 26 27 25 23 26 27 27 28 33 38 44 48 53 57 60 62 64 66 70 67 63 59 54 53 52 49 42 35 33 32 30 32 32 31 32 33 38
36 39 39 38 38 32 31 25 27 25 22 25 31 26 32 36 40 43 48 53 57 60 64 68 70 65 62 60 57 56 54 50 41 35 34 32 30 32 33 35 34 33 34 42
39 39 38 35 31 27 18 21 23 22 24 26 28 29 32 35 41 45 49 55 57 63 68 70 68 64 63 60 56 55 49 41 36 33 32 31 32 34 36 36 36 35 40 48
42 41 44 38 37 23 17 23 26 26 24 28 30 33 36 39 42 45 52 57 61 67 71 69 67 66 62 59 57 50 42 37 35 33 29 31 34 34 35 37 40 43 48 60
48 45 43 49 35 30 19 22 24 25 33 26 31 36 36 40 47 45 53 60 65 67 66 69 69 67 63 59 51 44 41 38 33 29 28 29 32 35 37 41 44 49 59 71
56 55 50 54 43 32 22 25 27 36 30 29 30 34 38 40 42 47 53 63 68 66 70 73 72 68 61 55 47 43 39 33 29 28 27 30 31 36 41 46 50 56 69 77
51 55 55 53 52 40 25 30 32 30 29 30 34 36 39 45 51 56 62 67 71 72 76 77 71 64 58 49 45 41 35 31 29 27 28 30 31 37 43 49 59 67 74 83
48 40 43 40 37 28 28 30 31 34 36 35 38 42 48 55 59 66 72 80 77 78 79 73 67 61 52 47 43 37 34 31 28 28 28 29 32 39 46 55 66 73 79 86
39 37 39 38 30 32 34 35 37 39 41 42 45 51 58 63 69 77 83 77 78 81 75 69 62 53 49 45 40 37 33 30 30 29 30 33 37 44 49 59 70 78 82 72
36 37 39 41 37 38 37 37 38 40 43 47 53 61 68 73 78 88 81 81 82 76 73 62 54 52 47 42 39 36 33 32 30 31 35 37 42 49 55 63 72 77 72 64
39 40 43 42 36 37 37 38 41 45 50 56 63 72 77 82 83 82 83 82 79 74 62 57 53 47 42 39 36 34 33 33 33 34 38 42 48 54 59 61 62 63 63 59

GFSCGP_prec_cthk_045.txt.gz
RH
42 37 34 34 29 25 28 30 32 32 30 33 36 34 33 36 39 40 42 46 46 49 52 54 53 54 65 60 68 74 84 92 84 92 81 68 68 62 57 54 53 54 55 57
41 41 38 37 31 29 31 32 32 32 30 30 34 35 35 32 38 39 42 44 48 51 56 56 55 58 61 66 77 84 79 75 67 62 59 56 58 56 57 61 63 63 61 61
38 32 32 34 37 36 34 35 39 36 36 33 33 32 35 36 35 37 39 43 46 50 53 57 61 56 52 54 58 60 60 58 55 55 61 65 66 68 69 68 67 65 63 60
40 36 36 38 41 39 40 35 31 31 31 32 33 30 33 37 39 40 41 45 48 53 58 61 55 53 60 62 61 62 65 65 65 67 71 69 72 69 69 69 67 64 62 57
36 37 35 38 38 36 40 41 38 36 33 32 34 30 30 38 41 42 45 50 54 59 55 53 54 57 56 60 66 69 74 77 80 79 77 78 76 76 74 73 65 61 57 50
30 33 33 32 36 39 36 34 34 33 33 37 35 36 31 35 37 45 50 54 56 54 54 55 56 58 63 65 70 77 79 76 78 80 77 77 78 74 70 65 60 55 48 38
34 35 34 33 34 34 31 29 34 35 40 35 37 41 35 38 40 45 47 49 49 50 52 55 60 67 72 68 67 68 69 72 75 79 81 79 75 69 66 61 55 49 41 34
37 37 34 32 31 31 31 30 38 39 43 42 43 42 35 35 35 37 42 44 46 50 53 58 61 60 60 61 65 68 70 75 78 75 74 73 70 67 61 55 49 41 37 37
38 35 32 31 31 30 35 36 33 42 47 43 33 32 29 32 34 35 39 43 46 50 55 52 54 54 58 64 68 69 71 73 75 70 70 71 68 61 54 50 44 41 40 40
33 36 33 31 30 32 31 34 38 38 40 31 29 31 26 30 32 34 37 42 46 49 48 48 52 57 61 65 68 70 72 75 74 74 76 72 63 57 52 47 45 45 45 43
30 36 36 34 32 30 32 34 37 34 33 30 31 22 26 27 31 32 36 42 46 48 49 50 54 59 64 66 69 70 69 71 77 80 72 61 58 54 51 48 45 43 40 39
34 41 44 41 35 32 32 33 32 33 32 41 37 25 26 27 30 35 40 44 47 50 53 56 59 64 67 70 69 70 71 79 82 67 63 61 51 47 45 39 33 31 30 29
36 42 46 40 36 34 32 30 29 28 32 35 40 21 25 28 28 33 39 45 49 51 56 60 65 68 70 70 70 71 83 78 67 61 53 49 47 42 37 35 34 31 28 27
35 39 39 38 33 35 33 33 33 28 33 28 25 20 23 28 30 34 39 43 46 51 56 60 64 66 68 66 68 80 69 62 57 54 50 44 42 39 38 36 32 30 29 28
35 35 36 38 38 34 28 26 29 26 24 27 20 21 20 23 26 32 38 42 45 51 55 58 61 62 63 72 75 65 63 56 55 50 45 44 41 39 37 34 31 30 30 29
38 39 36 38 38 35 32 28 26 26 25 25 24 21 19 24 29 35 40 43 46 50 52 56 59 63 68 65 64 65 62 59 52 48 47 43 40 38 33 32 33 32 32 32
39 40 38 38 37 33 33 26 26 26 25 23 25 18 24 29 30 33 38 41 46 50 53 57 60 61 63 66 67 65 63 57 53 48 43 39 37 34 34 34 33 33 34 34
37 38 38 38 34 30 20 21 20 22 22 22 23 24 27 30 33 35 38 42 47 50 54 57 63 64 61 64 65 64 58 54 49 44 40 37 33 32 33 33 34 35 35 38
40 39 44 42 34 25 19 21 24 24 20 20 22 28 33 35 37 37 40 45 48 51 55 59 60 62 65 67 65 61 56 50 45 43 39 34 31 31 31 32 32 34 36 44
49 46 46 48 36 34 21 22 25 25 28 22 25 31 35 35 41 33 40 45 49 53 57 61 67 69 69 68 65 59 53 48 46 41 36 32 30 28 32 30 31 35 42 52
56 57 54 53 48 37 27 28 28 32 26 26 27 30 35 36 37 38 43 50 55 62 65 70 73 72 71 67 62 56 51 48 42 37 33 31 28 31 30 29 34 39 48 58
48 55 57 54 52 45 28 31 33 29 28 29 32 34 36 38 42 46 53 57 63 69 73 75 75 75 69 65 58 54 50 43 38 34 32 29 31 29 28 33 38 45 53 64
43 40 43 40 36 30 29 30 31 33 35 37 40 42 45 48 52 57 61 67 74 81 75 80 80 74 67 60 57 50 45 40 36 34 30 32 31 29 33 37 43 50 58 69
39 39 38 37 31 32 32 33 34 38 41 42 44 46 50 56 61 67 70 78 81 78 83 81 77 68 63 57 50 47 42 38 35 32 33 34 31 33 38 41 49 56 61 65
37 36 37 38 36 37 35 38 39 40 42 44 47 53 57 65 72 74 84 87 82 86 86 78 71 63 55 50 47 42 39 37 35 35 37 35 34 38 43 47 51 52 51 54
38 40 44 44 39 40 41 43 45 47 51 54 59 64 68 72 79 86 88 88 92 87 79 69 61 54 50 47 42 40 39 38 39 40 37 38 40 45 48 52 52 51 49 50

GFSCGP_prec_cthk_048.txt.gz
RH
43 44 41 37 34 26 33 32 31 27 26 26 28 34 33 39 46 47 44 44 46 48 48 50 51 52 55 61 64 69 74 83 87 85 79 75 65 62 58 59 61 64 65 63
41 41 36 36 33 27 37 39 33 30 29 32 36 37 37 36 40 42 41 44 47 49 52 56 58 56 58 63 66 70 72 68 64 60 60 63 64 66 70 70 69 68 69 68
43 42 42 40 36 33 37 41 33 37 34 32 33 32 35 35 36 36 39 41 46 49 50 51 54 58 62 65 66 68 67 63 60 61 63 69 71 71 75 78 77 74 71 67
43 35 34 34 35 38 36 31 26 36 36 37 30 33 30 34 35 34 39 42 43 45 48 53 55 59 59 58 57 57 61 63 61 64 68 71 74 80 81 80 75 76 70 61
40 40 39 41 37 36 39 39 40 37 35 30 31 28 38 33 34 37 37 41 45 50 55 54 55 55 57 57 58 60 63 62 64 66 69 70 75 78 81 79 78 72 66 56
42 40 36 36 39 39 41 41 36 38 35 33 30 28 28 31 29 36 43 45 49 53 53 54 53 53 56 58 61 62 62 63 64 67 69 73 77 78 77 76 72 67 60 51
39 37 35 37 36 36 39 37 35 33 31 27 32 28 25 30 33 38 44 45 49 48 51 51 53 56 61 62 60 60 63 66 67 69 70 74 72 70 72 73 68 59 53 48
34 34 33 35 37 36 33 30 29 26 30 30 33 32 32 30 29 34 40 46 45 46 49 52 57 59 57 57 57 60 65 67 67 66 66 72 73 75 75 68 58 54 51 48
29 33 33 33 32 30 32 29 31 34 37 37 28 27 27 26 28 30 36 39 42 45 49 54 55 53 55 57 59 63 66 66 64 66 67 70 73 74 64 58 52 52 50 51
31 35 32 31 29 30 30 31 32 32 38 29 21 22 22 25 28 29 33 35 42 47 50 54 52 52 56 60 64 65 66 65 65 64 69 75 76 62 54 52 50 48 44 41
28 29 32 30 31 32 34 31 32 33 31 22 19 18 21 22 24 27 30 35 40 44 48 51 51 54 58 62 66 66 67 65 64 71 81 72 61 52 52 50 46 42 39 39
26 29 34 34 34 33 30 30 30 31 30 31 29 20 18 20 22 26 29 33 39 41 46 49 52 55 57 60 65 67 69 70 73 82 64 55 52 52 49 46 44 41 38 36
26 31 40 38 36 37 32 30 31 30 29 29 38 19 18 20 21 24 30 33 38 42 46 49 52 56 60 63 65 66 72 72 73 65 59 57 53 50 49 48 45 41 38 36
32 33 35 37 35 34 33 32 29 25 29 23 21 15 18 20 21 24 28 32 38 42 46 50 52 58 62 63 64 66 70 73 62 60 59 55 53 54 51 47 44 40 39 37
37 36 34 35 35 34 31 30 29 28 24 25 17 17 16 20 20 23 28 32 36 41 46 48 52 57 59 59 59 73 65 59 63 59 56 55 57 53 49 45 43 41 38 38
42 40 36 36 35 34 33 29 26 26 23 22 21 20 20 21 20 25 29 33 36 40 43 46 52 56 57 59 66 61 65 58 56 54 55 57 54 50 47 43 40 38 42 41
44 42 39 35 34 32 38 27 25 24 24 23 24 21 23 23 23 27 30 33 36 40 43 48 52 53 58 59 62 60 61 59 55 57 59 55 51 46 43 39 39 43 41 41
43 41 41 40 36 50 21 22 22 23 22 21 21 21 22 24 27 29 32 35 37 41 44 49 52 54 58 60 64 68 63 59 57 58 54 52 49 43 42 39 42 42 40 41
37 37 45 53 34 27 22 22 22 22 18 18 18 21 25 27 31 32 32 36 40 44 48 51 54 57 59 67 71 65 62 61 61 58 56 51 45 44 40 41 44 42 40 41
45 42 44 52 57 59 25 27 28 27 27 22 22 25 30 32 34 30 34 39 44 47 50 53 58 62 71 72 67 64 66 63 61 58 50 47 46 42 40 39 40 41 40 40
55 58 60 53 61 39 31 30 29 31 27 25 25 28 31 34 36 37 41 45 49 53 55 61 67 73 77 74 70 70 67 63 58 52 48 46 42 40 39 34 37 39 38 40
45 54 58 55 61 53 28 30 32 30 28 29 32 35 38 42 45 47 50 53 56 60 67 69 78 79 81 77 70 68 63 59 54 48 45 41 42 41 39 38 39 39 43 46
40 37 38 37 36 30 29 30 31 32 33 35 38 41 45 48 50 53 57 62 68 73 74 83 87 84 78 71 66 61 59 52 47 43 42 44 42 41 41 37 36 41 47 51
35 36 36 35 31 30 31 32 33 35 38 40 43 45 48 51 56 61 64 66 75 81 86 92 87 82 72 63 59 57 51 48 45 46 45 39 38 41 38 38 41 45 52 53
36 37 37 34 32 34 34 37 40 41 43 46 48 51 56 62 65 66 68 77 86 93 95 91 82 72 63 61 59 53 49 46 46 46 43 41 41 38 38 42 47 54 54 53
38 35 38 41 37 39 42 45 47 51 54 56 58 61 64 67 68 74 84 92 94 92 88 81 72 65 65 58 52 49 46 47 46 44 42 41 38 40 44 48 51 54 52 52

GFSCGP_prec_cthk_054.txt.gz
RH
51 57 56 50 46 44 41 39 39 38 31 30 35 43 32 31 46 72 40 48 47 46 46 47 49 52 57 59 55 58 68 64 70 75 76 65 51 53 53 55 58 56 54 58
50 55 56 54 48 42 36 33 31 31 19 23 33 36 29 28 28 41 51 53 54 47 48 49 48 51 55 56 52 62 65 68 71 70 60 52 53 53 53 54 52 57 57 61
58 62 53 49 38 34 40 45 36 33 20 19 39 28 29 28 33 35 36 41 45 45 48 51 53 53 56 58 65 66 63 66 62 66 59 55 54 54 54 54 55 60 65 66
61 56 48 43 40 41 54 54 40 45 39 29 36 50 56 36 33 36 39 40 45 44 48 51 55 53 55 56 58 62 61 59 63 61 56 57 56 56 60 64 69 67 67 65
53 44 42 38 43 46 37 39 38 34 34 42 46 50 46 44 44 41 46 46 48 49 49 52 52 50 51 54 58 61 58 61 58 58 57 56 61 64 65 68 67 70 68 67
42 48 52 49 42 38 30 33 37 36 35 53 51 53 52 50 55 55 48 44 44 45 47 48 49 52 54 52 53 55 58 56 55 52 55 59 61 63 63 63 62 65 69 71
41 42 40 37 33 26 33 39 48 78 69 41 33 47 46 49 54 54 46 44 43 44 45 44 44 48 49 50 52 53 53 52 50 52 55 58 60 63 62 63 66 70 76 65
42 47 37 30 28 51 43 36 58 61 67 51 43 36 39 35 29 36 36 34 39 44 45 43 44 47 50 50 50 51 51 50 52 55 56 57 60 61 64 67 66 71 63 59
50 51 51 46 29 37 49 44 46 45 39 40 31 26 39 35 36 21 29 33 37 42 41 41 43 46 47 50 50 50 51 52 51 54 57 60 62 63 74 72 66 63 60 57
53 61 58 44 32 23 26 34 40 34 38 37 25 32 39 49 33 22 29 32 36 39 36 37 41 43 48 49 50 49 53 53 52 56 60 61 64 72 80 74 57 57 56 52
46 70 56 45 33 25 37 38 29 26 45 56 43 42 42 37 32 20 26 31 35 35 34 37 41 44 48 50 49 50 54 56 58 60 63 65 66 79 76 55 57 56 54 54
25 36 39 40 39 31 33 41 40 47 35 40 42 33 37 34 31 23 23 32 34 33 35 38 43 44 47 49 53 55 60 59 58 63 67 67 64 61 57 60 56 56 56 57
34 35 41 36 46 36 29 20 25 33 43 38 56 35 28 26 24 24 23 32 36 37 40 44 47 46 48 50 54 56 56 56 60 63 64 64 65 57 58 56 59 58 59 60
30 36 33 38 33 50 51 44 32 37 49 36 34 30 34 31 30 28 27 26 36 39 43 46 44 45 45 49 51 54 58 61 60 60 64 65 58 57 57 60 59 62 64 60
25 26 25 26 34 44 43 47 44 39 36 39 33 32 29 34 36 32 29 29 33 39 40 42 43 43 45 47 50 55 56 59 59 62 63 62 58 60 63 61 64 66 63 60
28 32 36 40 37 39 37 36 36 32 31 32 31 30 30 32 32 31 29 33 32 40 39 40 42 45 48 49 52 53 56 58 56 63 61 59 62 66 63 70 64 62 66 61
38 39 47 46 40 37 41 27 25 23 24 29 30 29 31 32 33 31 30 26 31 36 40 43 47 50 50 52 53 54 57 55 62 64 65 65 69 73 74 68 65 63 61 61
51 53 57 58 50 56 29 27 25 25 25 25 28 29 29 30 28 28 26 27 32 34 42 45 47 50 52 51 52 54 56 57 66 71 72 77 78 74 69 66 66 64 60 55
44 51 58 66 51 37 32 30 27 27 27 27 25 26 27 28 27 26 30 34 38 39 40 44 46 48 49 51 54 59 62 70 68 76 86 78 77 73 70 66 61 54 45 45
35 40 49 56 66 61 36 33 30 29 35 30 30 30 29 27 31 37 37 38 39 40 42 45 48 51 54 55 60 65 69 76 83 83 82 77 73 69 64 59 53 47 44 42
47 52 57 54 62 50 40 36 36 39 42 35 31 27 27 32 36 39 41 39 41 46 47 51 53 57 59 61 63 70 85 84 81 84 76 71 66 60 55 49 47 45 45 46
47 54 59 60 69 64 37 35 35 40 36 32 30 32 34 39 39 40 42 44 47 48 52 55 59 62 63 68 82 88 88 88 82 73 63 56 53 46 43 42 42 44 46 43
44 41 48 46 47 38 33 35 34 33 32 35 35 36 38 39 43 43 48 50 51 54 58 63 64 71 82 91 92 89 84 76 65 58 55 51 44 44 36 34 33 36 39 40
41 39 42 41 33 38 36 35 37 37 35 36 37 38 40 43 52 53 54 55 56 60 64 73 82 91 93 93 87 80 73 64 56 50 44 42 42 38 36 32 30 32 39 46
42 41 38 36 35 38 43 41 41 41 39 40 42 45 49 53 58 59 58 61 65 71 80 90 94 94 89 83 72 60 55 51 45 42 43 41 40 38 34 31 32 36 41 50
40 39 42 45 41 42 48 46 44 44 45 46 48 49 54 57 59 62 67 71 78 87 91 90 86 80 69 62 56 53 51 48 45 42 38 34 33 33 34 35 35 38 42 47

GFSCGP_prec_cthk_057.txt.gz
RH
49 51 54 56 54 51 53 55 48 41 40 43 42 39 39 39 38 45 39 39 38 32 35 38 42 41 41 44 50 52 58 70 64 65 66 65 60 50 51 52 50 51 54 54
50 51 52 52 51 51 49 49 48 40 32 25 31 34 37 44 37 37 42 43 39 32 32 37 41 46 43 42 46 56 67 67 66 62 65 54 48 49 49 48 48 51 49 49
55 54 53 52 50 55 49 49 43 40 36 22 33 41 48 41 36 34 37 43 41 32 33 35 40 40 43 48 52 56 55 59 58 60 54 49 50 48 45 47 47 49 52 54
53 52 50 55 55 52 49 45 40 41 36 30 38 54 43 44 46 46 42 47 47 43 40 40 41 43 46 49 52 54 58 58 57 53 55 50 46 45 47 50 52 55 54 57
48 45 46 48 47 52 46 39 43 44 45 50 47 48 41 48 48 46 50 50 48 41 42 45 45 47 51 52 53 52 51 48 53 53 51 49 47 49 50 53 57 58 60 58
45 41 42 46 45 49 37 37 36 48 54 58 44 49 50 43 49 50 50 47 49 51 55 55 53 48 45 45 48 50 49 53 53 53 51 50 52 55 58 62 64 64 64 64
42 39 41 46 46 40 34 34 51 56 61 51 47 54 50 42 40 33 39 47 51 50 52 50 48 47 43 44 48 49 50 51 53 50 48 50 54 58 61 64 65 65 68 69
41 50 51 46 44 44 42 40 54 61 72 59 57 64 52 47 44 40 44 39 38 39 40 44 44 41 42 44 45 48 49 50 49 48 50 54 58 62 66 66 64 70 76 76
44 49 51 53 43 41 41 61 52 51 50 52 44 37 36 35 44 45 33 30 33 34 37 38 38 37 40 42 45 49 50 49 46 46 50 56 63 64 62 62 63 79 83 67
47 56 56 56 48 38 38 41 60 52 39 37 30 33 53 44 49 43 40 31 31 34 36 37 36 35 36 40 45 50 52 50 49 48 54 62 62 64 68 70 67 69 56 50
47 49 50 52 50 38 38 36 35 37 41 50 53 45 45 50 48 41 37 33 29 31 34 37 36 38 41 43 44 46 51 56 56 59 64 66 65 67 69 69 72 62 51 55
48 49 56 63 42 44 34 32 41 51 37 42 50 41 33 39 40 35 36 35 32 32 36 38 39 42 45 47 50 51 53 55 60 67 70 68 66 66 73 70 64 54 55 57
40 38 40 50 52 44 42 40 32 39 46 42 54 43 29 33 35 35 34 36 37 38 40 42 45 47 51 55 56 53 56 64 70 75 71 67 66 64 68 68 55 58 58 61
32 32 34 38 33 31 44 41 43 40 50 42 43 36 33 34 37 39 36 35 38 39 42 45 49 52 57 62 61 65 68 70 69 67 63 62 62 68 66 58 58 59 67 71
32 31 32 29 27 32 40 43 46 52 47 52 43 40 33 37 39 38 38 36 37 42 47 50 52 58 71 68 65 60 57 60 63 61 60 60 65 67 60 59 66 69 75 72
26 29 24 29 28 33 34 38 35 44 41 38 35 35 37 37 38 41 42 42 42 47 51 53 57 61 53 52 52 50 53 58 60 60 60 63 69 62 69 73 80 77 75 72
30 31 36 39 34 35 40 30 32 27 28 36 31 30 32 35 35 35 35 36 40 43 43 45 49 50 45 46 48 51 54 55 57 62 65 65 68 76 83 86 80 75 66 59
40 43 52 56 50 48 33 30 28 28 29 29 30 30 31 33 34 34 32 31 32 33 39 43 45 47 50 52 54 54 55 58 62 65 65 75 89 92 85 75 65 56 52 48
41 58 62 60 59 43 35 32 30 30 33 29 29 31 30 30 32 36 34 31 33 36 39 43 45 47 49 52 54 56 60 64 64 66 80 92 90 78 68 58 53 52 50 44
40 45 52 61 58 52 39 34 32 32 40 33 32 34 33 32 38 38 36 36 38 40 41 41 43 46 49 55 60 65 67 69 77 85 94 83 77 66 60 56 52 48 45 42
49 52 55 60 57 46 38 36 37 44 44 38 35 34 30 32 34 37 38 39 41 40 41 44 49 53 58 62 65 69 76 84 93 90 83 76 67 57 52 48 45 44 40 39
46 51 55 61 62 54 38 36 39 42 37 35 34 33 33 36 38 40 40 41 43 46 48 52 56 59 63 67 73 82 90 93 87 80 70 61 52 49 43 42 36 34 34 33
50 42 46 46 47 38 35 34 33 34 34 35 34 34 36 38 39 40 41 45 49 54 58 60 64 67 72 80 88 94 88 81 71 60 52 46 42 42 43 39 34 31 29 30
38 39 45 47 42 41 38 35 35 36 37 37 36 35 35 41 44 46 47 53 57 61 65 67 71 78 85 91 87 78 69 59 53 48 46 43 42 40 36 33 31 32 32 33
41 42 45 47 46 43 42 41 41 40 39 37 37 39 42 46 48 52 56 61 65 67 70 79 84 86 83 78 72 62 58 54 49 46 42 39 35 33 30 31 34 37 36 40
44 42 44 46 42 42 46 46 44 42 43 42 42 44 48 54 57 61 64 68 72 79 82 81 81 79 72 65 58 57 52 48 42 37 33 31 32 31 32 37 39 40 37 40

GFSCGP_prec_cthk_060.txt.gz
RH
49 50 52 51 54 58 58 50 49 42 41 44 44 41 46 46 47 55 57 52 43 38 34 34 36 36 43 45 47 49 50 60 70 69 61 58 60 62 57 51 46 45 47 47
49 53 52 56 55 53 54 56 48 40 38 44 47 44 44 45 49 45 47 46 40 39 40 38 39 40 40 41 46 51 63 63 60 59 58 62 65 58 52 50 46 47 48 48
53 54 53 53 54 55 51 52 48 42 39 41 46 43 43 44 46 52 47 43 45 41 46 43 45 43 43 45 47 51 54 57 59 61 63 64 55 49 50 46 45 43 44 45
51 50 51 48 51 49 51 45 46 44 39 35 38 45 46 43 51 55 52 47 44 45 45 46 46 46 47 49 51 54 62 65 61 62 63 52 46 47 42 42 43 46 49 50
47 50 49 48 44 46 47 50 46 45 46 41 36 40 40 43 45 46 49 47 45 41 44 49 51 52 54 53 54 65 67 61 60 60 54 54 48 42 42 44 47 51 52 52
43 45 43 43 45 45 42 47 49 47 49 48 47 46 43 49 42 39 44 44 41 41 46 52 52 55 56 55 60 60 56 56 57 53 53 48 42 42 45 49 53 55 58 62
41 45 41 42 45 43 41 45 53 54 61 53 45 51 43 42 37 34 37 40 41 43 44 47 50 63 55 54 54 49 52 55 50 50 48 47 46 48 53 56 58 64 65 63
47 44 41 38 45 45 47 48 52 53 58 50 55 46 46 39 40 36 38 40 37 42 45 48 51 53 53 52 47 46 49 50 48 48 50 51 53 55 60 60 72 73 71 72
49 44 42 48 46 44 49 50 48 54 53 53 51 41 38 35 34 33 40 31 34 38 43 45 44 46 48 46 45 45 48 48 49 51 53 55 59 63 64 66 64 69 90 82
40 47 48 50 50 53 43 43 48 54 51 47 40 38 44 36 41 45 39 37 35 36 38 38 38 41 39 38 40 42 47 51 53 55 57 60 67 67 74 72 64 70 73 79
41 44 50 48 46 44 47 37 40 42 48 47 49 38 35 38 47 44 42 36 36 36 32 32 33 34 35 38 41 44 45 48 50 53 58 67 77 75 94 87 80 67 64 63
50 52 53 48 50 50 50 37 42 54 48 53 50 39 30 34 35 43 43 40 41 38 36 33 31 36 38 38 41 42 46 51 55 61 73 78 80 80 96 77 70 77 60 60
50 60 65 56 51 46 43 41 45 50 51 46 55 43 30 33 35 35 37 36 37 37 39 40 43 45 44 42 45 57 61 70 72 80 83 84 84 75 70 67 68 68 59 60
51 53 52 53 38 42 41 42 46 50 54 45 47 38 36 33 33 36 38 38 38 39 42 45 51 50 52 54 59 70 86 84 83 85 79 70 66 64 61 69 68 60 57 62
49 47 42 37 32 33 36 37 37 37 46 50 43 41 37 35 33 32 38 40 38 41 47 50 51 62 62 72 76 82 82 79 75 67 60 59 59 59 66 70 64 62 80 85
41 44 42 38 36 33 32 31 34 34 41 42 44 43 40 34 33 34 37 38 38 40 45 50 63 62 70 74 76 76 76 62 54 54 56 58 62 66 66 66 77 89 83 71
42 48 45 39 33 30 37 26 27 31 33 36 37 40 40 37 31 31 33 36 40 42 44 48 55 56 58 61 66 63 56 49 53 56 59 66 67 67 74 89 83 76 69 62
40 44 43 48 38 46 29 25 26 28 30 31 32 32 31 32 35 37 38 38 39 41 45 48 50 54 56 55 54 52 53 58 60 66 69 71 74 83 89 79 75 63 59 53
45 50 51 54 57 47 37 32 31 33 36 36 35 34 35 36 35 38 37 36 36 38 39 41 45 46 48 48 50 54 59 63 68 68 69 78 86 85 80 73 63 56 51 45
54 58 50 61 62 59 35 29 31 35 44 37 37 38 38 38 44 43 40 38 35 37 39 42 45 45 45 51 57 62 66 67 69 73 80 92 83 80 73 60 52 49 42 40
61 59 54 59 54 47 34 32 34 40 39 40 41 41 40 41 37 34 34 34 36 38 41 43 44 48 54 59 63 66 70 73 79 88 93 85 78 67 55 47 45 42 40 34
49 50 56 59 56 51 33 32 35 38 42 43 39 36 34 32 34 36 36 37 38 40 44 48 53 58 63 66 68 73 78 89 95 89 81 69 55 46 44 45 41 35 29 29
51 38 40 41 40 34 33 32 35 35 34 35 35 36 34 35 36 36 37 40 44 48 53 57 62 66 69 74 83 91 89 88 80 68 55 51 49 42 35 30 28 26 31 31
42 38 38 39 38 38 38 37 36 35 35 36 37 39 37 36 38 40 42 47 52 55 59 63 68 73 78 84 81 76 72 65 57 52 52 44 33 27 30 28 26 30 34 36
39 39 42 49 47 44 43 39 38 38 39 40 40 37 38 39 43 47 52 56 59 62 66 73 78 81 76 72 68 66 62 57 51 42 32 28 28 30 29 30 34 37 36 45
44 41 46 49 43 42 45 44 43 42 44 44 42 42 42 45 49 54 59 62 66 73 78 79 76 71 71 69 63 55 44 38 31 27 27 29 33 36 36 39 40 44 50 53

GFSCGP_prec_cthk_063.txt.gz
RH
45 49 50 51 47 50 56 55 53 51 50 51 51 51 60 55 55 57 58 53 48 39 38 44 43 43 45 49 49 46 44 51 62 68 65 61 62 63 59 60 56 51 47 47
48 49 52 53 51 52 53 51 47 44 41 42 46 50 52 59 54 54 51 56 50 41 38 38 41 44 47 49 51 53 53 61 62 60 60 58 62 62 63 58 52 48 45 45
49 50 54 50 51 50 50 53 49 45 37 38 36 42 47 53 55 53 53 46 43 39 37 34 37 40 41 45 48 52 55 61 61 63 64 68 63 64 61 52 47 45 45 42
46 46 49 50 48 49 52 50 49 43 41 41 34 41 41 44 48 51 53 48 42 43 42 41 43 46 44 45 49 52 55 64 71 65 71 68 64 60 50 47 44 43 45 50
41 47 48 47 43 47 50 48 44 43 51 44 38 36 30 40 50 52 50 53 49 45 41 44 45 47 50 56 58 59 68 71 65 63 68 66 60 47 44 44 44 48 53 52
42 45 47 45 41 42 47 47 49 51 54 53 45 42 37 40 43 48 48 51 45 44 42 42 49 47 51 61 66 71 73 63 62 64 67 58 53 47 46 46 49 52 52 57
39 42 43 45 46 43 43 47 53 56 60 53 48 48 42 38 42 40 41 43 46 45 42 42 47 53 62 73 69 66 66 59 59 62 55 57 55 49 49 50 52 56 56 68
40 43 43 42 44 47 46 46 54 46 53 48 45 45 37 38 39 39 33 35 39 42 44 49 53 60 69 73 63 58 54 50 54 53 58 56 51 51 54 56 60 73 74 84
39 44 47 48 48 47 49 47 43 49 50 53 46 39 38 31 36 39 36 35 30 33 35 42 46 54 60 54 55 48 43 46 49 51 52 53 56 59 60 66 78 74 90 96
31 46 47 46 52 53 50 51 52 53 50 46 42 40 38 33 34 41 37 33 32 31 32 35 42 48 49 46 43 40 42 44 47 49 50 56 66 67 71 75 78 83 90 96
31 37 42 45 44 50 53 53 48 44 51 57 54 43 33 30 32 34 32 35 38 35 34 35 38 43 40 41 40 40 43 44 44 47 54 62 70 72 75 75 88 96 87 79
33 37 38 33 43 46 50 51 54 51 45 50 52 43 30 28 34 37 37 39 43 43 41 40 41 40 43 44 48 46 48 53 58 64 69 73 77 80 77 86 83 77 76 66
38 41 45 40 44 49 57 53 54 51 46 47 57 43 29 28 28 28 33 38 38 39 42 44 45 46 47 52 55 53 53 60 73 81 83 86 88 79 81 77 74 66 61 65
37 42 43 50 47 51 51 54 50 50 59 50 48 34 33 35 34 35 29 30 36 37 37 41 46 50 55 63 71 68 70 75 88 89 87 88 85 81 72 60 60 64 69 66
40 44 48 48 48 46 40 45 49 45 44 44 41 42 38 38 36 33 31 28 33 37 40 43 47 54 59 68 68 76 79 80 87 87 88 80 69 61 56 58 67 69 67 77
52 47 45 48 42 40 41 36 38 43 40 40 35 35 36 34 36 36 33 31 35 38 41 42 47 51 58 70 74 71 74 87 90 88 76 66 60 59 63 67 69 70 86 84
56 60 52 45 41 40 45 35 35 33 33 33 36 30 32 33 35 38 35 32 35 39 40 42 45 52 56 59 61 78 85 85 76 66 60 59 62 67 67 69 78 89 79 73
60 63 55 56 46 49 24 20 20 23 22 23 24 26 29 31 34 37 38 34 37 40 42 43 44 51 54 57 67 66 60 59 57 58 61 65 71 72 77 85 90 79 71 66
54 58 60 57 54 38 30 26 28 30 32 34 35 36 35 37 37 38 37 37 35 36 38 41 44 47 51 53 52 53 51 54 59 65 68 72 75 83 93 86 83 74 62 51
56 58 56 62 55 54 33 30 32 31 37 35 36 40 40 38 38 40 39 38 39 37 36 37 42 48 52 51 50 51 57 63 68 70 75 80 84 95 87 80 68 55 44 39
67 70 63 65 66 54 31 26 23 30 32 36 41 42 42 44 42 41 39 35 34 35 38 41 44 47 48 50 55 61 66 68 71 75 82 91 90 84 73 57 48 41 37 29
55 63 72 72 65 49 28 29 29 29 31 36 42 44 45 42 38 34 34 35 37 39 40 42 44 48 52 57 61 64 67 74 79 87 90 85 74 61 48 41 34 26 22 23
55 55 62 61 47 30 25 24 25 28 34 40 39 37 35 35 35 35 35 37 40 42 45 48 52 57 60 62 66 76 80 84 83 79 71 64 51 42 35 26 24 23 26 27
58 53 54 55 42 33 30 29 28 29 30 32 33 34 33 34 35 36 39 40 44 49 53 56 59 62 67 75 80 80 79 75 74 67 56 44 36 28 25 25 26 28 31 35
68 61 62 57 45 36 35 36 35 34 34 34 36 37 37 37 38 41 43 48 54 58 62 64 67 76 81 78 76 74 73 66 59 46 35 29 25 24 24 24 27 31 32 41
68 62 61 53 42 40 41 43 42 39 38 40 40 42 43 44 45 47 52 59 63 67 69 76 80 79 76 74 75 70 60 47 37 31 26 22 20 20 20 20 19 24 26 28

GFSCGP_prec_cthk_066.txt.gz
RH
43 47 45 43 46 50 51 58 57 48 47 47 46 49 60 64 61 65 57 51 46 43 40 43 45 48 49 48 47 48 50 54 59 64 66 66 63 63 64 59 59 56 56 50
44 47 46 48 49 53 52 57 58 53 49 47 50 44 50 56 61 58 59 54 47 44 40 41 40 41 43 45 45 47 49 54 56 59 62 62 63 66 64 63 61 58 53 48
46 45 48 48 47 52 53 55 53 52 47 46 47 45 41 46 52 55 54 52 51 46 41 40 40 40 43 47 48 50 51 51 55 57 63 72 76 71 67 64 59 55 49 47
44 45 46 48 47 49 52 49 48 45 39 41 38 43 39 40 46 50 53 54 54 54 50 43 42 43 42 42 45 49 51 54 62 69 69 78 83 79 67 59 55 49 45 43
41 45 46 48 46 47 47 46 47 46 46 41 43 42 32 33 40 46 48 49 48 53 52 50 50 51 55 52 56 56 57 61 68 75 72 78 82 79 60 51 48 45 44 47
37 42 46 46 43 44 48 49 49 50 48 49 47 45 39 41 41 42 43 47 50 51 50 52 49 54 57 52 63 62 62 75 72 71 73 82 82 66 51 49 46 46 47 58
36 41 42 43 44 45 49 49 55 55 59 51 46 49 39 38 38 40 39 39 43 44 49 52 49 51 50 56 65 69 69 71 77 67 64 73 68 56 59 52 48 49 57 70
36 41 41 42 43 46 50 48 56 52 54 49 46 47 36 37 38 39 38 33 32 34 38 41 43 45 53 58 72 69 62 57 54 55 65 65 55 62 70 58 57 61 68 74
36 37 41 44 45 44 50 50 49 58 56 57 44 36 29 31 34 38 43 38 34 28 26 31 34 38 49 53 71 55 48 49 48 52 58 53 61 68 55 58 61 73 74 81
33 35 41 43 46 49 49 50 53 55 53 49 42 43 36 31 31 34 42 40 32 27 26 27 28 34 40 47 56 47 51 45 45 50 48 54 54 55 61 71 72 71 74 83
32 32 34 41 44 48 51 52 53 55 57 54 53 47 38 36 32 34 32 31 29 31 31 29 31 35 39 47 51 55 46 43 45 47 50 53 58 68 76 82 77 82 80 81
32 35 35 36 40 38 41 47 49 59 52 57 55 47 33 36 30 32 34 33 32 36 40 42 42 42 46 53 62 59 54 52 54 56 62 66 83 84 86 81 88 97 94 88
37 39 40 35 35 35 39 42 50 54 55 59 64 43 32 34 31 29 33 35 38 36 35 41 46 49 50 55 58 62 68 69 70 74 76 87 85 92 88 84 94 87 67 56
39 45 40 39 34 38 45 46 52 56 68 53 48 40 38 35 32 36 36 32 29 32 35 32 35 40 45 52 60 68 73 80 83 80 85 87 91 91 87 86 81 62 59 65
40 43 42 39 38 44 46 45 45 46 48 50 45 41 34 28 27 34 37 38 33 33 36 39 41 44 48 61 65 69 74 83 83 81 84 95 98 88 83 80 67 62 70 71
43 45 45 47 44 47 52 45 42 36 39 39 36 34 33 30 27 29 33 36 38 37 38 45 48 48 53 61 66 68 70 72 84 88 94 96 87 84 80 68 65 74 71 77
46 50 54 55 56 50 52 40 38 32 29 28 29 24 26 27 28 30 31 34 36 40 40 42 46 47 52 58 62 69 78 70 77 86 79 71 72 71 66 68 72 74 82 87
50 51 58 70 66 63 34 34 30 27 22 21 22 21 22 24 28 30 34 37 37 39 40 42 46 49 53 56 56 60 62 61 61 63 65 67 65 68 72 75 85 85 85 83
52 55 64 64 69 55 36 30 30 26 22 23 25 28 32 35 35 35 37 38 38 38 40 42 45 46 46 51 53 55 57 58 59 62 65 66 70 76 77 86 86 86 83 70
56 58 61 69 66 62 38 30 33 29 28 25 28 32 34 35 35 36 37 37 39 40 42 41 39 39 42 46 50 53 57 60 63 64 69 72 81 81 87 87 86 73 57 45
67 68 64 70 64 57 40 33 39 34 25 19 23 30 35 37 36 36 39 41 41 39 38 39 42 46 51 54 56 59 61 63 67 70 72 81 83 85 83 74 61 50 38 26
59 69 70 69 68 63 42 48 33 24 23 24 25 30 34 36 39 39 38 35 34 35 37 39 42 44 47 51 57 61 63 67 71 79 81 81 80 73 64 56 44 32 25 22
59 53 58 59 54 46 48 43 29 24 25 27 28 30 34 35 34 33 32 33 33 35 37 40 44 47 53 57 61 63 67 74 80 82 77 71 66 61 50 36 28 24 22 22
54 55 65 63 53 52 50 47 32 25 25 26 29 30 31 31 33 33 34 34 36 38 41 45 49 53 58 61 65 73 80 79 71 71 67 63 53 40 31 28 23 20 19 20
56 68 72 71 61 55 52 48 34 31 31 31 31 31 32 33 36 37 36 38 40 44 48 52 56 61 65 73 79 75 70 70 68 63 54 45 35 27 22 16 14 14 16 17
60 64 71 69 63 61 56 43 39 38 38 36 36 38 40 41 41 44 44 46 48 52 57 60 64 73 82 77 72 71 70 63 55 49 41 33 26 19 15 13 14 16 15 15

GFSCGP_prec_cthk_069.txt.gz
RH
39 40 41 40 44 45 48 52 50 46 49 54 49 51 54 56 60 55 53 50 41 49 47 51 53 53 53 56 60 62 63 63 59 59 63 65 68 69 72 78 66 60 55 54
40 41 43 45 48 51 51 51 55 50 49 50 47 46 50 56 54 55 52 49 47 45 47 46 47 48 48 48 50 52 55 59 61 57 59 63 62 64 70 69 61 59 55 51
40 42 44 48 51 50 51 50 53 54 52 48 45 40 45 48 51 52 56 53 46 41 39 40 41 42 43 44 46 47 48 50 56 58 57 62 66 76 78 74 67 59 51 48
39 42 45 47 48 49 51 47 49 50 48 43 38 37 38 43 47 52 55 54 51 47 44 41 41 42 42 42 44 47 51 53 54 57 61 63 75 83 89 83 68 56 51 47
40 45 48 48 47 49 50 51 53 50 45 41 40 34 32 38 42 40 48 55 55 50 49 46 45 47 51 53 50 52 55 57 59 66 74 71 78 91 93 88 67 55 53 47
37 42 47 47 46 46 47 50 52 52 52 52 46 42 33 34 39 41 45 49 53 51 54 53 52 55 56 57 59 59 66 63 68 78 75 74 78 93 93 78 59 62 58 51
33 38 43 45 44 45 47 48 50 53 55 50 49 47 39 35 36 38 40 42 44 50 50 51 55 57 53 57 59 61 70 68 72 80 82 69 68 86 88 65 58 69 61 56
33 35 38 43 45 45 49 48 50 46 48 45 48 43 36 37 35 34 35 40 36 42 42 45 48 52 51 54 57 67 74 74 74 62 54 56 67 80 78 59 67 58 59 68
34 31 37 44 46 46 50 52 50 55 55 54 43 35 30 31 32 35 35 42 40 38 35 35 39 42 44 49 57 68 67 64 58 54 49 56 72 71 65 78 66 64 72 78
31 33 36 44 47 49 49 52 54 54 53 50 41 39 32 33 34 38 35 39 39 34 32 28 29 33 38 44 47 59 63 50 53 50 48 57 65 64 72 70 74 79 87 90
33 33 35 42 45 44 50 51 50 51 52 52 51 40 31 34 33 36 35 32 30 32 26 26 26 27 31 36 41 48 52 58 56 48 50 56 58 62 71 81 86 91 92 95
33 37 40 36 41 44 45 45 48 57 50 54 50 42 37 33 34 35 34 33 31 30 31 31 35 40 38 42 47 50 62 61 53 51 58 63 66 72 84 89 92 92 95 96
35 37 38 35 36 39 45 42 44 46 49 51 56 43 39 34 29 31 28 31 33 33 31 31 31 35 45 49 52 56 61 67 67 72 77 82 88 92 93 95 98 90 93 88
35 38 36 36 32 36 40 36 37 42 54 52 51 46 40 34 33 31 25 29 31 29 29 32 35 35 39 40 47 55 63 70 78 86 88 92 94 95 93 94 97 87 83 83
40 41 40 37 36 38 37 36 44 47 46 49 42 40 35 32 29 24 23 24 28 30 33 34 38 41 44 50 54 64 71 76 80 85 87 92 93 90 96 97 92 80 81 79
44 45 44 43 42 43 44 39 44 48 45 40 38 30 28 30 28 26 26 24 24 27 31 36 41 48 53 59 64 68 74 77 75 82 89 78 78 99 92 76 70 79 73 68
48 49 48 48 48 50 52 44 40 39 39 37 35 25 27 26 25 26 27 27 27 24 28 35 40 47 54 56 59 64 70 66 64 69 66 66 68 67 58 60 71 64 72 79
55 52 52 58 56 64 38 42 39 38 33 30 23 21 21 21 24 25 26 30 32 33 35 39 41 45 50 55 60 63 63 61 59 61 63 66 61 60 63 72 69 81 83 78
59 56 58 61 55 49 39 40 42 42 24 24 22 20 25 30 33 34 34 35 35 36 35 35 37 41 46 50 52 54 55 53 55 60 61 62 64 64 70 77 78 77 74 70
62 59 60 64 60 56 39 39 38 37 28 30 23 23 27 31 33 32 35 36 37 37 36 37 38 38 39 41 43 46 49 53 56 58 60 62 68 74 74 76 74 68 62 57
67 64 60 65 63 52 41 38 38 45 35 24 22 21 26 28 31 33 37 39 40 43 43 39 36 36 39 43 46 49 51 55 60 62 66 67 69 77 74 70 62 61 53 44
69 67 66 64 65 56 46 47 43 37 35 27 24 24 27 29 32 35 37 42 43 40 39 38 39 42 44 47 50 52 58 62 64 63 69 78 76 68 62 60 56 49 42 33
76 65 61 56 53 48 46 44 39 38 42 30 25 25 28 30 33 35 36 38 38 37 37 37 40 40 44 49 53 55 60 64 71 77 79 67 63 62 58 51 46 39 29 22
67 72 66 61 52 51 52 49 43 45 47 39 30 28 29 30 33 34 34 35 35 35 36 38 41 46 52 56 58 60 68 75 77 69 66 65 61 54 48 42 35 26 20 19
61 63 62 63 61 55 62 65 56 54 52 42 34 32 31 32 33 35 38 39 40 40 42 45 50 55 59 62 66 72 78 74 69 68 63 57 51 46 42 35 25 22 22 19
61 62 63 66 61 60 58 67 68 61 55 42 40 40 39 37 38 42 44 45 48 51 52 53 57 63 69 74 75 76 72 67 64 60 56 50 46 42 33 26 25 23 19 16

GFSCGP_prec_cthk_072.txt.gz
RH
31 38 43 41 37 42 44 48 49 49 44 46 48 46 49 56 59 49 47 43 58 58 57 60 65 61 63 65 66 69 70 67 63 55 57 61 61 67 71 76 84 88 70 58
32 38 42 38 39 44 49 52 51 48 42 46 47 46 47 52 53 54 49 46 43 48 53 52 55 58 61 62 62 64 67 71 66 65 62 64 65 69 75 79 85 74 61 58
31 40 41 42 44 45 48 51 49 46 45 43 43 41 43 46 51 49 52 47 44 42 45 47 48 48 48 49 53 59 65 69 71 67 61 66 68 68 68 80 82 76 68 59
30 37 43 44 44 46 51 48 45 44 44 48 40 42 35 38 43 46 51 49 45 44 41 40 41 43 44 46 50 51 56 58 58 64 64 62 68 73 78 85 88 83 74 61
29 36 42 43 44 46 49 48 47 47 41 38 36 34 39 34 37 39 47 52 52 48 43 41 41 43 45 47 49 51 53 55 57 57 61 66 72 75 82 92 95 92 75 61
32 37 44 44 43 46 48 50 51 49 47 47 43 37 37 37 37 39 42 46 51 53 50 48 47 49 51 53 56 61 60 64 66 64 67 75 81 81 81 86 91 91 69 58
30 34 42 44 46 46 48 51 56 55 50 50 44 41 40 34 35 36 39 43 50 51 52 57 56 54 51 53 56 61 66 65 72 71 80 89 85 82 77 75 89 88 70 59
32 35 34 38 42 44 46 50 55 52 51 48 42 37 36 32 32 31 33 39 42 44 44 53 57 58 57 57 55 58 60 67 74 75 80 82 69 64 61 71 84 76 67 75
30 31 32 36 39 44 48 50 49 50 50 47 40 37 28 28 27 31 31 36 42 43 41 44 51 55 56 58 54 55 63 67 72 74 72 64 60 58 61 75 82 72 76 76
27 30 30 37 42 44 46 50 51 50 53 50 40 35 34 30 32 33 31 30 40 41 39 39 41 43 45 49 53 52 61 63 62 65 53 53 54 59 65 74 77 77 83 83
29 29 36 36 41 44 46 47 48 49 49 50 47 40 34 30 32 32 32 31 31 33 35 36 33 32 35 39 44 48 50 58 66 57 59 63 66 68 73 80 85 88 86 93
29 32 35 35 39 40 46 47 51 49 53 50 48 40 37 34 34 32 32 33 31 31 31 28 31 31 32 38 42 44 50 58 64 69 66 64 66 72 78 85 90 94 98 99
30 32 39 37 36 37 40 41 46 47 47 47 50 39 39 37 39 35 27 27 30 32 31 29 32 34 38 44 51 55 60 65 65 67 65 67 76 84 92 94 94 98 97 95
31 33 34 36 34 35 37 35 38 42 49 40 40 36 41 46 44 33 32 25 23 27 29 31 31 35 39 43 46 49 52 52 55 68 75 83 88 84 89 93 98 89 95 98
38 38 36 33 33 37 34 34 34 36 34 36 34 40 37 38 39 36 31 27 21 22 25 29 34 37 39 45 48 50 48 51 64 74 77 83 83 83 92 88 84 89 95 91
42 43 39 37 36 37 36 33 34 37 38 39 41 37 33 27 26 28 30 29 27 24 24 27 33 39 47 50 53 54 57 66 68 72 80 77 69 71 73 70 68 80 79 79
51 47 44 42 42 43 46 35 36 39 38 36 36 33 33 25 23 23 27 28 28 28 29 30 30 38 46 56 61 67 61 61 66 69 72 68 63 65 68 65 63 62 66 69
59 51 49 49 55 67 31 34 38 43 38 34 32 29 27 21 20 20 22 24 27 27 30 34 36 41 49 55 62 69 70 70 70 67 64 63 64 64 65 64 61 69 75 75
62 61 58 67 52 41 36 33 37 43 38 38 34 27 26 25 23 24 26 29 32 36 37 39 41 45 50 54 57 60 62 59 59 58 61 64 60 61 62 65 76 76 74 70
67 66 64 65 67 64 33 32 36 41 35 37 35 29 22 25 26 24 28 30 33 36 39 39 40 41 45 47 47 49 51 50 51 53 54 56 59 62 72 73 74 74 62 57
76 73 76 66 69 48 38 38 41 46 32 36 32 26 23 23 24 29 29 31 34 37 41 43 44 42 40 38 39 42 44 47 49 54 55 62 66 68 72 73 64 58 60 58
72 76 77 67 77 69 39 42 41 39 42 37 36 34 25 27 26 31 33 35 37 39 41 44 43 40 40 42 45 46 48 52 56 59 62 64 68 75 67 61 60 60 55 47
68 66 69 64 58 51 49 44 42 44 45 41 41 43 36 28 29 30 33 35 37 40 42 40 38 39 42 46 48 52 56 58 59 61 66 72 68 64 62 62 57 51 44 40
48 60 65 71 58 56 56 49 48 49 52 48 47 47 47 36 34 32 34 36 38 40 40 39 40 41 43 48 53 57 58 61 69 70 72 68 67 64 60 55 50 44 41 36
41 50 49 54 62 62 58 56 54 56 56 58 54 50 44 39 37 36 36 38 41 42 44 46 48 51 54 55 56 60 66 69 71 72 72 68 61 57 53 48 46 42 38 35
42 43 47 49 49 60 61 60 62 58 58 64 63 54 47 47 43 43 43 45 47 50 52 56 58 60 63 66 70 72 74 74 71 70 64 59 57 54 51 48 46 42 40 37

GFSCGP_prec_cthk_075.txt.gz
RH
30 35 39 45 46 38 45 43 43 44 50 40 43 47 48 55 50 51 48 51 58 50 64 65 59 57 55 53 58 69 89 79 71 61 59 61 68 71 72 80 79 78 83 85
38 33 39 43 37 39 42 46 45 46 45 35 45 48 50 49 49 51 46 42 49 52 54 55 57 61 62 62 61 67 77 78 70 65 62 64 69 68 75 77 76 84 92 81
32 36 39 38 36 40 45 50 50 50 50 38 37 42 45 49 50 53 50 45 43 45 45 50 52 54 58 56 56 61 68 77 74 75 66 66 68 71 69 79 82 82 87 75
32 32 36 37 39 44 50 46 42 44 42 58 45 47 47 44 47 49 50 52 45 45 38 42 46 46 47 50 50 56 64 73 74 74 72 71 72 75 76 75 75 82 92 85
32 29 35 37 40 44 49 46 41 45 45 46 41 31 37 37 39 46 46 52 57 54 47 42 36 40 43 45 46 50 56 59 61 61 67 68 70 74 81 77 79 88 92 93
33 34 33 37 42 43 46 44 43 46 47 52 43 38 42 39 35 46 46 49 48 56 56 54 49 48 48 47 50 54 60 66 65 62 62 65 67 72 78 80 83 86 82 86
31 36 32 38 42 42 45 48 57 58 52 49 53 36 34 43 39 34 39 46 48 54 58 58 54 55 54 54 53 56 59 62 70 65 67 71 69 74 80 82 81 82 83 90
36 37 32 35 40 45 45 51 54 61 57 49 53 34 37 36 34 29 31 33 37 43 54 54 56 59 54 55 53 59 62 61 68 67 73 80 84 84 77 62 71 80 82 87
36 33 39 38 37 43 51 48 48 56 49 45 45 38 33 31 29 28 31 38 36 38 43 51 56 60 59 58 54 57 59 59 62 70 75 80 80 79 69 64 64 71 80 89
36 40 39 39 35 36 43 52 53 49 54 63 41 42 35 40 34 39 37 39 41 39 42 43 47 52 57 57 55 56 56 56 60 67 68 71 71 65 66 64 69 79 88 94
38 36 46 38 34 38 38 43 49 49 57 58 53 39 49 40 37 38 40 37 34 34 37 43 45 46 51 53 53 53 56 57 58 64 64 63 68 66 71 74 76 81 90 98
32 38 45 40 33 33 47 50 48 52 50 50 49 45 45 41 41 39 37 39 37 32 33 34 33 34 37 42 47 51 55 61 62 63 65 72 72 73 74 74 77 89 98 99
35 41 43 48 39 38 37 43 52 52 51 51 65 52 44 44 38 39 40 38 35 31 36 35 32 31 35 40 46 51 57 64 71 72 68 71 73 68 71 80 86 88 90 98
38 39 41 38 38 43 37 35 40 48 56 48 45 45 40 41 47 52 49 47 35 30 30 35 34 30 33 36 41 50 56 60 63 59 62 66 63 68 80 84 83 80 85 83
43 45 42 34 42 42 40 39 35 38 42 48 43 43 37 41 45 42 47 49 42 33 28 25 32 38 37 38 41 46 51 58 60 59 61 67 72 79 84 88 84 72 78 78
47 51 42 41 40 43 41 36 35 39 40 35 37 40 41 45 42 38 33 32 32 28 29 27 27 39 44 47 51 54 54 56 57 58 65 73 79 83 83 81 73 71 73 74
56 55 50 49 44 46 51 32 35 35 36 36 39 40 45 45 43 38 29 28 30 28 29 29 31 35 40 48 49 53 56 60 67 75 76 79 79 82 80 74 72 71 70 70
68 62 56 60 57 63 42 37 35 36 36 39 43 38 38 40 38 31 24 20 22 26 28 28 29 34 40 43 45 49 57 68 72 77 77 77 77 72 73 69 67 66 65 65
67 68 64 68 57 45 38 36 34 36 35 35 41 38 40 39 30 25 21 21 25 28 29 31 39 44 48 50 53 59 64 68 70 70 69 67 68 68 66 66 66 63 68 69
63 69 75 69 64 62 40 36 36 39 41 34 45 44 37 29 25 22 25 25 26 28 32 35 38 43 46 48 48 49 51 54 55 55 56 58 58 60 59 58 64 66 69 66
82 79 79 75 78 54 42 39 38 48 31 47 42 38 33 30 28 24 26 28 27 29 32 35 38 42 45 48 51 49 45 43 44 44 48 51 53 55 61 65 65 65 61 63
84 83 82 74 88 80 52 48 44 39 43 45 42 40 36 35 34 26 26 29 30 30 32 36 39 42 44 43 41 40 41 42 45 48 50 55 57 62 66 68 65 64 64 65
67 73 77 71 69 62 58 53 49 48 47 48 45 43 41 42 41 37 30 32 33 32 32 34 37 40 40 39 40 42 45 48 51 54 58 59 62 67 67 66 68 66 62 60
46 47 58 62 63 65 66 61 57 53 50 54 51 51 51 46 42 42 39 36 36 36 35 36 39 41 41 43 47 49 51 54 60 61 62 67 71 70 69 68 65 60 59 55
46 44 45 45 45 53 66 61 63 60 58 58 55 52 53 54 54 48 43 42 42 41 44 45 46 46 47 50 54 57 61 67 67 68 70 73 71 70 65 62 57 56 53 51
47 48 54 53 41 45 50 55 60 59 60 59 59 59 57 56 61 59 52 50 52 53 51 53 56 59 62 66 69 70 72 74 76 77 76 74 72 68 66 63 59 55 53 49

GFSCGP_prec_cthk_078.txt.gz
RH
30 32 27 33 46 45 42 43 43 41 46 46 46 33 47 60 50 47 43 40 39 43 55 60 63 64 76 84 88 80 74 72 69 65 56 61 64 62 58 68 81 84 77 79
36 36 31 36 49 42 37 36 37 42 43 44 36 38 48 49 52 43 46 39 39 41 47 49 60 62 56 57 69 76 79 66 56 55 43 47 54 59 70 79 77 81 78 81
41 31 41 35 40 36 35 37 48 50 46 48 42 39 45 50 61 52 41 47 42 38 39 42 49 52 52 47 46 55 63 68 66 65 58 57 58 69 66 75 85 73 76 84
40 33 39 39 37 38 40 43 48 42 46 48 50 41 43 43 52 51 46 45 51 49 46 39 38 40 42 41 43 47 55 61 59 58 63 58 59 62 61 61 69 72 74 83
39 34 33 38 34 39 40 44 45 38 42 48 51 48 41 42 43 54 54 57 51 50 49 46 41 42 42 39 39 43 51 56 58 55 60 59 63 62 66 66 73 72 79 83
37 35 37 34 37 35 40 42 42 38 43 47 47 45 48 47 46 40 46 52 54 53 48 50 49 49 51 49 49 48 54 58 60 62 62 64 65 69 67 66 68 75 82 86
35 32 36 35 36 40 41 44 49 61 58 51 48 42 46 41 41 41 38 42 48 53 49 50 51 49 52 55 52 53 53 55 58 64 67 64 67 73 75 69 74 75 76 76
41 40 33 36 36 39 40 43 49 64 84 72 60 46 35 44 41 35 29 27 40 47 51 49 53 52 50 49 52 52 53 56 59 58 66 67 69 75 76 77 78 70 64 65
45 38 35 38 34 38 48 45 39 51 56 64 55 49 42 33 38 31 30 34 37 38 47 52 58 57 53 52 49 50 53 55 57 61 60 66 71 75 76 76 75 65 57 67
44 48 42 39 39 34 43 56 55 49 60 61 40 44 53 48 43 40 37 39 44 46 44 42 54 59 57 57 54 55 56 57 59 60 59 58 63 68 70 72 70 66 76 81
46 50 48 42 43 38 35 41 51 46 51 56 56 47 49 43 48 44 43 42 37 36 37 36 43 54 59 60 64 53 57 61 61 59 59 61 64 70 75 74 77 80 84 81
46 51 49 49 41 37 37 37 39 48 53 61 59 56 45 48 45 41 42 36 36 36 36 34 31 40 54 63 56 51 48 56 59 63 64 61 73 77 75 80 82 80 79 83
48 51 58 50 50 46 36 41 48 48 45 47 62 53 45 41 39 34 39 37 39 36 35 39 34 33 31 39 48 50 45 46 57 69 73 70 74 76 79 75 74 76 85 89
56 53 52 52 53 42 41 39 44 53 61 54 52 51 44 43 42 44 40 43 53 49 38 35 41 39 32 30 34 46 50 54 65 64 62 69 80 72 74 79 77 86 92 93
58 65 53 49 43 47 42 39 34 33 38 44 42 48 41 44 38 38 41 49 47 52 47 39 34 41 42 34 38 42 49 49 53 60 67 62 65 70 79 83 87 93 95 96
59 63 62 57 45 42 48 47 42 36 33 36 43 40 39 34 37 43 46 43 37 40 44 39 31 29 41 47 42 44 52 56 60 59 61 65 71 72 79 89 89 90 92 86
67 63 52 56 52 46 50 47 43 40 39 39 41 41 42 45 48 45 45 43 33 29 32 27 28 30 46 44 40 41 44 49 52 55 60 67 72 84 85 84 88 86 81 78
68 74 64 73 63 61 46 39 41 42 36 37 40 40 39 38 38 40 43 36 32 27 28 26 25 33 39 39 38 39 43 46 50 58 63 68 77 84 84 80 78 79 76 73
81 73 89 72 69 53 45 45 44 39 35 35 34 36 42 45 45 44 37 30 26 24 23 25 27 31 29 31 38 43 48 51 54 58 63 68 71 73 74 73 73 71 68 72
74 79 79 84 75 78 53 44 40 39 44 31 36 40 39 40 47 43 33 23 25 25 26 28 32 32 35 36 38 41 46 48 50 51 54 59 60 61 62 62 63 64 64 65
80 89 82 77 82 64 52 46 42 50 45 36 48 48 47 42 40 34 31 25 24 26 30 33 35 35 34 35 38 41 48 50 50 48 48 50 53 54 56 59 62 65 67 66
76 95 89 80 88 76 61 56 52 43 40 45 51 46 43 40 37 36 36 36 28 28 31 35 37 39 39 40 41 44 45 42 41 45 46 48 52 56 59 61 67 69 69 69
72 67 83 74 68 67 60 63 60 56 57 54 59 56 50 46 45 43 41 43 42 37 36 40 41 41 41 41 43 43 41 41 45 50 53 56 59 61 66 69 73 70 70 72
49 61 69 72 65 68 76 70 67 62 58 56 57 54 54 51 49 48 48 48 44 45 47 45 46 45 44 46 47 46 48 51 55 58 62 66 68 68 72 73 72 73 73 71
49 51 57 58 56 56 62 62 67 67 65 61 57 57 56 54 54 52 51 51 54 57 56 52 50 50 54 56 54 56 60 65 67 71 75 77 78 79 78 77 74 70 69 68
42 47 60 63 54 48 47 48 58 56 52 59 61 64 62 63 61 60 59 59 61 66 61 61 60 60 62 63 64 69 73 75 80 83 83 88 85 80 80 75 70 72 68 67

GFSCGP_prec_cthk_084.txt.gz
RH
34 36 36 33 28 24 38 41 41 38 37 46 50 43 49 47 51 61 64 46 47 36 41 51 56 69 76 80 85 88 86 89 88 85 88 88 91 92 89 86 87 86 88 81
34 35 35 31 29 28 41 44 42 35 35 40 48 45 48 49 51 57 59 47 48 41 37 39 40 52 67 70 68 67 68 68 75 77 78 81 84 79 78 79 79 77 74 72
31 37 36 37 36 41 42 40 39 37 36 40 44 41 46 49 49 56 59 53 45 42 35 34 39 36 38 52 59 53 51 51 53 55 60 64 68 72 75 72 74 72 76 76
31 37 38 44 44 46 44 39 41 39 39 44 43 44 42 45 48 50 52 57 52 49 36 35 37 34 36 38 40 39 42 42 43 48 48 50 52 52 57 59 62 64 68 75
28 35 38 46 46 48 42 42 41 40 40 41 45 46 41 46 52 51 49 52 52 51 43 35 37 41 41 40 42 42 42 45 43 42 43 44 46 49 49 51 53 53 58 65
31 35 37 40 44 46 42 44 41 46 43 47 50 50 44 48 45 47 46 49 49 52 50 44 38 43 46 48 45 44 44 49 49 47 46 46 45 47 51 54 57 62 62 64
36 33 34 40 44 44 47 45 50 55 52 51 52 50 43 50 44 41 43 42 44 52 49 48 47 43 46 42 47 48 48 49 51 52 52 53 54 56 56 62 67 69 68 70
39 41 36 36 42 47 48 46 55 57 58 56 53 50 42 47 41 38 41 43 44 49 48 47 47 48 44 45 42 42 44 47 50 52 53 53 55 60 60 60 62 66 70 77
42 37 33 38 47 46 46 50 41 55 57 61 58 57 47 44 42 41 42 42 46 45 42 40 46 48 49 51 49 43 39 43 45 48 52 54 52 57 60 61 60 61 73 80
37 42 37 42 47 45 46 47 51 59 70 65 54 61 55 48 44 44 42 45 45 45 41 43 47 48 49 48 54 60 59 57 51 53 48 47 51 53 58 60 65 63 66 76
38 43 44 48 48 46 48 49 50 53 59 62 61 52 50 43 43 46 43 43 42 43 41 43 41 37 44 45 52 61 67 68 64 59 52 55 54 52 56 61 64 69 71 78
45 47 50 48 47 46 46 45 45 55 59 55 61 52 45 44 43 43 43 41 44 41 40 37 38 35 33 36 43 48 58 64 65 64 54 52 56 68 78 67 74 84 92 92
52 52 61 51 50 50 52 49 50 53 51 58 79 59 47 48 50 48 46 44 43 42 39 38 42 46 40 31 32 36 46 53 56 55 58 56 52 56 60 64 75 89 94 84
65 59 51 46 48 50 55 54 49 56 58 50 59 53 45 48 49 54 50 45 46 44 42 39 42 46 42 33 26 24 24 27 33 43 43 44 44 53 58 70 89 98 85 77
78 63 55 50 53 54 58 59 54 54 54 51 42 41 40 44 49 51 49 48 47 43 43 39 38 42 40 31 31 28 25 25 27 27 34 49 62 69 74 80 89 70 73 80
79 70 60 57 53 58 69 66 60 59 56 53 50 43 39 46 43 43 47 47 44 44 41 36 38 41 39 37 35 34 35 33 31 35 44 50 53 56 59 63 63 60 68 73
96 81 68 63 56 67 76 64 62 60 55 53 53 46 43 43 45 43 43 41 38 39 41 38 40 42 41 36 33 32 35 35 38 47 51 51 48 50 53 54 58 61 69 73
97 91 82 77 64 80 63 58 60 60 55 54 47 47 45 41 39 40 39 39 39 40 40 42 41 39 39 37 32 34 36 40 46 49 48 44 46 49 50 53 56 59 62 67
92 95 96 92 79 59 57 60 59 60 60 52 51 50 46 47 44 42 38 40 40 40 40 39 40 39 38 30 30 34 36 37 39 42 43 51 53 52 53 54 58 62 65 67
89 93 92 98 93 80 58 58 59 59 62 53 57 51 47 47 52 46 40 36 38 37 40 41 37 36 32 29 32 38 39 41 42 45 49 50 47 48 50 53 57 58 57 60
95 89 89 90 97 85 64 66 61 70 64 54 54 54 49 50 50 46 42 40 40 38 38 38 36 32 31 33 35 38 41 43 47 49 47 48 48 49 48 51 50 50 55 65
98 91 86 87 97 92 71 70 69 67 61 58 55 50 53 50 47 44 44 43 41 40 41 41 39 40 42 44 44 44 45 45 47 48 49 50 51 52 54 55 57 61 67 72
81 81 79 69 71 68 67 75 67 67 65 61 58 53 47 47 49 48 51 49 46 46 47 48 46 48 50 51 50 49 51 53 55 58 57 57 56 62 67 69 69 76 82 88
62 69 68 63 56 62 65 70 73 72 69 64 59 58 57 55 55 54 56 55 55 54 54 54 54 54 57 58 57 57 62 65 67 68 67 65 69 73 77 81 86 88 91 93
54 60 65 62 57 60 62 65 66 67 67 68 67 65 64 63 64 62 63 65 63 62 64 66 64 65 67 69 69 70 72 72 72 72 72 76 80 83 87 89 91 94 97 97
49 54 58 57 48 61 60 65 66 61 60 63 68 73 68 66 65 68 69 67 68 67 71 73 74 73 71 71 74 78 80 83 87 88 87 86 90 92 93 96 98 97 97 97

GFSCGP_prec_cthk_087.txt.gz
RH
34 36 34 40 42 33 34 38 35 33 37 42 38 43 40 43 44 50 53 43 45 44 34 40 59 77 79 76 80 86 91 90 92 88 89 84 78 78 84 85 87 85 86 83
35 35 36 41 40 34 34 39 37 37 42 39 39 39 38 42 45 47 52 49 44 44 35 31 41 66 76 83 85 85 83 89 87 90 87 84 84 85 90 85 86 87 87 79
32 32 37 39 40 34 35 37 39 39 39 37 42 39 37 37 42 47 51 50 46 43 38 35 36 41 58 59 62 62 71 78 81 83 82 83 82 84 87 83 84 79 82 79
30 30 34 38 40 37 41 41 46 42 39 45 42 46 38 34 42 45 47 54 52 47 39 37 38 35 37 41 45 42 44 51 60 70 74 76 79 78 76 77 75 75 76 76
30 32 34 35 39 44 47 52 53 47 41 47 44 48 37 39 44 45 46 48 49 49 44 33 35 41 37 38 35 38 38 40 47 53 55 56 58 61 67 66 65 64 69 73
30 32 34 35 40 47 51 55 53 51 44 51 46 51 40 37 38 40 40 40 44 47 45 43 34 41 40 38 36 35 37 37 42 45 47 46 48 50 51 53 53 55 59 62
27 32 34 39 44 44 49 55 62 61 54 52 48 57 38 35 34 36 37 38 39 42 44 44 38 38 43 39 40 39 38 37 39 41 45 49 50 51 52 54 58 59 60 58
22 28 34 34 37 42 47 54 63 61 62 47 52 54 36 34 34 35 35 34 38 43 44 45 41 40 40 43 37 36 35 35 37 39 40 42 43 46 49 51 53 54 56 61
39 35 30 35 39 42 44 52 50 58 63 63 54 46 36 34 32 32 36 37 38 43 47 43 42 44 47 48 49 45 40 38 44 48 47 45 44 45 51 51 51 53 59 61
38 39 37 36 41 40 44 51 60 63 71 72 58 50 44 42 40 37 37 39 41 42 47 43 42 45 45 51 50 55 60 56 61 60 59 57 53 53 53 54 57 60 63 66
56 48 39 43 43 43 47 53 57 55 62 56 62 53 36 41 42 43 39 38 40 39 41 41 39 44 40 44 51 52 56 66 67 68 68 66 59 61 63 60 60 65 75 79
74 52 46 39 46 47 48 51 54 62 63 61 59 49 39 41 40 42 41 40 45 43 41 37 38 38 44 39 40 42 48 58 69 72 72 67 58 58 59 61 69 76 75 76
87 71 56 45 46 47 52 56 57 58 62 62 62 51 40 47 42 41 44 42 43 47 48 42 40 42 43 47 42 37 41 48 62 70 71 66 58 59 59 58 59 63 70 89
88 84 73 48 44 47 56 56 57 58 64 60 54 49 42 54 49 40 45 47 48 48 49 45 42 40 43 45 42 35 30 32 35 37 41 47 51 49 52 58 69 78 91 93
89 96 78 57 46 52 54 57 58 57 56 57 49 50 42 47 53 39 38 50 51 49 47 47 42 40 39 42 39 35 32 31 30 28 29 29 35 41 57 70 73 77 83 87
94 94 91 65 56 56 56 56 59 62 59 56 53 48 44 41 42 40 40 47 51 49 46 46 43 40 41 43 41 37 33 30 28 28 30 32 44 53 58 60 63 71 69 66
97 97 96 74 62 68 72 54 56 56 61 59 57 50 50 48 44 41 41 44 46 45 43 41 40 38 39 43 43 40 38 33 34 36 39 45 49 53 54 54 57 60 58 67
90 98 98 96 78 84 51 53 54 55 55 64 60 54 54 49 40 37 37 43 42 40 39 42 41 38 40 40 41 42 42 37 41 44 49 52 52 49 46 52 57 57 58 57
78 90 99 98 86 64 57 53 52 59 57 65 62 56 55 49 44 37 33 35 36 35 39 41 42 39 41 41 40 38 37 35 42 50 48 50 51 52 57 59 60 59 60 60
73 79 89 97 96 75 58 50 57 71 72 65 63 61 56 52 50 47 43 39 40 39 42 40 39 40 43 39 35 30 31 36 43 46 49 52 53 53 54 53 53 58 58 58
80 87 91 91 98 86 66 64 62 84 69 63 63 64 59 58 52 50 49 47 46 42 43 41 43 43 42 38 36 38 40 45 49 53 54 53 53 51 50 51 53 55 56 59
70 86 90 94 97 89 63 68 67 63 64 68 61 63 59 58 57 55 54 51 49 45 43 42 43 47 43 44 46 48 51 54 55 58 57 56 55 56 58 60 58 59 62 63
68 60 79 81 81 61 62 58 69 75 73 72 72 63 63 60 58 56 57 54 53 52 52 53 52 50 49 52 54 56 57 59 59 61 60 60 61 64 65 67 71 71 72 75
54 61 72 71 62 59 58 59 66 78 77 72 75 74 69 63 63 61 62 63 61 60 58 57 57 57 58 61 64 66 66 69 71 72 70 69 71 75 78 80 81 82 88 92
71 64 70 66 59 63 57 62 63 69 75 78 76 75 71 68 70 66 71 72 67 64 66 67 68 69 70 76 77 76 76 76 78 79 81 83 86 87 88 91 94 97 98 98
67 57 63 58 55 60 58 64 69 78 75 76 79 78 78 75 71 71 75 77 73 70 72 74 76 78 79 81 81 82 82 79 78 79 83 86 92 96 97 97 97 97 97 97

GFSCGP_prec_cthk_090.txt.gz
RH
34 39 40 38 38 40 40 33 37 33 38 40 40 34 32 39 47 52 52 53 51 47 40 34 49 72 80 75 79 82 84 89 89 90 94 91 89 79 79 82 81 80 88 86
37 37 34 38 40 41 41 37 35 35 33 41 41 37 29 37 44 47 50 49 50 47 46 33 37 60 77 78 76 81 88 92 92 93 91 95 91 90 82 84 84 83 88 88
36 34 35 37 41 44 41 40 38 35 38 44 42 38 31 34 41 47 49 48 46 45 47 39 34 41 56 66 75 82 85 92 93 92 88 92 88 91 86 85 85 89 92 90
30 31 34 41 40 43 44 39 37 35 48 54 44 49 33 33 37 45 47 48 47 45 46 41 41 37 35 50 57 59 69 77 82 87 88 91 88 86 85 85 90 92 91 91
33 28 32 33 40 43 42 41 40 47 54 54 49 51 34 36 37 38 43 44 45 43 44 42 35 42 37 38 39 42 50 55 61 67 77 80 83 81 79 77 80 86 84 81
29 30 30 34 35 41 48 46 48 55 60 61 49 51 39 32 37 38 42 41 39 38 41 45 37 41 44 42 40 42 42 44 47 50 51 56 61 67 71 73 75 75 76 78
22 25 29 32 39 44 43 53 61 64 67 60 50 61 42 28 30 35 41 41 34 33 36 40 39 38 43 41 43 41 41 43 45 48 47 46 47 51 52 56 61 61 61 60
17 15 17 28 34 43 45 48 63 64 64 57 62 65 44 28 29 33 40 42 36 30 35 39 40 38 41 46 41 37 39 40 39 43 42 43 46 46 48 53 59 60 61 60
38 26 21 19 22 36 44 52 48 56 66 70 57 54 45 29 26 31 33 43 38 35 37 37 41 38 40 43 48 44 41 38 39 43 42 41 41 43 45 49 53 58 61 61
46 43 35 34 33 32 37 43 51 63 69 72 61 58 50 36 33 34 36 42 42 39 39 40 39 38 42 45 47 52 55 48 44 47 50 51 51 49 48 48 53 56 60 60
56 55 42 39 36 38 43 46 49 53 61 61 62 58 48 38 32 39 43 43 42 39 38 38 36 38 39 43 42 51 54 59 61 61 60 58 57 56 55 56 57 57 55 57
61 71 62 40 38 42 44 45 49 55 56 63 59 50 44 39 36 42 40 43 43 40 39 39 37 40 42 42 41 37 43 51 55 63 66 69 65 61 59 57 58 60 63 70
65 84 70 49 37 41 46 48 52 56 56 52 65 54 44 43 43 45 47 45 43 40 37 35 38 40 40 43 48 41 37 38 44 55 67 72 75 69 64 59 63 67 69 74
55 68 76 75 64 65 62 48 50 54 63 52 48 53 50 46 43 42 46 49 47 45 40 37 42 40 38 42 49 41 34 31 34 36 40 45 47 52 60 66 62 61 62 72
65 63 69 73 70 73 64 59 51 53 46 56 50 53 50 47 42 45 50 53 45 52 45 47 44 42 40 38 44 45 41 35 32 31 30 26 29 31 35 40 50 62 76 80
69 80 77 86 72 77 67 49 54 50 52 52 54 54 50 46 46 47 53 54 50 49 46 48 46 45 42 39 41 43 45 44 39 34 31 33 36 39 43 49 62 68 67 68
87 85 83 80 78 94 85 37 39 49 53 55 61 57 53 47 49 52 48 43 42 43 52 46 43 43 41 39 39 43 46 47 46 45 42 41 45 53 60 60 62 65 67 64
58 97 91 95 86 96 58 53 40 47 48 51 53 54 55 51 52 50 49 43 37 40 46 49 43 40 40 42 42 44 44 46 48 50 50 50 56 62 62 61 59 60 60 66
43 71 85 90 97 86 83 67 54 54 50 51 51 52 54 55 55 48 51 47 41 37 43 46 43 40 42 42 41 43 47 48 45 47 52 58 63 61 58 60 62 61 62 60
49 64 87 93 94 87 75 80 72 63 64 52 54 51 52 57 58 52 50 48 45 42 42 44 45 45 43 41 41 43 43 40 41 43 48 55 58 56 58 60 59 59 59 54
91 77 83 88 90 83 66 75 83 79 67 58 58 53 57 56 57 56 54 52 49 50 45 45 45 45 42 43 45 43 42 43 46 50 54 57 59 59 59 62 63 60 59 66
73 95 98 97 98 89 69 70 95 81 70 62 62 64 69 66 65 65 60 57 57 55 55 54 50 50 51 53 52 53 55 54 56 57 58 60 61 62 64 62 62 65 68 72
59 77 80 89 92 67 63 69 71 77 80 75 67 75 71 71 73 72 66 64 63 62 61 61 60 64 66 65 64 63 61 63 63 64 66 65 66 68 68 69 71 75 78 81
50 53 60 71 58 64 60 67 70 66 66 75 75 76 74 76 74 73 71 73 70 67 66 70 70 69 71 72 70 71 71 70 71 73 74 74 75 76 76 78 82 86 90 92
49 46 54 64 59 67 63 59 61 63 62 70 81 78 83 85 82 82 80 77 75 77 78 80 82 73 77 77 77 78 78 76 75 77 79 79 79 78 80 84 89 92 94 97
47 43 63 65 74 65 62 61 63 64 68 67 75 80 82 90 87 87 87 81 80 88 83 85 92 83 83 84 84 84 82 80 80 80 79 78 77 79 82 86 91 95 97 97

GFSCGP_prec_cthk_093.txt.gz
RH
33 38 43 40 41 38 39 39 37 34 35 30 33 35 32 32 35 40 44 47 47 49 47 41 34 58 76 72 73 78 80 87 92 97 98 97 96 97 92 91 90 90 90 86
36 32 36 39 40 40 39 40 38 35 35 34 31 35 34 33 32 38 41 46 46 48 46 45 29 47 69 74 72 73 80 92 91 95 98 97 97 92 86 91 91 92 94 88
30 34 34 36 39 42 41 42 42 40 38 35 33 34 37 33 32 36 42 42 45 45 46 45 33 33 49 68 74 76 79 85 91 93 92 96 91 86 87 87 86 92 89 91
36 30 34 38 39 40 39 40 41 43 43 37 32 35 36 37 29 32 38 42 44 46 47 45 38 32 33 47 61 70 76 87 93 95 94 91 90 91 90 89 87 87 88 86
41 42 34 32 36 44 41 43 43 44 44 41 36 44 37 37 30 31 32 38 41 43 47 44 38 36 34 36 39 51 56 61 76 83 87 87 89 93 91 89 90 86 84 85
27 29 40 37 32 34 44 47 49 49 50 49 42 49 37 39 31 28 33 37 41 39 46 42 42 39 38 38 38 41 45 48 54 61 75 80 85 87 85 86 86 82 83 84
26 28 21 31 36 40 43 46 50 57 57 47 46 51 40 41 36 28 32 36 40 37 40 37 37 35 36 38 38 38 41 45 49 52 54 59 66 69 71 75 74 72 74 78
26 18 29 24 27 39 46 47 47 53 56 48 59 53 41 41 35 29 34 37 40 40 34 35 37 35 32 35 36 37 38 40 44 45 50 54 54 56 57 58 60 59 59 66
46 31 25 20 21 24 42 51 47 50 57 60 53 51 43 36 42 29 28 34 43 44 37 39 42 37 37 35 39 38 38 38 38 38 42 45 47 50 50 53 55 58 61 63
47 52 35 32 26 21 30 38 54 59 57 52 48 52 44 38 43 39 29 33 36 44 42 44 47 42 40 39 42 44 45 43 40 39 47 49 47 45 46 48 53 55 58 59
50 56 44 40 38 37 36 33 42 51 55 50 47 46 45 37 42 38 33 35 39 44 46 43 48 43 41 40 41 45 48 53 55 52 51 54 58 59 57 54 54 53 56 59
61 59 62 46 43 48 46 45 42 47 47 57 51 41 41 39 43 40 37 39 44 43 46 42 44 42 41 41 43 42 39 48 58 62 60 58 60 62 61 57 56 57 61 64
42 66 66 51 42 47 54 60 57 52 52 45 54 47 46 44 45 47 44 42 46 45 45 45 43 41 41 43 42 44 44 41 44 52 53 58 62 69 72 70 66 61 65 66
44 45 44 50 68 57 55 58 64 72 63 49 43 43 44 42 40 47 44 42 43 47 46 47 40 41 42 43 40 41 40 37 37 41 42 42 49 53 56 69 73 73 70 66
45 54 50 47 45 50 58 53 51 58 57 55 39 44 46 44 39 47 47 45 49 49 49 47 42 39 43 44 42 42 43 40 38 37 36 34 36 36 36 41 47 51 56 61
62 66 64 56 50 49 47 54 52 50 55 53 47 41 42 48 44 44 45 48 49 55 55 43 41 42 45 45 44 42 45 45 46 44 41 40 39 37 36 38 40 45 54 62
53 57 75 64 53 58 60 45 61 51 42 39 44 40 45 45 44 46 49 49 46 50 54 54 45 43 45 47 43 42 43 46 47 48 50 52 51 47 46 48 57 62 67 68
55 56 74 78 82 77 37 58 72 68 46 41 38 42 48 48 49 48 50 49 48 45 45 46 48 51 49 45 44 41 43 46 50 52 52 53 57 58 59 58 61 68 70 65
57 56 55 70 87 56 40 62 72 74 57 51 41 42 44 48 56 49 52 52 49 47 45 43 43 50 50 49 45 42 44 47 50 50 52 51 52 57 60 62 66 69 65 63
65 69 71 67 85 65 36 58 68 69 66 72 63 57 50 53 54 42 57 57 54 54 49 48 48 53 52 53 47 48 50 54 55 55 49 47 48 52 58 60 63 61 63 65
76 88 81 62 79 60 54 62 68 78 86 81 76 68 56 54 51 49 60 64 56 55 54 55 56 58 60 55 53 54 54 56 57 51 54 57 58 61 63 65 65 66 68 71
68 86 90 82 89 80 82 80 83 83 89 85 84 77 71 60 61 62 62 63 62 67 65 67 65 62 62 63 64 63 62 65 62 65 66 67 68 69 70 70 71 73 74 75
62 50 71 98 91 84 86 80 80 81 80 81 85 80 75 72 69 66 69 72 75 76 73 73 68 67 69 70 76 70 71 73 73 71 72 75 74 74 76 76 77 77 77 78
59 55 53 60 70 84 83 77 78 80 75 76 83 86 80 79 80 76 81 82 83 84 81 79 76 73 74 75 77 76 75 73 76 76 79 80 79 80 80 83 85 84 81 82
61 55 49 46 51 64 73 75 67 66 68 75 79 79 84 85 81 80 82 88 88 90 86 85 82 76 75 77 78 81 81 79 80 84 84 85 88 87 85 82 80 80 82 86
65 63 59 45 40 56 66 70 66 67 70 73 75 74 81 85 88 92 90 92 92 93 90 84 80 80 84 83 87 88 88 89 87 86 85 85 81 76 78 81 83 84 86 88

GFSCGP_prec_cthk_096.txt.gz
RH
31 34 42 45 44 44 41 39 38 35 40 36 32 25 28 31 31 30 31 35 39 41 43 38 39 25 46 68 69 73 74 73 81 95 97 99 99 98 98 98 99 99 95 86
43 35 27 37 45 46 44 42 38 38 41 38 33 28 26 31 32 30 30 32 37 41 42 37 39 26 40 66 66 70 72 75 82 90 97 98 99 99 98 99 98 98 95 82
50 40 30 31 38 43 42 41 42 41 44 40 35 30 24 26 32 30 29 29 35 38 39 38 39 29 33 57 66 69 74 78 83 88 96 96 96 98 98 98 98 96 93 86
52 49 38 29 35 37 38 40 43 44 43 42 39 32 24 30 31 32 29 28 33 36 39 38 38 33 28 41 55 63 71 77 81 90 94 96 97 97 97 95 97 94 94 94
43 48 50 34 26 32 39 41 41 45 44 43 42 39 27 29 36 30 27 28 32 36 37 36 39 33 30 33 39 46 55 65 77 84 90 90 91 93 92 94 91 89 91 92
31 41 46 52 40 32 31 43 51 51 49 51 45 38 29 29 39 31 28 28 32 36 37 35 39 31 34 36 36 38 42 45 58 67 81 84 86 85 86 92 93 91 91 94
20 28 32 38 43 54 49 48 54 61 58 51 41 41 31 31 39 37 30 30 33 38 40 36 35 32 29 34 37 38 38 40 47 52 60 75 82 83 85 87 91 90 89 92
25 25 32 30 30 28 53 53 50 50 51 48 47 45 35 34 36 37 29 32 34 39 41 37 32 33 31 33 35 38 38 38 40 45 50 55 63 65 68 71 74 75 77 76
41 33 30 33 31 29 31 48 45 51 47 54 49 50 43 35 36 39 32 29 33 38 40 39 33 38 37 36 37 36 41 41 39 37 43 47 49 52 56 59 60 62 65 65
44 45 37 36 38 28 36 35 48 56 58 54 43 44 46 39 35 38 38 29 31 35 39 42 39 41 41 39 42 43 41 42 46 43 43 43 43 46 50 51 53 55 57 59
52 49 43 40 38 36 28 39 44 46 52 52 50 45 47 43 35 39 38 36 31 35 37 42 43 44 44 43 44 44 47 48 48 50 50 50 53 55 54 53 52 52 54 56
49 52 51 44 45 47 47 44 32 32 40 50 49 47 50 44 41 42 38 39 38 39 44 43 46 46 47 45 42 42 43 46 50 52 53 56 59 61 64 67 68 63 60 62
43 56 55 49 45 49 52 55 53 48 43 40 52 52 46 49 40 40 43 42 43 44 49 48 48 50 47 46 45 42 47 45 48 51 55 58 58 57 60 66 70 70 66 64
44 42 41 42 63 58 50 50 51 57 61 49 42 42 40 43 43 44 46 45 44 47 50 50 51 49 47 46 46 45 46 47 48 50 50 52 52 51 54 64 62 68 71 70
46 46 45 40 31 36 42 45 43 48 52 58 51 51 43 42 40 44 46 49 49 50 51 51 50 47 45 46 45 48 46 47 45 48 49 45 43 43 44 44 50 58 67 69
61 49 55 52 42 34 31 27 35 42 42 43 41 39 45 47 45 40 43 45 48 51 52 50 51 49 46 47 48 50 50 49 45 47 49 49 46 43 39 38 39 41 44 47
60 57 55 45 53 52 46 27 23 20 30 44 47 38 34 36 38 41 42 50 49 49 49 49 49 49 48 49 55 54 52 51 52 53 55 56 57 55 53 52 52 52 52 56
64 60 60 55 60 67 44 46 32 24 32 40 50 42 35 34 35 43 38 44 53 52 48 48 55 49 49 47 51 57 55 51 53 58 59 61 63 66 65 65 65 65 64 69
69 67 66 60 45 40 48 50 53 55 52 55 60 50 42 37 39 36 41 48 49 52 51 48 49 56 51 48 54 59 57 56 56 55 61 64 64 65 67 69 79 80 78 75
69 74 73 64 63 56 40 66 64 63 55 61 65 67 61 49 40 37 46 43 49 54 55 55 54 51 51 50 56 56 58 55 57 57 61 63 65 65 61 58 62 65 66 71
89 86 80 84 82 54 54 62 65 72 74 68 70 72 65 61 51 47 43 44 48 50 58 60 62 57 54 55 55 62 63 61 62 60 59 63 61 59 59 63 66 70 73 73
77 79 78 86 89 71 58 72 86 89 80 76 75 81 78 72 61 57 54 54 54 56 62 63 64 65 62 63 68 70 66 63 66 66 65 68 63 64 68 74 75 76 77 78
65 58 61 70 77 67 66 87 93 95 88 79 81 87 87 85 80 73 69 69 66 63 69 70 66 66 66 66 70 67 66 71 71 74 73 73 72 72 76 78 79 80 81 81
65 66 64 63 59 74 86 92 90 90 84 86 84 93 96 90 88 87 86 82 79 79 77 79 78 77 75 76 75 76 76 77 76 77 79 77 75 77 79 80 79 84 87 86
68 66 61 58 50 55 66 81 81 80 82 83 87 92 88 87 94 95 96 94 92 89 91 86 83 82 80 82 82 82 82 81 77 80 82 83 82 83 86 85 84 82 79 78
67 65 63 61 56 52 55 58 68 76 73 73 90 92 89 90 92 96 96 93 89 90 98 94 89 88 89 89 87 86 85 83 80 81 89 89 89 87 80 77 76 76 78 79

GFSCGP_prec_cthk_099.txt.gz
RH
40 40 31 40 48 52 52 47 44 42 42 43 37 33 30 30 30 34 36 35 34 40 42 42 44 41 34 37 60 62 69 72 70 71 80 87 89 92 92 91 95 98 97 98
32 36 43 33 35 52 55 54 50 45 42 43 40 37 31 29 27 27 36 36 35 37 44 41 43 38 34 36 54 63 64 69 70 74 83 88 94 98 97 93 95 97 98 97
29 35 45 47 44 44 44 52 54 50 45 44 42 38 33 29 28 26 28 31 27 32 43 40 42 37 33 35 42 57 65 70 76 79 83 97 97 98 99 99 97 99 99 97
24 28 40 49 49 41 44 41 48 50 49 46 44 39 37 30 25 27 31 34 32 30 35 39 41 36 31 34 38 46 59 69 77 80 87 95 98 98 98 98 98 99 99 96
21 30 30 41 47 47 40 45 47 45 45 47 44 42 37 33 28 27 32 31 29 30 34 35 38 37 31 31 37 39 47 55 65 79 85 90 92 94 96 96 98 98 95 93
16 26 31 34 49 57 47 46 43 50 49 50 45 44 42 34 31 37 37 35 31 32 34 35 37 39 30 29 33 37 39 45 54 63 78 86 90 92 94 98 97 98 98 96
25 19 19 27 38 54 56 56 56 56 60 55 48 46 42 35 30 38 37 38 35 28 33 37 38 38 33 29 31 35 36 38 45 54 62 78 90 90 94 94 96 97 96 95
31 31 25 20 23 44 55 61 64 57 54 58 51 47 41 36 32 35 37 37 37 33 34 38 40 37 34 29 31 34 36 36 39 50 54 57 69 83 89 92 91 93 94 93
47 41 36 23 24 35 42 52 52 61 58 64 63 52 46 44 37 37 37 38 34 33 35 39 40 37 36 32 32 34 36 38 40 42 46 49 54 60 60 64 70 74 79 77
55 42 43 35 29 31 45 45 55 55 67 59 47 47 49 51 39 38 41 42 39 35 34 40 40 40 40 37 34 35 36 37 40 44 44 44 44 48 52 53 56 59 65 66
38 48 47 44 40 41 40 45 51 50 49 54 60 51 50 44 42 44 45 46 48 43 37 40 42 40 43 44 37 40 39 39 42 43 46 51 50 50 51 51 52 53 56 60
41 50 51 48 57 47 46 39 44 53 54 50 54 52 52 50 47 43 53 48 50 41 39 39 45 41 44 46 42 43 43 42 42 44 45 47 53 58 60 62 63 66 67 63
64 45 43 38 34 41 48 46 53 52 49 47 55 55 48 51 51 50 50 51 50 46 45 41 44 43 48 50 46 45 46 47 48 46 46 46 48 57 61 62 63 67 71 71
49 41 46 56 61 75 64 53 59 59 62 59 52 44 47 52 49 46 47 49 48 53 47 47 49 50 50 52 49 47 46 48 48 47 47 48 49 51 56 57 57 59 69 69
49 45 43 38 39 55 64 52 45 45 52 62 57 59 56 55 49 47 43 47 52 54 52 49 53 52 52 52 51 50 46 46 48 48 46 47 50 52 53 53 52 51 52 62
46 68 52 50 42 34 39 48 43 37 37 39 46 47 46 46 46 36 42 48 48 49 54 55 51 53 49 50 51 54 49 43 48 48 46 48 51 52 49 48 48 49 52 54
78 69 61 65 47 35 38 23 18 17 23 30 40 36 41 46 44 34 34 41 41 45 52 56 58 54 56 56 55 54 54 55 52 53 51 47 48 52 58 59 60 59 58 59
73 67 67 61 64 65 31 40 42 38 30 22 21 27 41 46 40 34 25 34 39 49 54 57 58 58 54 56 56 55 56 63 59 58 57 55 57 60 61 63 63 65 67 68
63 66 77 61 49 38 43 42 48 51 49 49 48 54 54 64 44 35 37 34 47 50 52 53 55 52 53 54 59 59 63 63 64 67 63 64 63 62 66 67 69 71 74 79
71 75 77 77 62 58 42 48 54 61 69 66 74 71 66 68 61 52 51 45 43 45 47 52 54 55 55 61 61 65 65 67 65 64 66 64 68 66 70 74 73 68 70 70
80 88 79 77 78 56 47 53 58 82 75 78 74 71 68 72 71 67 66 53 42 41 48 53 54 55 56 54 56 60 61 69 70 68 69 70 67 69 74 77 71 70 66 67
91 94 90 77 87 86 67 52 65 72 76 77 76 69 66 69 78 70 62 59 49 43 47 52 57 60 60 61 62 63 64 67 68 73 74 78 73 70 69 70 70 71 73 77
89 76 84 83 75 71 70 78 85 72 76 80 77 76 74 75 89 78 69 64 56 49 47 47 51 60 62 67 71 69 70 71 71 69 79 82 76 74 73 76 78 79 81 81
77 72 67 66 67 72 74 73 71 88 90 88 83 77 84 87 86 85 81 77 73 68 64 62 64 67 71 74 78 80 78 83 80 79 78 84 79 80 79 80 85 81 80 82
77 77 74 72 72 72 71 73 81 84 82 82 83 90 88 95 98 88 88 87 84 79 80 80 80 78 82 84 85 87 83 84 83 82 87 87 86 87 87 89 87 87 88 86
73 72 73 73 74 73 67 70 71 71 72 83 79 90 94 96 96 93 92 95 97 95 96 96 95 93 91 90 93 92 89 89 89 87 89 91 92 91 89 87 90 89 82 78

GFSCGP_prec_cthk_102.txt.gz
RH
18 16 17 21 27 32 37 41 48 51 47 52 48 42 39 36 34 30 31 34 37 38 42 43 44 40 40 33 32 42 51 57 68 69 68 67 70 76 88 93 92 93 96 97
22 19 17 20 26 27 32 43 45 48 55 59 57 51 39 37 37 32 27 27 33 42 43 42 43 40 38 33 33 39 54 55 59 63 65 71 75 77 89 94 91 92 98 97
21 16 21 24 31 32 32 37 49 55 59 60 57 50 39 37 36 32 28 28 31 37 42 40 42 40 37 33 34 37 45 57 60 63 68 74 79 88 95 95 95 92 97 97
16 18 23 24 36 38 34 37 46 49 55 61 55 51 40 39 36 35 31 27 26 31 35 37 40 40 36 33 34 39 42 48 58 64 68 74 82 92 96 95 96 96 97 98
11 16 18 23 24 37 39 42 45 51 56 56 48 52 37 38 38 35 30 30 33 34 35 36 37 37 35 33 32 37 42 43 46 56 70 78 82 85 93 98 99 97 100 98
14 13 18 25 30 33 41 46 48 52 53 57 49 50 43 42 35 34 37 32 35 35 34 36 37 36 35 32 31 35 38 40 42 50 58 76 83 86 88 97 98 99 99 99
25 22 19 16 24 28 36 45 57 61 64 53 48 50 43 37 35 36 37 44 39 38 38 34 37 37 36 31 30 33 37 37 37 45 54 63 80 86 87 87 92 97 98 98
33 25 41 35 25 24 32 45 56 75 66 65 67 73 49 44 41 35 43 47 39 37 40 35 36 40 37 32 30 32 35 36 38 39 46 57 65 81 89 87 87 91 93 92
51 39 50 45 37 28 26 47 44 64 65 70 71 61 56 52 46 42 42 44 38 45 41 36 39 41 37 33 32 33 35 38 39 40 42 47 56 62 70 83 83 85 89 93
60 57 45 53 46 26 26 34 52 64 75 77 60 60 69 60 55 50 48 44 40 42 43 39 43 43 38 36 34 32 35 38 41 43 44 46 45 50 55 61 61 64 71 78
46 44 30 40 60 37 33 32 41 57 65 69 69 55 57 59 55 50 53 54 52 43 46 45 43 44 43 39 40 35 37 39 41 44 45 45 50 50 51 51 53 54 57 60
29 35 45 30 53 65 66 54 43 57 59 63 63 51 55 65 60 56 55 57 57 52 50 48 45 45 46 41 43 40 40 41 43 44 45 47 49 52 57 57 57 57 62 68
46 43 43 31 21 45 56 60 56 43 47 54 70 60 55 63 66 61 58 56 52 52 47 51 49 49 47 44 44 46 43 45 46 49 46 46 47 50 55 62 66 66 69 72
43 45 62 67 45 56 59 59 57 60 86 53 48 45 50 56 64 65 55 52 54 55 55 51 56 51 49 49 49 52 48 47 49 50 50 48 47 49 52 57 62 63 65 68
44 57 50 44 37 56 58 60 57 54 61 79 69 56 57 65 69 61 55 55 52 52 58 58 55 56 54 55 55 57 53 52 51 51 51 51 51 51 52 56 57 57 60 62
58 52 45 51 32 36 54 53 59 55 47 44 47 48 50 58 53 50 51 49 47 47 53 60 62 56 60 58 61 60 57 53 51 49 51 54 54 52 57 60 57 55 55 56
66 69 55 54 45 31 38 42 50 52 45 40 40 30 28 40 45 43 39 44 44 41 51 49 56 65 60 61 60 58 57 54 53 48 51 56 56 56 56 60 62 63 63 62
74 92 82 80 65 77 26 24 34 40 37 30 29 24 22 24 28 32 33 41 42 45 51 52 54 60 65 67 58 57 58 58 58 53 55 61 61 60 58 59 61 65 66 68
63 80 90 84 68 56 46 46 59 63 57 63 56 55 46 39 42 37 43 47 53 51 54 51 53 51 59 68 64 64 66 66 64 60 63 62 62 58 59 58 60 65 69 75
51 63 74 86 78 50 35 61 62 49 60 86 80 74 65 60 55 43 55 52 54 56 55 54 53 54 57 62 68 67 70 67 64 62 64 62 65 67 68 67 65 67 72 79
73 74 75 83 94 63 50 67 57 55 61 81 87 82 85 74 59 55 60 65 61 57 55 55 53 50 55 58 64 64 65 67 71 74 72 71 69 75 78 78 79 78 76 77
91 91 88 81 84 80 57 55 64 71 76 89 84 82 76 73 67 59 63 64 63 60 55 52 49 51 53 58 61 64 67 70 71 78 78 78 82 83 83 85 86 86 86 81
97 74 86 75 73 70 69 72 74 67 61 71 74 70 67 64 69 65 64 72 62 58 60 54 47 49 54 60 66 69 70 71 75 77 78 81 84 83 85 83 93 86 89 87
80 85 84 91 80 89 84 73 68 67 69 65 62 68 68 78 78 79 74 77 77 68 60 57 54 52 54 58 65 71 72 74 77 80 81 82 82 87 86 82 91 89 91 92
89 80 79 77 71 67 80 76 78 70 71 72 76 82 87 90 96 97 98 82 84 81 75 69 66 61 56 57 62 67 75 80 80 84 87 91 94 93 97 89 89 89 92 95
77 75 75 84 90 84 84 82 71 73 74 84 86 86 86 96 95 92 95 97 90 89 86 82 80 76 74 73 78 79 85 89 92 94 96 97 98 96 95 93 89 95 97 97

GFSCGP_prec_cthk_105.txt.gz
RH
18 18 16 11 12 12 15 20 22 22 30 37 45 45 49 51 45 45 41 36 33 33 36 34 37 40 40 38 33 28 36 55 59 66 69 70 71 71 74 77 80 87 87 90
22 22 15 15 13 13 15 18 19 18 26 35 40 38 47 53 49 48 42 37 32 31 36 39 38 39 39 38 30 27 35 49 58 59 61 65 68 71 80 81 80 83 87 89
21 18 19 21 21 23 21 24 25 25 25 32 43 40 50 53 52 47 43 37 34 30 36 38 39 38 39 38 28 27 34 42 55 61 62 64 68 74 80 88 90 91 91 92
20 17 18 20 21 26 27 32 31 27 31 35 42 43 50 58 47 44 40 39 35 31 36 36 38 36 36 35 28 28 33 38 47 57 64 69 69 75 78 89 97 94 95 95
14 11 13 15 17 21 23 31 37 37 32 34 38 47 42 52 43 41 39 37 33 31 33 34 35 33 35 34 26 26 32 37 42 50 56 63 70 75 82 91 97 100 96 97
16 13 14 12 14 19 23 28 31 39 39 46 36 47 44 45 42 40 38 38 36 31 34 34 36 34 36 33 26 26 32 35 39 46 57 61 74 83 82 91 95 99 98 98
22 16 17 22 19 16 27 33 50 54 52 42 35 45 43 40 42 40 37 40 39 35 35 38 39 35 36 32 24 26 31 33 36 42 51 59 68 82 82 88 94 98 98 99
33 30 22 34 35 32 34 33 52 61 55 43 42 56 49 50 57 56 45 46 48 44 42 43 41 38 36 32 25 25 31 33 36 38 46 53 64 79 87 87 89 94 96 98
48 45 31 38 48 41 38 40 29 55 48 54 49 49 46 62 63 55 47 49 51 50 47 42 44 37 34 35 26 27 32 35 35 36 44 50 56 66 80 88 90 95 95 98
45 56 35 41 53 42 42 38 44 53 73 73 54 51 58 65 74 66 58 55 56 52 49 42 40 36 37 35 28 29 32 36 36 37 41 48 53 53 61 71 76 81 85 88
53 50 41 49 58 68 64 44 37 45 67 74 71 57 68 76 86 78 65 59 58 58 52 44 42 37 38 38 32 30 33 37 38 40 42 44 49 55 54 55 60 64 72 77
39 43 41 38 50 49 53 76 60 51 47 51 59 50 61 68 75 80 74 65 60 61 63 55 50 46 41 41 37 36 35 37 39 42 45 46 46 51 56 59 59 59 60 60
42 47 52 34 20 18 48 53 82 76 51 45 64 49 54 62 71 79 75 71 73 67 62 74 65 50 43 44 42 42 41 40 42 44 49 47 46 47 52 57 63 64 65 67
38 39 41 54 41 45 46 47 67 89 93 78 70 54 61 67 70 79 75 65 67 66 61 71 74 54 47 50 47 46 48 46 47 46 48 50 47 46 49 54 61 67 65 64
39 46 36 27 22 40 43 42 48 59 66 84 80 69 68 70 70 77 77 65 62 63 58 60 71 78 51 53 50 50 51 52 50 51 49 50 49 50 49 53 57 58 62 66
48 49 48 41 27 20 44 43 36 45 51 57 56 58 58 57 54 62 61 61 61 57 57 54 64 73 78 55 52 53 55 56 53 55 52 52 50 52 54 53 55 58 59 59
64 71 75 56 51 37 39 36 38 31 33 40 43 45 55 49 50 62 64 64 61 58 58 56 57 63 69 78 55 54 60 62 59 58 56 54 54 56 57 59 60 59 60 58
56 73 75 66 76 78 25 22 27 31 35 49 65 60 58 59 61 59 60 59 59 56 54 56 57 58 65 71 70 59 60 61 62 62 58 57 57 61 65 66 63 61 61 66
47 68 84 96 87 77 51 68 61 51 55 75 79 69 62 55 48 46 50 55 57 55 56 55 56 59 63 65 66 91 72 63 66 66 62 62 63 64 66 67 67 70 71 72
46 57 79 93 93 81 59 73 72 70 82 89 83 73 61 53 51 49 46 45 42 48 56 53 55 67 67 62 62 59 79 70 68 69 70 66 67 69 72 74 74 78 79 79
76 54 70 87 90 73 62 68 71 70 73 70 61 65 68 75 66 58 55 48 46 52 57 60 59 68 72 75 71 72 69 74 75 77 76 74 72 74 80 81 81 84 85 85
97 70 64 73 85 79 62 60 68 78 69 59 56 56 65 72 68 69 64 55 51 49 55 61 67 68 71 69 70 72 74 76 76 77 78 80 82 83 89 89 90 88 91 93
94 75 76 66 62 72 77 76 83 77 67 60 55 53 59 65 72 75 70 63 58 59 62 59 61 64 65 66 66 67 66 68 72 77 82 84 86 87 90 93 94 94 93 95
98 95 97 87 77 80 78 83 78 73 63 58 63 64 72 75 80 75 71 65 62 61 64 67 61 62 63 61 60 63 65 66 69 73 77 81 87 90 94 96 96 97 95 97
89 95 97 97 95 94 95 89 79 71 67 65 71 72 70 75 75 72 74 73 71 66 65 71 69 68 65 60 59 58 60 63 71 78 81 86 90 94 97 99 99 99 99 99
90 93 95 99 95 96 86 77 74 71 72 78 79 84 78 85 83 92 91 89 91 79 70 76 79 75 70 67 65 60 58 64 69 76 82 87 94 97 99 97 96 98 99 98

GFSCGP_prec_cthk_108.txt.gz
RH
17 15 15 10 11 12 14 14 13 12 12 16 18 19 18 21 28 34 42 47 43 39 42 41 37 40 41 44 42 38 29 27 36 55 62 67 68 69 75 80 87 91 95 91
20 24 15 14 13 13 13 13 12 11 13 17 17 17 14 18 23 33 42 45 45 41 39 39 40 41 44 45 43 38 27 28 34 50 60 64 69 73 69 72 79 86 92 91
20 20 17 20 20 19 17 17 16 18 17 21 25 20 18 18 25 30 43 46 44 42 43 41 40 39 44 49 43 35 27 26 31 44 58 63 68 78 81 81 82 82 83 88
20 18 18 20 23 26 24 23 23 25 30 31 26 29 19 16 20 32 44 45 43 40 43 41 42 40 45 48 43 34 27 24 30 40 49 57 65 72 80 84 87 89 90 87
21 18 18 19 17 22 22 24 25 28 30 34 32 42 16 20 21 33 47 49 44 42 45 45 39 39 44 48 41 30 27 25 30 35 44 53 59 71 78 84 93 99 99 97
19 17 17 15 14 15 16 19 24 27 32 41 32 40 22 23 24 33 51 48 45 45 44 44 43 41 47 47 40 32 26 26 29 33 40 48 57 67 76 83 91 99 99 99
22 19 16 19 21 19 18 26 40 44 44 37 27 36 25 24 26 40 54 50 45 44 41 42 42 45 45 43 39 29 26 26 31 34 38 46 56 67 79 86 92 96 99 98
36 33 21 22 36 29 30 30 39 55 51 37 32 43 33 32 39 53 57 54 45 45 40 40 39 45 47 45 41 29 25 26 31 34 37 45 55 68 79 86 92 99 98 99
44 33 22 28 31 38 34 41 36 50 51 56 47 35 31 26 48 58 61 61 59 50 46 44 43 47 50 50 41 31 25 26 31 33 37 44 48 64 75 84 89 98 99 98
54 56 28 27 34 44 54 41 46 56 66 59 51 47 45 51 63 66 73 76 69 63 64 60 55 55 54 51 37 32 27 27 29 35 38 43 47 52 69 78 86 91 98 97
50 59 42 32 44 50 62 62 69 54 63 61 66 55 57 71 71 78 88 89 78 65 63 71 67 57 51 44 40 30 28 30 31 37 40 44 48 50 52 58 67 79 90 96
54 51 41 34 42 41 50 77 84 94 74 70 64 48 50 67 73 75 91 89 83 79 72 73 73 71 51 44 42 32 30 31 32 34 40 44 47 50 52 51 54 59 72 81
49 50 49 31 31 54 64 73 68 79 94 84 81 56 54 71 78 79 87 94 86 82 68 65 76 74 73 49 46 38 31 31 33 35 39 44 46 47 50 56 60 59 59 62
55 54 44 40 41 42 40 34 50 69 73 82 82 69 53 55 65 73 81 90 85 76 72 66 75 81 80 71 51 44 38 34 35 38 42 44 47 45 46 50 58 64 65 68
48 59 50 41 37 33 27 24 25 52 52 65 65 68 57 62 69 78 82 85 82 78 76 69 77 77 84 75 69 59 47 42 39 41 44 47 49 47 49 50 52 59 68 66
45 46 47 42 38 33 32 27 30 36 50 39 47 55 63 70 62 62 72 80 83 86 84 73 74 75 79 76 75 73 66 53 47 47 50 49 51 53 52 53 54 55 57 59
45 46 49 43 41 59 50 28 27 21 40 44 47 49 64 68 68 71 71 77 87 83 79 78 76 74 70 69 70 75 75 73 61 54 56 55 54 55 56 59 60 59 56 57
50 55 65 64 68 70 32 39 44 38 28 44 52 63 68 64 67 74 82 72 78 73 74 73 73 70 67 68 69 74 78 80 79 67 62 62 59 58 59 64 63 63 62 60
45 54 64 67 71 52 53 55 72 67 39 60 65 69 65 59 71 75 77 72 68 63 63 66 68 69 65 64 68 70 75 84 87 84 76 70 67 63 65 66 65 66 64 66
83 57 61 68 76 88 69 72 80 86 67 72 79 72 69 70 76 76 72 67 61 59 54 59 62 64 60 66 71 76 75 73 81 82 82 79 74 72 74 75 73 73 76 76
97 85 68 72 83 69 62 66 71 95 92 83 73 75 82 80 75 71 71 63 58 58 57 55 53 61 62 64 70 75 79 75 81 84 84 88 84 81 83 80 80 84 86 87
98 97 94 73 84 76 64 73 76 83 78 77 77 68 64 63 64 70 65 62 56 57 51 50 47 56 65 65 70 75 80 85 88 91 86 91 90 91 88 86 86 87 88 91
97 95 79 58 56 59 74 77 86 84 74 64 62 57 56 53 59 62 66 65 59 58 57 52 47 47 60 67 69 74 82 86 89 91 90 93 94 96 94 95 98 97 97 96
98 95 90 72 68 66 76 79 82 85 73 69 69 66 58 56 56 54 55 60 61 64 63 57 58 52 55 61 68 69 72 76 79 80 80 83 86 90 90 93 94 91 94 91
98 98 99 94 96 95 85 86 81 76 71 67 72 65 66 63 62 62 62 67 63 62 61 59 61 63 61 57 60 67 72 73 73 76 78 77 79 84 87 91 96 96 95 93
95 94 89 97 98 95 88 79 74 72 71 72 77 76 71 67 69 70 66 67 63 61 62 64 67 66 68 71 65 62 63 66 68 69 69 68 69 79 85 91 93 94 93 94

GFSCGP_prec_cthk_111.txt.gz
RH
22 26 24 18 14 15 17 16 16 14 13 12 11 12 11 12 14 13 12 14 19 32 37 40 39 34 36 43 48 50 49 44 32 30 37 55 60 68 69 85 97 95 98 95
25 33 23 15 12 12 14 14 13 11 10 16 15 13 12 15 15 13 13 14 19 32 41 44 42 37 36 45 50 51 49 43 30 30 36 51 61 67 69 73 83 95 94 94
21 21 21 20 20 20 19 17 16 15 16 19 20 18 16 17 16 13 11 12 17 25 44 48 45 41 41 45 47 50 47 42 32 32 36 45 61 65 71 73 79 91 94 93
25 21 16 22 25 26 26 21 21 22 26 28 23 27 16 17 15 14 12 15 18 31 46 49 45 43 40 45 48 52 47 40 30 32 36 41 50 62 71 77 78 83 90 92
26 25 25 21 19 21 23 24 26 27 27 27 24 37 18 18 16 13 13 17 27 40 52 48 43 41 44 48 50 52 47 36 30 31 36 40 47 56 66 77 82 88 88 93
25 21 22 21 19 20 20 22 23 24 28 36 23 34 18 20 17 14 15 26 42 52 55 50 46 43 45 49 57 52 47 33 31 33 35 38 42 52 60 75 83 88 89 95
32 29 24 21 22 21 20 24 32 33 42 34 23 30 20 20 17 21 30 30 43 60 60 52 45 44 43 46 56 53 45 30 30 33 34 36 41 49 59 71 81 87 93 95
42 36 29 26 26 28 30 33 43 35 35 28 27 39 28 24 24 26 28 37 46 62 66 61 49 46 45 47 53 54 43 28 31 32 34 36 43 51 62 77 83 88 95 97
54 49 42 35 32 34 38 41 37 44 44 53 38 33 24 24 31 35 40 50 60 69 71 60 59 55 50 47 51 55 45 32 29 33 33 36 43 51 63 77 84 90 96 98
55 54 47 41 38 42 50 50 47 56 61 55 42 42 40 33 47 55 55 59 69 72 67 63 68 65 59 57 60 57 45 33 29 33 34 38 43 51 61 74 84 89 96 98
57 52 49 45 45 41 45 66 68 62 69 66 52 40 46 61 60 64 60 62 70 83 75 69 68 72 65 63 69 62 45 35 30 32 34 38 43 47 53 65 72 83 92 97
57 56 56 49 47 39 47 60 65 88 93 82 86 64 51 53 57 61 64 64 68 86 81 74 70 75 71 72 75 66 42 36 32 34 36 39 43 45 47 51 58 70 82 93
61 63 59 52 52 50 57 54 50 63 79 80 95 73 58 59 54 59 68 68 78 92 81 76 71 74 78 75 72 63 52 41 35 36 38 41 44 44 46 51 53 56 66 74
62 61 53 51 55 53 50 44 48 61 69 60 71 58 52 65 55 58 62 70 79 93 85 85 74 74 80 80 74 69 54 46 45 39 40 42 44 44 46 49 54 61 60 61
65 52 50 48 51 44 42 47 50 51 46 48 31 43 41 46 66 63 70 73 79 95 95 93 81 80 83 84 80 77 63 51 48 48 47 47 47 47 47 49 52 58 64 68
60 66 58 56 50 50 50 45 38 34 28 26 24 30 37 36 51 58 74 82 83 95 97 93 89 83 84 88 86 83 73 62 50 50 53 54 53 51 50 50 52 54 56 60
49 52 54 44 43 46 40 22 27 24 26 25 26 20 45 44 47 65 67 89 85 89 91 88 86 81 82 84 89 85 81 78 66 54 55 57 61 60 56 52 52 57 57 55
47 48 52 51 47 53 23 27 29 40 31 35 33 23 47 55 58 71 73 91 86 87 90 84 79 87 82 86 86 87 87 82 81 76 63 61 63 64 64 60 58 58 58 59
48 52 59 61 54 31 26 32 54 72 67 57 33 36 50 63 67 78 83 92 91 85 84 79 70 76 84 81 80 80 85 90 87 83 86 78 71 68 66 68 63 61 62 65
75 86 85 75 68 54 29 63 65 73 91 77 65 75 74 73 83 82 87 91 90 87 77 71 65 66 69 80 83 82 82 85 88 81 86 90 86 81 76 73 74 70 68 70
94 94 94 90 76 48 41 63 59 84 97 87 83 81 76 78 81 85 86 86 86 81 76 68 67 60 58 70 78 83 86 84 84 79 84 89 91 92 90 84 81 79 78 78
98 98 97 97 81 67 60 65 85 90 85 85 84 82 75 79 83 87 82 71 71 72 71 66 65 61 56 59 70 79 88 92 92 87 86 88 94 96 97 93 90 88 85 83
98 98 96 85 70 61 71 78 86 94 84 81 79 82 84 79 78 77 68 62 65 63 60 59 61 61 57 52 61 68 74 87 92 90 92 96 95 97 97 97 96 96 92 92
98 98 98 78 71 67 64 68 88 96 91 86 80 80 79 79 71 73 67 65 65 57 54 57 60 62 57 56 53 65 68 73 82 90 87 87 90 91 90 89 91 95 98 94
98 98 98 96 97 87 83 75 78 82 85 82 78 76 81 82 67 69 71 69 61 58 60 58 62 63 61 60 58 57 66 70 74 75 79 81 85 86 85 87 88 89 90 92
97 91 98 98 95 98 96 91 90 85 84 89 88 85 74 69 74 76 74 71 68 65 60 61 66 65 68 67 66 62 60 65 70 73 77 77 76 74 76 81 78 82 86 85

GFSCGP_prec_cthk_117.txt.gz
RH
38 35 33 31 30 27 27 27 28 29 26 22 19 16 15 12 12 12 12 11 11 11 10 10 10 10 10 12 17 28 35 40 43 46 48 50 52 49 38 42 55 67 73 79
44 46 41 34 30 28 28 29 27 23 20 20 17 17 15 12 12 11 12 12 12 13 12 13 12 11 11 13 21 32 38 44 46 49 49 50 54 42 37 44 56 68 74 85
42 39 41 42 39 34 33 31 28 30 24 23 24 21 15 13 13 14 14 12 12 14 18 16 12 13 14 18 24 32 41 49 50 52 54 54 53 41 37 43 55 66 73 86
50 46 46 47 40 33 33 26 23 20 29 34 29 29 25 21 20 14 13 14 18 21 20 21 18 14 19 22 28 34 43 50 51 54 54 56 50 40 38 43 54 61 71 82
44 51 43 38 39 42 37 34 27 31 39 39 31 30 22 20 16 16 16 19 22 22 25 23 21 21 22 23 29 38 47 51 53 53 52 54 48 40 38 45 53 60 68 80
55 45 44 40 34 33 38 44 40 37 35 40 33 28 23 22 21 19 22 22 23 23 23 22 25 27 28 31 32 41 47 55 58 57 54 52 45 38 38 45 51 60 69 82
63 56 54 50 48 43 41 44 45 48 48 32 26 29 26 25 29 32 29 28 27 25 25 25 25 28 32 36 43 45 50 56 58 60 59 55 44 36 38 44 50 60 70 79
72 69 61 52 49 47 47 42 39 35 38 36 41 34 35 40 40 40 39 36 29 27 27 27 26 30 34 41 46 54 57 59 59 61 63 61 45 36 40 44 50 62 72 85
68 75 65 65 58 51 53 53 41 38 41 43 38 38 44 47 41 39 35 35 34 31 29 33 33 32 33 37 49 58 62 61 59 64 66 63 49 38 41 46 53 64 74 86
62 61 70 73 72 70 65 60 61 61 60 54 44 42 44 43 38 36 34 38 38 33 31 32 38 40 37 39 53 61 67 66 60 65 66 63 46 40 44 50 56 68 77 88
64 70 61 62 77 77 73 73 74 66 69 53 49 46 51 46 44 34 28 31 35 35 35 34 38 41 41 45 56 68 71 68 62 66 65 62 42 40 45 51 57 63 70 79
57 67 69 67 65 67 78 84 84 73 75 74 66 53 54 51 44 36 31 27 30 33 39 40 42 40 45 50 64 77 76 71 67 70 67 60 40 40 47 54 57 59 63 67
47 68 70 78 77 77 72 68 74 76 75 73 66 44 47 39 31 28 26 20 24 35 39 42 41 44 52 57 71 83 80 74 72 69 71 53 39 41 49 55 58 57 61 67
59 57 69 75 75 71 70 68 64 65 66 63 51 40 31 26 23 20 17 17 22 35 38 44 48 57 66 71 86 87 82 80 81 77 75 54 40 43 50 55 58 56 58 66
59 57 58 65 69 69 66 59 56 54 55 52 38 34 28 24 21 18 16 15 18 31 43 46 53 79 85 83 94 94 87 84 88 86 73 56 42 45 52 56 58 58 58 63
69 57 55 59 65 57 61 61 64 59 54 49 40 35 24 22 22 18 16 15 26 37 54 57 70 84 93 91 94 97 91 90 92 90 75 56 46 48 54 57 58 59 58 61
72 70 59 43 49 59 60 41 40 38 39 38 35 23 20 21 22 18 18 24 37 53 62 62 78 85 88 92 96 98 96 92 94 91 75 58 49 51 56 58 60 61 60 60
71 72 68 54 55 56 32 32 34 31 25 27 29 25 24 22 18 23 34 42 51 63 66 75 81 82 88 92 94 98 98 97 92 90 77 59 52 52 57 58 59 62 63 63
62 72 71 69 55 38 30 24 27 29 26 34 35 32 35 30 36 43 47 44 65 69 73 79 82 84 88 87 91 96 99 96 93 92 82 64 55 56 60 61 61 62 65 67
74 82 84 83 86 82 63 70 59 47 38 42 50 56 63 64 62 50 56 62 75 76 77 86 84 84 84 84 88 91 98 93 98 95 89 76 63 61 62 66 66 65 66 69
97 98 95 92 96 84 76 65 57 47 46 63 90 98 93 91 84 73 72 85 80 77 82 88 84 80 81 81 83 94 97 95 97 98 96 84 76 74 70 68 68 68 68 71
98 97 97 96 97 90 71 82 66 72 74 94 99 98 96 94 94 97 82 81 80 80 86 84 80 75 75 80 81 82 90 97 95 99 99 92 88 85 84 84 81 75 74 75
97 98 95 96 86 71 67 76 83 89 94 98 96 98 98 98 96 94 89 86 85 88 84 78 69 69 67 75 81 81 90 95 97 98 99 99 96 89 91 92 89 88 87 83
93 95 98 98 96 94 84 79 77 86 88 96 95 95 89 87 81 82 82 83 85 86 82 75 67 69 61 70 80 81 82 86 98 96 95 98 98 93 96 93 94 96 94 93
98 97 97 97 98 98 89 86 88 87 94 94 93 93 82 73 75 76 85 86 88 83 85 77 65 63 60 66 71 78 79 86 94 98 99 97 98 98 98 98 99 98 98 97
96 97 98 98 98 98 97 98 98 99 97 96 93 88 80 73 72 77 80 86 87 82 77 72 69 65 60 62 64 71 75 79 88 94 93 95 96 98 97 95 93 91 95 96

GFSCGP_prec_cthk_120.txt.gz
RH
37 38 34 38 39 36 32 30 29 28 32 29 23 22 24 23 19 16 14 14 14 15 18 13 15 13 13 13 12 9 9 12 24 35 43 47 46 49 52 53 55 37 40 55
42 35 34 35 38 39 34 32 28 28 33 30 24 22 20 18 16 14 14 15 20 16 16 18 16 13 13 15 13 12 14 17 31 37 47 50 52 52 54 54 48 33 41 52
39 34 39 42 44 43 42 38 34 29 30 31 26 23 20 21 18 15 14 15 14 15 19 18 17 17 18 19 20 19 19 24 35 41 49 54 55 55 57 50 38 34 45 55
39 45 44 43 44 46 48 46 36 30 35 33 28 29 28 29 21 19 17 16 19 22 24 21 20 22 21 23 22 22 24 25 35 43 53 57 57 54 54 46 32 37 45 55
43 50 54 54 47 47 47 46 44 43 37 35 33 38 32 32 29 22 22 25 28 27 24 22 21 22 25 23 21 25 27 27 39 49 57 60 62 61 59 44 34 36 41 53
46 55 55 54 50 53 46 47 54 49 46 45 36 35 27 30 28 28 32 33 30 27 26 26 27 25 23 22 26 25 28 35 43 52 62 64 66 64 60 49 38 36 40 48
45 45 52 63 58 56 53 54 59 64 62 47 33 32 27 30 38 40 39 33 35 33 33 31 26 25 22 24 27 30 32 38 45 55 62 66 67 65 58 48 38 38 40 47
41 55 60 56 64 64 63 60 57 61 52 44 41 37 40 47 42 41 38 37 36 36 30 27 26 29 28 24 28 30 38 42 44 56 64 68 68 63 60 45 41 38 42 51
36 46 68 66 73 62 69 73 57 56 51 46 43 57 62 54 46 43 42 39 45 43 36 30 27 29 29 27 26 33 41 46 48 55 68 72 70 67 64 41 41 42 45 62
48 45 54 70 82 77 63 64 63 63 62 49 37 46 48 54 44 37 35 35 35 36 32 30 30 31 29 27 26 31 44 51 52 58 69 72 70 68 63 39 40 44 50 70
43 57 46 62 74 90 92 78 76 70 58 54 47 43 51 57 50 44 38 32 28 29 33 36 33 31 29 29 30 30 37 49 58 65 70 73 72 71 61 38 39 45 54 67
50 48 60 56 65 77 82 96 97 90 72 60 56 54 60 60 55 46 40 33 31 25 32 37 36 35 33 34 36 33 38 46 59 67 72 76 76 75 60 39 38 46 54 60
68 57 58 53 60 70 83 72 77 85 87 72 68 55 68 61 48 37 32 28 26 22 26 31 35 40 38 35 41 41 41 49 60 71 77 78 76 75 58 41 40 48 54 55
62 63 66 61 82 79 72 80 73 66 69 73 60 55 57 46 35 30 25 24 24 21 22 27 36 44 43 41 48 48 49 56 60 77 78 80 79 71 62 43 43 49 54 55
65 64 59 53 50 60 71 73 69 68 63 57 49 48 39 37 34 29 26 24 22 22 23 31 39 47 47 46 53 57 59 66 67 84 83 84 81 67 63 46 47 52 52 55
70 63 62 55 47 57 61 60 62 58 59 56 49 44 34 34 27 25 26 24 24 31 40 40 43 47 46 50 55 65 68 70 83 89 89 86 74 70 67 49 50 54 55 56
69 67 67 68 58 51 54 41 48 52 44 44 47 35 28 27 26 26 26 25 36 44 43 41 49 49 52 55 61 76 78 84 94 93 93 89 77 73 70 54 53 55 57 58
71 71 75 73 63 67 36 38 44 44 41 37 33 26 23 28 30 35 34 31 43 48 43 45 53 54 56 62 70 74 83 88 95 95 96 91 79 74 73 58 55 57 58 60
67 76 79 81 67 56 51 39 31 32 31 33 33 42 37 38 40 48 52 54 48 43 43 48 58 60 61 65 72 75 86 90 98 99 97 94 78 74 76 60 57 59 60 61
89 84 83 78 84 78 67 71 68 62 47 52 45 48 54 57 54 79 71 65 54 47 50 56 66 68 72 74 75 81 86 94 97 99 98 96 84 77 78 68 61 61 62 64
94 98 95 87 94 80 75 73 73 69 70 59 59 82 94 88 87 88 86 80 66 58 63 75 74 74 79 74 77 84 89 96 97 95 97 98 93 78 79 74 66 67 65 68
96 96 95 92 94 91 81 77 89 85 75 87 95 99 98 95 97 96 98 81 73 67 71 75 81 80 80 77 73 83 88 96 96 96 97 98 94 82 77 77 76 73 71 70
95 98 97 95 89 83 84 87 84 89 98 97 99 99 94 92 91 88 85 93 79 77 79 81 82 82 78 72 71 78 86 96 96 99 97 99 96 88 78 81 80 79 80 78
94 96 98 97 95 96 92 88 90 95 93 96 96 94 85 78 78 78 81 86 90 87 86 88 86 81 78 74 70 79 87 92 97 98 98 98 99 93 92 88 86 88 89 91
97 97 95 97 96 97 97 95 98 98 98 97 91 88 81 75 73 74 75 84 89 88 89 86 84 81 76 74 71 78 88 90 96 96 98 99 99 99 97 94 91 93 94 97
94 97 95 96 97 98 98 98 98 98 95 95 94 89 85 82 81 79 79 77 82 86 87 86 85 80 72 71 74 81 86 89 93 99 98 98 98 98 98 98 98 97 99 97

GFSCGP_prec_cthk_123.txt.gz
RH
34 29 29 35 38 37 39 39 39 37 34 37 38 37 38 34 34 32 26 24 20 18 18 20 21 25 24 22 18 17 12 10 11 13 17 26 31 39 47 49 56 54 52 50
27 30 36 34 35 38 39 41 37 38 35 37 40 40 34 31 31 32 24 20 17 19 22 22 29 29 26 23 20 21 16 14 14 19 24 30 34 42 49 52 55 58 55 47
25 25 36 37 38 34 34 39 41 42 39 37 37 37 32 26 25 24 21 19 20 23 22 30 31 30 27 24 22 22 22 23 22 24 27 31 40 47 54 55 57 58 55 46
23 26 29 33 35 46 45 44 43 46 47 43 42 34 32 32 30 29 24 22 24 26 32 29 24 30 28 24 22 22 26 26 27 26 32 34 42 52 54 58 60 59 56 40
22 30 33 33 39 48 40 49 50 50 52 48 38 37 31 34 38 36 33 30 29 39 33 26 23 24 23 23 25 25 27 32 32 29 37 41 50 57 62 64 63 61 51 40
19 24 30 38 37 47 52 58 53 56 59 57 41 42 34 38 40 39 40 47 49 41 32 27 28 24 27 26 26 28 30 31 31 30 35 44 51 60 66 69 65 62 49 38
18 29 49 47 46 44 46 59 70 66 70 57 45 43 35 37 37 39 48 59 47 42 37 34 34 29 28 26 29 31 32 33 33 32 38 48 54 63 71 67 66 58 48 35
35 26 44 61 58 58 55 55 66 72 67 55 50 50 41 38 47 55 66 55 43 42 43 39 35 32 31 27 26 26 32 33 33 36 38 50 58 66 72 71 68 61 49 35
49 39 50 66 73 72 62 65 55 66 64 64 53 52 61 58 55 52 55 49 47 44 44 42 35 34 32 30 28 23 25 32 33 36 38 50 59 68 73 75 67 65 52 37
48 58 50 50 72 66 85 62 81 84 90 73 51 50 58 60 55 53 48 41 39 40 38 37 36 41 35 33 29 29 25 30 32 37 42 44 58 66 75 76 71 67 53 40
47 49 43 47 60 73 72 86 70 76 79 65 57 48 51 67 54 48 43 39 40 36 34 36 41 42 40 40 35 34 32 29 30 34 45 50 56 64 75 78 74 69 50 43
56 74 58 51 55 69 72 79 97 97 69 66 60 58 61 59 59 54 53 50 46 37 29 29 37 41 46 39 36 37 35 33 33 34 41 52 60 65 72 76 76 68 49 43
76 66 74 57 41 75 76 81 82 89 95 92 79 76 76 76 66 58 50 47 37 34 31 26 34 40 44 47 40 39 41 39 38 37 37 51 60 66 73 77 77 65 49 46
58 57 61 65 55 81 73 86 80 75 81 80 89 87 90 87 64 47 44 41 34 27 26 25 28 42 52 52 44 41 41 43 42 42 46 52 62 71 78 80 75 65 49 48
58 70 72 63 39 50 51 59 70 76 75 73 60 67 78 61 50 47 41 34 31 30 29 35 42 53 52 51 46 43 44 45 49 51 56 52 63 72 80 81 73 64 51 50
75 90 73 67 58 52 45 50 59 62 66 65 62 53 50 50 48 41 36 32 32 29 32 44 55 49 46 47 48 46 48 45 51 58 63 61 68 75 81 82 71 65 56 52
82 78 73 70 62 61 51 33 43 50 54 61 57 51 50 49 42 36 37 37 34 33 44 46 45 43 43 46 47 48 49 48 52 63 68 68 72 81 87 81 75 70 59 54
79 77 77 74 70 75 55 49 46 52 51 50 47 40 36 44 51 45 41 33 40 48 56 52 47 44 43 46 49 47 48 50 53 68 75 77 78 89 91 81 77 74 63 56
71 75 79 85 79 69 50 75 56 55 49 48 50 46 46 54 47 34 50 49 53 53 55 53 49 44 43 46 52 53 51 52 56 69 84 84 87 97 87 81 78 78 70 60
92 95 91 80 93 80 81 71 72 57 50 57 53 50 50 50 48 51 56 57 62 73 65 60 50 47 50 55 60 60 53 56 63 71 88 92 94 98 86 80 84 82 74 65
88 89 96 83 90 75 92 80 70 80 90 91 76 64 61 65 73 91 95 87 80 83 78 70 55 60 60 65 65 60 58 58 68 73 90 93 94 97 83 87 87 82 76 69
95 91 86 93 88 95 85 70 98 96 87 87 92 88 98 98 99 96 94 96 93 89 78 72 69 69 71 72 77 71 63 61 71 77 88 94 95 95 91 88 86 88 82 75
95 98 95 95 94 97 93 93 93 92 94 95 97 98 96 90 85 81 79 82 85 93 83 72 70 72 76 82 79 78 71 63 72 81 91 96 97 97 98 93 85 89 88 86
96 97 97 98 96 97 98 98 98 97 98 98 98 97 92 85 79 75 73 73 80 90 92 84 79 72 81 84 81 80 77 67 77 89 94 98 99 99 98 93 91 89 90 88
96 96 94 98 93 90 96 98 98 98 99 98 98 95 92 88 81 78 78 76 76 81 88 90 85 83 87 85 84 86 77 73 82 92 98 98 98 99 99 98 89 92 93 94
90 95 96 94 97 96 97 96 95 95 96 95 92 90 89 88 87 84 86 81 81 79 81 87 91 89 88 86 82 83 79 79 90 95 98 98 97 98 98 98 97 95 95 95

GFSCGP_prec_cthk_126.txt.gz
RH
18 25 26 23 26 27 33 39 36 32 36 37 44 39 41 41 42 44 44 46 39 34 29 24 24 24 25 26 23 23 20 19 17 19 22 22 23 15 20 23 37 46 55 54
18 21 23 28 29 28 32 36 32 34 39 41 42 41 36 40 37 43 40 44 41 36 31 24 24 28 29 27 28 26 22 20 17 15 13 16 18 23 19 26 38 50 57 57
23 23 24 27 29 34 35 31 32 37 37 40 45 40 37 34 38 41 40 39 42 38 31 30 33 35 35 33 31 27 25 21 22 20 21 23 25 29 28 34 43 50 59 60
16 23 27 24 22 33 27 33 43 41 40 42 42 41 36 34 35 42 46 43 38 33 33 39 42 40 42 38 30 27 27 28 29 25 27 28 25 28 30 37 46 56 61 59
9 13 17 20 27 34 25 39 45 50 52 51 43 49 31 36 36 35 35 38 33 37 39 46 45 39 32 35 26 23 24 31 34 29 30 34 32 34 39 43 48 54 63 63
12 19 21 19 22 28 37 38 45 50 56 57 34 52 31 40 34 39 41 38 38 47 54 49 45 37 42 37 28 25 25 24 25 28 32 35 36 40 42 45 49 55 64 65
13 18 23 21 37 55 54 52 52 77 67 50 52 57 34 37 40 44 46 44 51 58 63 53 48 41 39 32 26 22 25 29 27 28 34 37 38 42 45 46 51 62 63 66
16 24 31 59 58 59 55 61 66 58 59 49 55 59 31 42 42 45 48 55 60 59 62 53 49 38 35 37 31 24 21 29 36 32 34 41 39 45 48 56 58 65 65 68
31 35 31 35 52 60 79 72 69 75 63 58 63 52 46 46 46 48 61 62 70 63 49 46 45 45 38 32 32 29 28 27 37 32 33 40 43 49 55 59 61 64 64 68
38 48 32 30 47 51 71 69 81 86 84 70 50 54 61 55 60 53 71 70 71 57 48 41 42 46 41 38 40 35 35 33 31 35 37 38 46 49 57 60 64 66 66 70
52 54 43 47 36 42 68 76 72 78 91 71 64 54 49 62 79 67 61 61 57 50 44 41 41 45 43 42 42 40 37 37 33 32 35 37 44 50 56 61 65 67 68 71
58 57 57 53 49 57 54 94 96 89 93 84 73 65 69 60 70 76 56 51 50 47 45 41 36 38 44 48 48 44 39 36 35 37 37 38 38 51 57 58 64 68 73 72
70 88 91 70 60 59 74 81 81 92 94 90 96 68 79 71 74 65 59 56 49 48 44 41 41 37 45 50 50 47 40 35 35 37 43 44 39 45 55 60 64 68 73 79
68 53 67 62 64 77 69 66 65 81 85 82 75 78 96 92 87 81 63 50 46 48 45 41 36 34 44 55 52 47 41 36 38 37 44 49 47 44 53 61 66 70 74 80
87 63 52 48 51 57 51 51 52 56 77 74 71 75 85 94 90 74 67 48 42 47 44 37 38 53 52 50 48 44 38 39 41 40 41 52 55 50 49 60 66 70 74 78
87 95 95 93 64 55 51 51 48 46 49 62 65 69 68 70 74 66 52 49 48 49 43 40 58 50 45 41 36 29 37 39 40 42 39 51 57 59 54 62 69 71 74 79
63 68 75 74 62 57 52 53 50 41 46 49 60 60 64 58 62 68 58 54 55 48 54 49 45 40 38 38 34 32 34 40 42 43 41 45 58 65 60 63 70 74 75 76
75 82 77 73 70 75 62 67 57 48 49 49 49 49 61 83 71 61 63 63 65 67 57 52 47 43 42 39 33 34 36 42 44 45 44 46 62 72 67 71 74 74 77 80
79 84 83 82 70 60 60 78 69 58 58 74 70 82 75 69 59 68 64 65 63 61 55 56 54 49 46 43 38 38 41 45 48 47 47 48 61 77 70 77 75 76 86 84
79 87 98 80 91 76 96 93 83 70 64 84 81 82 75 66 60 59 57 57 59 58 56 55 53 57 53 51 43 45 47 48 54 52 46 51 57 79 77 84 90 79 92 85
84 83 91 93 91 90 93 84 65 85 98 98 96 93 89 77 70 71 66 68 70 86 87 73 71 65 62 54 53 54 53 55 59 56 51 52 60 77 90 87 89 87 91 87
95 90 85 89 86 91 89 78 87 97 96 94 96 98 94 97 97 93 86 78 74 76 84 82 84 72 65 59 65 63 60 60 61 60 53 52 59 70 96 94 92 94 92 90
92 98 98 98 97 97 98 96 98 98 98 97 97 97 94 87 81 73 68 65 65 66 75 79 84 80 67 65 71 72 70 69 70 66 58 60 64 72 90 98 95 93 93 93
90 98 94 97 95 93 98 98 98 98 98 98 98 98 96 90 84 80 78 78 76 72 71 75 82 86 81 75 71 73 78 81 77 69 64 66 78 79 92 97 99 93 94 96
96 97 93 96 93 89 95 98 97 97 98 97 96 93 91 88 87 87 84 79 81 79 78 76 77 84 89 88 79 80 86 85 81 80 74 75 87 81 84 97 98 94 94 98
89 93 96 96 98 98 98 98 96 95 90 87 83 80 78 78 80 78 77 78 78 82 80 81 79 84 92 97 94 91 90 89 85 79 83 89 91 88 93 96 98 99 98 98